ECMWFNIL_700_spd_000.txt.gz
Wind_Speed
10 11 12 14 16 18 21 23 26 28 30 30 30 31 31 31 29 26 22 20 19 18 17 15 14 12 12 11 11 11 11 12 12 13 14 14 15 16 16 17 17 18
13 14 14 15 16 18 20 23 26 29 30 30 30 31 32 32 30 26 22 20 19 19 18 16 14 13 12 11 11 11 12 12 13 13 13 14 15 16 17 18 20 20
16 17 17 17 18 19 21 23 27 29 29 29 29 30 32 31 29 25 21 20 18 18 17 16 15 14 13 13 12 12 13 14 14 14 14 14 16 18 20 21 22 22
19 20 21 21 20 21 22 24 27 28 28 28 28 29 31 30 27 24 21 19 18 17 15 14 14 14 15 15 15 14 14 15 15 15 14 15 16 19 21 22 24 24
23 24 24 24 23 23 23 24 27 28 27 27 27 28 30 28 25 23 21 20 19 17 16 15 15 15 15 15 16 15 15 16 17 17 16 16 16 18 20 22 25 26
26 27 27 26 26 25 24 25 27 29 27 25 26 27 28 27 25 22 20 19 19 18 18 17 16 15 15 15 16 16 16 17 18 18 18 18 18 18 20 22 24 23
28 29 29 29 28 27 25 25 28 29 26 24 25 27 27 26 23 20 19 19 19 18 18 17 16 16 17 18 18 18 18 18 18 18 18 19 19 19 19 21 22 21
28 30 30 31 30 28 26 26 28 29 26 24 26 27 27 25 23 19 17 17 18 18 18 18 18 19 19 19 18 17 17 18 18 17 17 17 18 18 19 21 22 22
28 29 31 32 31 28 26 27 29 28 25 24 26 28 27 24 21 18 16 16 16 17 17 18 19 19 19 18 17 16 16 16 17 17 17 17 18 18 20 22 23 23
29 30 31 32 31 28 26 26 29 27 24 24 27 28 26 23 20 17 16 16 16 17 17 18 17 17 18 18 17 16 16 16 17 18 19 19 19 20 21 23 24 24
32 30 30 31 31 28 25 26 28 26 23 24 27 27 24 21 18 16 16 16 17 18 18 18 17 17 18 18 17 17 17 18 18 18 19 19 19 21 22 23 24 24
35 31 27 29 29 27 25 25 26 25 23 25 27 25 22 19 17 16 16 18 19 19 18 17 17 17 17 17 16 17 18 18 18 18 18 18 19 20 22 22 24 24
37 31 25 26 27 26 24 23 24 24 23 25 26 24 20 17 16 16 17 19 19 18 17 17 18 18 18 16 16 17 17 18 18 18 18 19 20 21 22 23 24 24
38 29 22 23 23 22 22 21 22 22 23 25 24 21 17 14 14 15 17 18 18 17 18 18 19 19 17 16 17 17 17 18 19 19 19 19 19 20 22 23 24 24
38 26 19 21 21 20 21 20 20 22 23 23 22 18 15 13 13 15 17 17 16 17 18 19 18 16 16 16 17 18 19 19 20 21 21 20 20 20 21 22 23 24
37 25 18 20 20 19 19 18 19 21 20 20 18 15 13 12 13 16 17 15 15 17 18 18 16 14 14 16 18 19 20 20 21 23 23 23 23 22 23 22 23 24
37 25 18 20 20 18 17 18 19 18 17 17 15 13 11 11 12 15 16 15 17 19 20 19 16 15 15 16 19 21 23 23 23 24 24 25 25 26 26 25 25 24
35 23 18 20 19 16 17 18 17 15 15 16 14 12 11 10 12 14 16 17 20 22 22 21 20 18 17 18 20 23 24 24 25 25 25 26 27 29 28 28 28 26
31 19 17 18 16 15 16 16 14 14 15 15 14 13 11 11 12 14 16 18 20 22 22 22 21 21 22 22 22 24 25 25 25 26 27 28 29 30 30 30 29 28
28 18 17 16 11 12 14 13 12 13 14 15 15 15 15 14 15 16 18 19 20 21 21 22 22 24 26 26 24 25 25 25 25 26 28 29 29 29 29 29 29 28
27 21 17 11 8 10 11 11 11 12 14 15 16 16 16 17 18 21 22 23 24 21 18 20 24 26 29 29 27 27 26 26 26 26 27 28 27 26 27 28 27 28
27 23 15 7 6 7 8 9 11 13 15 16 17 18 20 20 20 21 23 26 27 23 20 23 26 28 30 30 28 28 29 28 28 27 26 26 25 23 23 24 26 28
25 22 13 5 5 6 8 10 12 15 17 19 20 21 21 20 19 21 25 29 29 27 27 28 28 30 31 29 27 29 30 30 29 28 27 26 25 21 20 22 25 28
24 19 11 5 4 8 11 12 16 19 20 21 22 21 20 21 23 27 29 30 30 32 31 28 29 32 32 29 28 30 31 31 30 29 28 27 25 22 20 22 26 29
19 16 12 6 5 10 12 14 17 20 20 21 23 23 23 25 29 31 31 29 31 33 30 27 31 34 32 30 31 32 32 30 30 30 30 27 25 24 22 24 27 29
13 14 13 9 7 11 12 14 17 19 19 22 24 25 26 28 31 32 33 32 32 32 30 30 33 33 32 32 34 33 32 30 29 30 29 28 26 25 26 27 28 28

ECMWFNIL_700_spd_003.txt.gz
Wind_Speed
8 7 6 6 7 8 10 12 13 15 17 19 20 21 21 22 23 23 21 19 17 16 14 14 13 12 11 11 11 11 11 11 11 11 12 13 13 14 15 15 16 17
12 10 9 10 10 11 13 14 15 16 17 19 20 21 21 22 23 24 23 21 19 17 15 14 13 12 12 11 11 11 11 12 12 12 13 15 15 15 16 16 17 18
15 14 13 13 15 15 15 17 18 18 18 20 21 22 22 22 23 25 25 23 21 18 15 13 12 12 11 11 11 12 12 13 14 14 15 16 17 17 18 18 18 19
18 17 17 17 18 18 18 19 19 20 20 20 21 22 22 23 24 25 26 25 21 18 15 13 13 11 11 11 11 12 13 14 15 16 16 16 17 18 19 20 19 19
21 20 21 21 21 21 20 20 20 20 20 21 22 22 22 22 24 25 26 25 21 18 16 14 13 12 11 11 11 12 13 14 15 16 15 16 17 18 18 20 20 20
25 24 24 24 23 22 21 20 20 20 20 22 23 22 22 22 24 25 25 24 21 18 16 14 13 12 11 11 11 12 12 14 15 15 15 15 17 17 18 19 19 19
26 28 27 26 25 24 22 20 19 19 20 22 23 23 22 22 24 25 24 22 20 18 15 14 13 12 11 11 11 11 12 13 13 14 15 15 16 17 17 18 18 18
25 28 29 28 27 25 23 21 20 20 20 21 23 23 22 22 23 24 23 21 19 17 15 14 14 13 11 11 11 11 12 13 13 13 13 14 15 16 17 18 18 18
25 27 29 29 29 27 25 22 22 21 20 20 21 23 21 21 23 22 21 19 18 17 16 14 14 13 12 12 12 13 13 13 14 13 13 14 15 16 16 16 17 17
27 28 29 31 33 31 26 23 22 21 20 19 20 21 21 21 22 21 20 18 17 18 16 15 15 13 13 14 14 14 14 15 15 15 15 16 16 17 17 17 17 17
29 30 31 33 35 34 27 23 22 21 19 19 20 20 21 22 22 20 18 16 17 18 17 15 15 14 14 15 15 16 17 18 18 17 16 17 17 18 18 18 19 19
32 32 33 33 34 34 30 24 22 21 20 20 20 20 21 22 21 19 17 15 16 17 17 16 15 15 15 16 17 18 19 20 20 18 17 17 18 18 19 20 21 21
34 34 33 33 33 34 31 26 22 21 21 20 19 19 21 21 20 18 15 14 15 17 17 16 16 15 16 17 17 18 19 19 19 18 17 17 18 19 19 20 21 22
35 35 33 33 34 33 29 26 23 22 21 19 18 19 20 20 19 16 14 13 15 17 17 16 15 16 16 17 17 18 18 17 17 18 17 17 18 19 20 21 22 23
35 35 34 34 34 33 29 25 23 22 20 18 17 18 18 18 17 15 13 13 15 18 18 16 15 16 16 16 17 18 18 17 18 19 19 18 19 20 22 23 24 24
37 37 37 36 35 33 29 25 22 21 19 17 16 16 16 17 16 14 12 13 16 18 17 16 16 15 15 16 17 18 19 19 20 21 21 21 22 22 23 25 26 26
39 41 41 38 35 34 31 25 22 21 18 16 15 15 15 15 14 13 13 14 16 17 16 16 17 16 15 17 19 19 20 22 22 22 22 22 23 24 25 27 28 27
44 45 44 42 39 35 29 25 23 21 18 15 14 13 13 13 13 13 13 14 16 16 17 19 21 20 19 20 22 22 23 25 25 23 22 22 24 26 28 29 30 29
53 48 44 44 40 31 26 25 24 20 16 14 13 12 11 12 12 12 14 15 16 16 18 20 21 21 21 23 26 27 27 28 27 24 23 23 25 28 29 30 31 31
53 49 44 43 38 29 26 27 24 18 16 14 12 11 10 10 10 11 13 15 15 15 17 19 18 18 21 25 28 29 30 29 27 25 25 26 28 30 30 30 31 32
50 50 48 45 40 32 29 27 23 19 16 13 11 9 8 9 10 11 12 13 14 15 17 17 17 18 22 25 28 30 31 29 27 26 27 29 31 32 32 31 32 33
53 53 49 47 44 35 32 27 22 18 15 12 10 9 9 9 10 10 11 13 15 17 18 17 17 20 23 24 27 30 31 29 27 28 29 31 34 34 34 33 33 34
59 55 48 47 46 36 32 27 22 17 13 11 9 9 9 8 9 10 13 16 18 20 21 18 18 21 23 25 27 30 30 28 27 29 31 34 35 35 34 34 34 34
59 54 48 48 44 32 28 25 21 16 12 11 9 9 9 9 12 14 16 18 20 22 24 23 22 24 25 27 28 29 29 27 28 31 33 35 35 34 33 34 34 33
53 50 47 46 39 27 25 23 19 17 15 13 10 10 11 11 15 17 18 21 21 22 24 25 25 25 27 28 28 28 28 29 31 34 34 34 34 33 33 33 33 33
49 44 41 37 26 20 21 19 19 23 22 16 12 13 13 15 19 20 22 25 26 24 24 25 27 27 29 28 27 27 28 30 33 35 35 35 35 34 33 32 32 32

ECMWFNIL_700_spd_006.txt.gz
Wind_Speed
12 11 10 8 7 7 8 8 9 10 11 12 12 13 15 17 18 18 18 20 22 22 20 18 16 15 14 13 13 12 12 11 11 10 10 11 12 12 14 15 16 17
15 14 14 12 11 11 12 12 12 13 13 14 14 14 14 16 17 18 18 20 22 22 21 18 16 15 14 14 13 13 13 13 12 11 11 12 12 13 14 15 16 17
19 18 17 16 14 15 15 15 15 15 15 16 15 15 15 16 17 18 19 19 21 22 21 18 16 15 14 13 13 13 14 14 14 13 12 13 14 14 16 17 17 18
22 22 20 19 19 19 19 19 18 17 17 17 17 16 16 16 17 18 19 19 20 21 20 18 16 15 14 13 12 13 14 14 14 14 14 14 15 16 17 17 17 17
24 25 25 23 23 23 23 22 20 19 19 18 18 17 16 16 17 18 18 18 19 20 20 17 15 14 13 13 13 13 14 14 14 14 14 15 16 16 17 17 17 17
26 27 28 27 27 27 27 25 23 22 20 19 19 19 18 18 17 17 18 18 18 20 19 16 14 14 13 13 13 14 14 14 15 15 15 15 16 17 17 17 17 17
27 27 29 27 26 28 30 29 27 23 22 22 22 21 20 20 18 17 17 17 18 20 18 16 14 13 13 13 13 14 14 14 15 15 16 16 16 16 16 17 17 17
31 29 30 29 26 26 29 31 29 26 25 25 25 23 21 20 19 17 16 17 19 20 19 16 15 13 12 13 13 13 13 14 15 16 16 16 16 16 16 17 18 18
36 34 34 34 32 29 27 30 31 29 29 28 24 24 22 20 19 18 16 17 19 20 19 16 14 12 11 12 12 12 13 14 15 16 16 16 16 16 16 18 18 18
40 39 38 38 38 35 29 28 30 32 33 29 24 22 20 20 21 19 17 18 19 19 18 16 13 11 11 11 10 11 12 14 15 16 16 16 15 16 16 17 18 19
43 43 43 42 40 40 36 29 29 34 35 31 25 22 20 21 22 20 18 18 19 18 16 15 12 10 10 10 10 11 12 13 14 15 15 15 15 16 17 18 19 19
43 45 47 46 43 44 40 31 30 35 37 33 26 21 21 23 23 21 19 18 18 17 16 14 12 11 10 10 10 10 11 12 13 14 14 15 16 17 19 19 20 20
43 47 49 48 46 45 41 34 31 36 39 35 27 22 23 24 23 21 19 18 17 16 16 14 13 11 11 11 11 11 11 12 14 14 15 16 17 18 19 20 22 23
41 48 51 50 48 48 45 39 35 36 40 38 29 24 24 25 24 22 19 18 17 16 16 15 14 12 13 13 13 12 13 14 15 16 16 17 18 18 20 22 23 25
42 52 53 50 50 50 47 44 41 39 40 37 29 24 25 26 24 21 19 18 16 16 16 16 14 13 14 14 14 14 15 15 17 17 17 18 19 20 21 22 23 24
46 56 53 48 52 55 50 47 46 42 38 34 28 24 25 25 23 21 18 17 16 16 16 16 15 13 14 14 15 16 17 17 18 19 19 20 21 22 22 22 22 24
44 49 47 44 50 57 55 50 47 42 40 35 29 26 26 24 21 19 17 16 16 16 17 16 15 13 13 14 16 17 18 19 20 20 21 23 24 24 23 23 24 25
42 43 43 44 51 56 55 52 48 44 43 39 32 27 25 23 20 17 16 16 16 17 17 16 14 13 14 15 16 17 19 20 22 22 23 25 26 26 26 26 27 27
40 41 43 48 56 57 53 51 48 48 48 39 31 30 27 22 19 16 15 17 17 17 17 16 15 14 15 16 16 17 19 21 22 23 24 26 28 29 29 30 30 30
39 42 47 53 59 56 51 50 48 49 49 38 29 32 29 21 18 16 16 18 17 17 17 16 16 16 16 17 17 17 20 22 23 24 25 26 28 29 30 32 33 33
39 44 49 54 56 53 49 50 47 49 51 40 31 32 28 21 18 16 16 18 19 17 17 16 17 18 18 18 18 19 22 24 25 25 26 27 27 28 31 34 34 34
36 40 43 45 49 51 49 48 48 51 53 44 34 33 31 24 20 18 17 19 19 18 17 15 15 17 20 20 20 23 26 28 28 28 28 28 28 29 32 34 34 34
31 35 36 37 42 47 48 49 51 52 49 39 33 35 34 26 20 18 17 18 18 17 17 15 15 17 21 22 22 25 28 30 30 30 30 29 30 31 33 34 34 34
30 33 36 37 39 43 48 52 53 48 36 27 30 35 32 25 22 21 19 17 17 16 17 16 16 17 20 22 24 27 29 31 31 31 30 29 30 32 33 33 33 34
32 34 38 39 39 45 52 51 44 32 20 20 30 32 28 25 24 23 20 17 15 17 17 18 18 19 22 25 27 29 31 32 31 30 30 30 31 33 33 33 32 33
32 33 35 35 38 42 44 36 26 18 15 20 28 28 27 27 25 22 19 16 16 20 20 19 20 22 24 27 30 32 33 31 30 29 29 30 31 33 32 31 31 33

ECMWFNIL_700_spd_009.txt.gz
Wind_Speed
16 15 14 13 11 10 9 9 9 9 8 7 8 9 10 10 11 11 12 12 13 13 14 15 16 15 13 12 11 10 10 9 9 9 9 10 11 13 14 14 15 14
18 17 17 16 15 13 12 12 12 12 12 11 11 12 12 13 13 13 13 13 14 14 14 15 16 16 14 13 12 11 11 10 10 9 10 11 12 14 15 15 16 16
21 20 20 19 18 17 16 15 15 16 16 15 15 15 14 14 14 14 14 14 14 14 15 16 16 16 15 13 11 11 11 11 10 10 10 11 13 14 16 16 16 16
24 23 23 21 21 21 20 19 19 18 18 18 17 18 17 16 16 16 16 15 15 15 15 16 17 17 15 13 12 11 11 11 10 10 10 11 13 15 16 17 16 16
27 26 25 24 24 24 24 24 23 21 21 20 20 20 19 19 19 18 17 17 16 17 16 16 17 17 16 14 12 11 10 10 10 10 10 11 13 14 15 16 16 16
29 29 28 28 27 27 27 27 26 24 24 23 22 22 22 22 22 20 19 19 18 18 17 17 17 17 17 15 13 12 10 10 9 9 10 11 13 14 15 16 16 16
31 31 31 31 30 30 29 29 29 27 25 24 24 23 22 23 22 22 22 21 19 19 19 18 17 17 17 16 14 12 11 9 9 9 9 11 12 13 14 15 15 16
32 34 34 33 33 33 32 32 33 31 28 25 25 24 24 24 24 24 23 20 19 20 20 19 18 18 17 16 14 12 11 10 9 9 9 10 11 12 14 15 15 16
32 35 37 37 36 36 35 35 35 35 32 28 26 26 27 28 27 25 23 20 20 21 21 21 20 19 17 16 15 13 11 10 10 9 8 9 10 12 13 15 16 17
33 37 41 41 40 39 39 37 37 37 35 31 29 29 29 28 29 27 24 22 21 22 22 22 21 20 18 17 16 14 12 11 10 9 8 8 10 12 13 15 16 18
35 42 45 43 42 42 41 40 40 40 37 35 33 31 29 29 31 31 28 23 22 23 23 24 23 21 19 18 16 14 12 11 10 9 8 9 10 12 14 15 17 18
40 44 44 44 44 44 43 43 43 43 42 39 37 36 35 34 34 36 33 26 23 25 25 25 24 21 19 18 16 14 12 11 10 10 9 10 12 14 15 16 18 19
40 41 43 45 45 44 44 45 45 48 50 46 44 44 44 41 39 39 37 31 25 26 26 25 24 22 19 18 16 14 12 11 11 12 11 12 14 15 16 17 19 20
35 37 40 45 48 46 44 45 46 49 53 51 48 49 49 47 45 42 40 36 29 26 27 26 24 22 19 17 16 14 13 13 14 14 14 15 16 17 18 19 21 22
33 37 39 45 53 53 45 44 47 50 53 51 49 51 52 51 52 48 41 37 33 29 27 26 24 21 19 17 17 15 14 15 15 16 16 17 18 18 19 21 23 24
36 38 39 43 52 54 47 43 46 49 51 50 50 53 54 54 55 52 43 38 35 30 26 25 23 20 19 18 18 16 16 16 16 17 17 18 19 19 20 22 25 26
36 36 37 38 44 51 50 41 36 37 40 44 48 53 57 57 57 55 46 40 36 30 25 24 22 20 20 20 20 18 17 18 18 17 17 19 20 21 21 24 26 27
37 36 37 36 39 47 47 36 28 26 30 37 44 51 56 57 58 59 51 41 36 31 26 24 22 21 21 21 21 20 19 20 20 18 19 20 21 23 24 26 28 29
38 37 37 36 37 40 37 30 26 25 26 32 38 47 55 58 62 64 54 42 41 36 28 26 25 22 22 22 22 22 21 22 22 20 20 21 23 25 26 28 28 29
38 37 36 34 32 32 30 30 31 29 28 32 38 46 54 58 65 66 53 42 44 40 33 32 28 21 20 23 23 23 24 24 24 23 23 24 25 27 29 30 30 29
35 36 36 34 31 31 31 32 32 29 29 34 39 47 54 56 61 63 52 44 45 43 40 35 25 18 21 24 24 25 26 26 27 26 26 27 28 30 31 33 33 31
32 35 37 34 31 32 34 35 35 33 32 34 38 45 50 51 56 57 48 44 46 45 41 32 22 21 25 24 23 25 27 27 28 28 28 29 31 33 34 35 34 32
30 33 34 32 31 33 34 38 40 37 36 37 38 39 37 38 45 46 39 40 45 42 36 28 23 23 23 21 22 26 28 29 28 27 27 29 31 33 34 36 37 34
28 30 30 30 32 33 34 38 39 38 39 40 35 30 25 25 31 33 33 39 42 37 32 27 22 22 22 22 24 27 29 29 27 26 28 29 31 33 34 37 37 35
26 28 29 29 30 31 33 35 32 31 34 32 23 18 18 20 24 27 30 35 35 31 28 24 21 21 22 22 24 26 28 28 28 29 30 30 32 34 35 36 36 35
27 28 29 29 28 29 31 30 24 21 21 18 13 12 16 19 22 25 29 30 29 27 25 24 23 25 24 22 23 24 26 29 30 30 31 32 33 34 34 35 35 35

ECMWFNIL_700_spd_012.txt.gz
Wind_Speed
19 18 18 17 17 16 16 16 16 15 14 12 11 10 9 8 8 8 9 9 10 10 10 11 12 13 14 14 14 13 12 12 11 11 10 10 10 10 10 10 11 11
19 19 19 19 17 16 16 16 16 16 15 15 14 14 13 12 11 11 11 11 12 12 12 12 13 14 15 15 15 14 13 12 12 11 10 10 10 10 10 10 11 12
21 21 21 21 19 18 18 18 18 17 17 18 17 17 16 15 14 14 13 13 13 13 14 14 14 15 15 15 15 15 14 13 12 11 10 10 10 11 11 11 11 12
23 23 24 23 22 22 21 21 21 20 20 20 20 19 18 17 17 15 15 15 15 15 15 16 16 16 16 16 15 15 14 13 13 12 10 10 11 11 12 12 12 12
25 26 26 25 25 25 25 25 24 24 24 24 23 22 20 19 18 17 16 16 17 17 17 18 18 18 18 18 17 15 14 14 13 12 11 11 11 12 12 12 12 12
28 28 28 27 27 28 28 28 27 27 27 27 26 25 23 22 21 20 18 17 18 19 18 19 19 19 19 20 19 17 15 15 14 13 12 11 12 12 12 11 11 12
30 30 30 29 30 31 31 31 31 30 30 31 30 29 27 25 25 25 23 21 20 20 20 21 20 19 21 21 21 19 17 15 15 13 12 12 12 12 12 11 11 11
30 31 32 33 33 34 34 34 34 33 33 33 32 32 30 27 26 27 26 24 24 25 25 23 21 20 22 23 22 21 19 17 15 14 13 13 12 12 12 11 10 11
29 31 33 35 36 36 37 37 36 36 36 35 34 34 33 30 28 26 24 25 28 30 28 24 23 22 23 24 24 22 20 18 15 14 14 13 13 13 12 11 11 11
27 29 31 33 34 36 38 39 39 38 37 36 35 35 34 33 31 29 30 33 34 34 32 28 27 26 24 24 24 23 21 18 16 15 15 15 14 14 13 11 11 12
28 29 30 30 31 35 39 40 41 40 38 37 38 38 37 37 37 37 39 43 42 38 35 32 31 30 27 24 24 24 21 18 17 17 17 16 15 14 14 13 13 13
29 29 30 30 31 36 42 44 42 40 39 40 41 40 39 42 46 45 43 45 46 42 38 35 34 34 31 28 25 24 22 19 18 18 18 17 17 16 16 16 15 14
29 29 30 32 33 37 42 43 39 38 40 42 43 42 43 44 45 46 45 45 46 47 46 42 40 40 38 34 28 23 22 21 19 19 19 18 18 19 18 17 16 15
28 29 31 34 35 40 45 41 36 37 40 41 42 41 40 40 39 40 45 47 47 49 51 49 47 46 43 38 32 25 22 22 21 20 21 20 20 20 20 18 17 16
29 30 32 34 34 40 46 40 34 34 32 32 34 35 37 42 43 43 47 51 51 50 52 53 53 52 45 38 36 31 25 24 24 21 21 22 21 20 21 20 18 17
30 30 32 34 34 37 39 34 30 31 29 27 29 32 37 44 48 48 48 52 53 52 54 57 58 57 50 42 41 40 32 28 27 23 22 23 21 20 21 20 19 19
29 31 33 35 33 30 29 28 28 29 29 29 29 30 32 37 42 45 46 49 51 51 55 60 60 61 58 49 46 46 41 36 31 26 23 23 22 21 21 21 20 21
31 33 34 34 31 27 25 27 28 28 27 27 29 29 29 31 37 41 43 46 48 49 55 60 61 62 61 53 49 49 46 42 34 26 24 24 22 22 22 22 22 23
31 32 32 32 30 27 25 25 25 26 26 25 27 29 29 30 33 36 39 43 48 51 54 58 61 61 59 54 49 47 46 44 35 26 24 24 23 22 22 23 24 25
29 30 31 30 28 25 24 24 24 25 26 27 29 30 30 30 32 33 36 40 46 52 55 57 59 60 57 52 46 43 43 42 36 28 24 24 23 23 23 24 25 28
28 29 28 26 25 24 25 26 26 25 26 28 30 30 30 31 32 34 35 37 42 48 52 54 58 60 55 49 45 43 43 42 37 30 25 24 24 23 24 26 27 30
26 25 24 24 25 26 26 26 26 26 26 27 28 30 29 28 28 29 31 36 41 45 48 51 57 59 53 46 45 44 42 41 38 30 26 25 24 25 26 25 26 30
24 23 24 25 26 27 27 26 26 25 25 26 28 29 26 23 22 20 22 27 33 38 43 48 54 56 52 46 44 41 38 38 34 28 26 25 25 28 29 25 23 27
23 24 25 26 27 27 27 27 27 26 25 26 28 29 26 23 21 20 22 25 27 30 35 41 48 53 50 45 40 36 35 34 31 28 26 25 27 32 31 27 27 30
24 26 27 28 28 28 28 29 29 28 27 27 28 28 25 21 18 17 22 28 32 32 33 38 45 48 43 38 35 33 32 31 29 27 26 26 29 32 30 29 32 33
27 29 30 30 29 28 28 29 30 29 29 28 27 26 22 18 14 13 15 21 28 31 30 33 37 37 32 29 30 30 29 28 26 25 26 27 29 30 30 32 35 34

ECMWFNIL_700_spd_015.txt.gz
Wind_Speed
17 16 16 16 17 17 15 15 16 17 17 17 15 14 13 13 12 12 11 11 11 11 11 11 12 13 13 14 14 14 14 13 13 12 12 13 14 13 12 12 12 12
18 17 17 17 17 16 15 16 17 18 19 18 17 16 16 15 15 14 14 14 14 13 12 12 12 13 14 15 15 16 16 15 15 14 13 14 14 14 13 12 12 12
19 18 18 17 17 16 16 18 18 19 20 20 20 19 18 17 17 16 15 15 15 15 15 14 14 14 15 16 17 17 17 17 17 16 14 14 15 15 14 13 13 13
20 19 18 18 18 18 19 20 20 21 21 21 21 21 20 20 19 18 17 17 17 19 20 20 20 19 18 18 19 19 19 19 18 17 16 15 15 16 16 15 14 13
21 20 19 19 19 20 21 22 22 23 23 22 22 22 22 23 23 21 20 19 20 23 25 27 28 26 24 24 24 23 21 20 20 19 17 16 16 16 17 16 15 14
22 21 20 20 21 22 23 24 25 26 26 25 25 24 25 26 26 25 24 23 24 27 29 30 30 30 29 27 27 28 25 22 22 20 18 18 17 17 18 17 15 14
24 23 22 22 22 24 26 27 28 29 30 30 29 28 29 28 28 28 28 28 31 34 35 35 33 32 33 30 30 31 28 25 23 21 20 19 18 18 19 18 16 14
25 25 25 25 25 27 28 29 31 32 33 33 32 31 31 30 31 32 33 35 37 38 39 39 37 37 37 36 36 34 29 26 25 23 22 21 20 20 19 19 17 15
27 28 28 27 28 29 30 31 33 33 35 36 35 34 34 34 34 35 36 38 39 40 39 39 40 42 40 38 38 37 32 29 28 27 25 22 21 21 20 19 18 16
28 28 29 29 31 31 32 34 34 34 37 38 36 33 32 33 34 36 37 38 39 40 39 39 42 44 42 38 39 40 37 32 30 30 29 25 22 22 21 19 18 17
27 28 29 30 31 31 32 33 34 34 36 37 34 30 29 29 30 33 37 40 42 42 41 41 42 44 44 42 40 39 38 35 33 31 31 29 25 23 22 20 19 18
26 26 28 29 29 28 27 30 31 32 35 34 30 29 30 31 33 35 37 41 44 45 44 43 43 44 46 45 43 41 38 38 37 32 31 32 30 27 23 20 19 19
26 26 27 27 26 25 26 29 30 31 34 31 28 31 34 35 37 39 39 42 45 47 47 46 46 46 47 47 45 43 42 41 39 37 35 36 36 33 29 26 23 20
26 27 28 28 26 26 27 30 31 32 33 31 30 34 36 36 37 38 40 43 47 48 49 48 49 49 49 48 46 44 44 43 42 42 41 39 39 39 38 37 31 23
27 27 28 28 29 28 26 28 30 31 32 32 33 35 35 35 35 36 39 43 46 48 49 50 52 52 51 50 48 46 45 45 45 45 43 41 41 41 41 41 35 27
27 28 29 30 30 27 26 27 30 31 32 33 33 32 32 33 33 35 38 41 44 46 48 51 53 53 52 51 50 48 47 46 46 46 44 41 43 42 40 40 35 30
29 30 31 30 29 28 28 28 29 30 30 30 29 27 27 29 31 34 37 40 43 44 45 49 52 53 53 51 51 50 49 48 47 46 45 43 42 41 39 39 35 31
31 31 29 29 29 29 28 28 27 27 25 24 23 23 24 26 29 32 35 38 41 42 42 45 50 53 52 51 52 52 51 50 48 47 47 44 41 39 37 37 34 32
31 30 30 29 28 28 28 27 25 22 19 19 20 22 24 26 27 30 33 35 38 39 40 42 48 52 49 49 52 53 51 51 50 49 48 44 40 36 35 35 34 32
32 31 31 29 28 29 29 25 21 18 17 19 21 22 24 25 26 29 32 33 34 36 38 41 46 48 46 46 49 51 51 52 53 52 48 42 37 34 32 33 34 34
32 31 31 29 29 28 25 21 18 18 19 21 22 22 23 23 25 29 31 32 32 34 37 40 41 41 42 44 47 49 50 51 53 53 47 40 35 33 32 32 34 35
32 31 30 29 27 24 20 18 18 18 20 21 21 21 21 23 25 28 31 32 32 33 37 39 38 37 39 41 43 46 49 49 50 51 47 39 33 31 31 31 34 35
31 30 29 26 22 18 16 16 17 18 19 20 19 19 21 23 26 29 32 33 32 33 35 35 32 31 32 32 32 35 39 41 42 45 44 37 30 27 27 29 32 33
31 29 26 22 18 16 15 16 16 17 18 18 19 20 23 27 30 33 33 32 31 31 32 32 31 30 32 33 32 30 31 33 36 38 36 30 24 21 22 25 29 30
30 27 23 20 17 16 17 17 16 17 19 21 24 26 28 31 32 31 30 29 29 30 32 33 33 31 30 32 33 33 31 30 31 30 25 20 17 17 19 23 27 29
27 23 19 18 18 18 19 19 19 20 23 27 31 33 31 30 29 27 27 27 28 30 31 31 29 27 25 25 26 27 27 26 24 20 15 13 13 16 20 24 27 29

ECMWFNIL_700_spd_018.txt.gz
Wind_Speed
20 18 17 16 16 16 16 15 15 15 13 12 13 14 15 15 14 13 12 11 11 11 12 13 14 15 16 16 17 18 19 21 21 21 21 21 20 18 17 16 15 14
19 18 17 16 16 16 16 16 15 14 13 13 15 16 16 16 15 14 13 12 12 13 14 16 16 17 18 19 20 21 22 23 24 24 23 23 22 20 18 17 16 15
20 18 17 16 17 17 17 16 15 14 14 15 16 17 17 16 15 15 13 12 13 15 16 18 19 20 21 23 24 25 25 25 26 27 25 24 24 22 20 18 17 15
20 18 17 17 17 18 18 17 15 15 16 17 17 17 17 15 15 14 14 14 15 17 18 20 22 22 24 25 27 27 27 26 27 27 26 27 27 24 21 20 19 17
19 18 17 18 18 18 18 17 17 17 17 17 17 16 16 15 15 14 15 17 18 19 21 23 25 26 27 27 29 30 29 28 27 27 28 29 29 25 22 22 21 19
20 19 18 19 19 19 19 18 18 18 18 18 18 17 17 17 16 17 18 19 20 22 25 28 29 30 30 30 31 31 31 31 29 28 29 30 29 26 24 23 23 22
21 20 20 19 19 19 19 20 19 19 19 19 20 20 19 19 19 19 21 22 23 26 29 31 32 33 34 34 34 33 33 33 32 30 30 30 29 28 26 26 25 24
22 22 21 20 20 20 20 20 19 20 20 21 22 23 22 21 21 22 24 25 27 29 31 33 35 36 37 36 35 35 35 35 35 34 34 32 31 30 28 28 27 25
23 23 22 21 21 22 21 20 20 21 23 23 24 24 23 22 23 25 27 28 30 32 33 35 36 38 39 39 38 37 38 38 37 37 37 36 34 32 30 30 29 27
25 23 23 22 23 23 22 21 22 23 24 25 25 25 24 23 25 27 28 30 31 33 35 37 39 40 41 41 41 40 40 40 39 39 39 38 37 35 32 31 31 30
26 25 23 23 23 23 22 21 22 23 24 25 26 26 26 25 26 27 28 29 31 33 36 38 41 42 43 43 43 42 43 43 43 42 41 40 39 38 35 33 33 31
26 25 24 24 23 23 22 22 22 23 23 23 24 25 26 26 27 28 30 30 31 33 36 39 41 43 45 45 45 44 44 45 45 44 42 41 40 40 38 35 34 33
25 25 24 23 23 23 22 22 22 22 22 22 22 22 24 25 26 28 31 32 32 34 37 39 41 44 46 46 46 46 46 46 45 45 44 42 41 41 39 36 35 35
22 23 24 23 23 23 22 22 22 22 22 24 23 22 23 26 28 30 31 32 33 36 38 40 41 44 46 46 46 46 47 46 46 46 45 43 42 41 39 38 37 35
21 21 22 23 23 23 23 23 22 22 24 25 24 23 24 26 29 32 33 32 32 34 36 38 40 42 44 45 45 45 46 47 46 46 46 44 43 41 40 39 38 36
22 23 22 22 23 23 23 23 23 23 24 25 25 25 26 27 30 32 32 29 28 30 33 35 37 39 42 43 43 43 44 45 45 44 45 44 43 42 41 41 39 37
24 25 25 24 24 24 23 24 24 24 24 24 26 28 29 28 29 30 29 26 26 28 30 32 34 36 39 41 41 40 39 40 42 43 43 43 42 42 41 40 39 37
25 25 27 27 26 25 25 26 24 24 24 27 29 29 28 28 27 26 26 26 27 28 28 30 32 34 38 40 39 37 35 37 42 42 41 41 41 42 41 40 39 37
25 25 26 26 26 26 27 26 25 25 27 29 30 28 26 24 23 22 23 25 27 29 30 32 34 35 38 39 38 35 33 36 41 41 39 39 40 40 40 39 37 37
27 25 25 26 26 27 26 26 26 28 29 30 29 27 23 21 20 21 22 23 25 28 32 35 38 40 41 40 37 34 32 34 38 38 36 37 38 39 38 37 36 35
29 28 27 26 27 26 26 27 28 29 28 28 26 23 20 18 18 19 19 21 25 29 33 37 40 42 42 40 36 35 34 34 35 34 31 30 31 33 33 33 33 32
31 29 28 27 26 27 28 29 28 27 26 24 21 18 16 16 17 18 21 25 29 32 34 36 38 39 39 35 31 32 35 33 31 32 29 25 24 26 28 29 29 27
32 30 28 28 28 29 30 28 27 26 23 20 17 15 14 15 17 21 27 30 30 30 32 34 34 33 32 30 26 27 30 30 30 31 30 25 23 24 26 26 25 23
32 32 30 29 30 31 29 27 26 24 21 17 15 13 14 18 25 33 37 37 34 31 30 30 30 29 28 26 24 24 26 28 28 29 28 23 21 22 23 22 22 21
34 33 31 30 30 29 28 27 26 23 20 17 14 13 18 28 37 43 45 43 38 31 28 27 28 28 27 26 25 25 26 28 28 28 26 22 19 20 20 20 19 18
35 33 31 31 30 29 28 26 24 22 20 18 18 21 30 38 40 39 37 35 32 29 27 27 27 27 28 27 27 28 29 30 30 27 23 19 17 17 17 15 14 13

ECMWFNIL_700_spd_021.txt.gz
Wind_Speed
18 18 18 18 17 17 15 15 15 13 13 12 12 11 8 7 6 5 5 5 5 6 7 8 9 11 12 12 13 15 17 19 19 19 18 19 19 20 23 24 22 20
19 19 19 18 17 17 15 15 15 14 13 13 12 9 7 6 6 5 6 6 7 7 9 10 11 12 13 14 16 17 19 21 21 21 21 21 21 21 23 24 23 21
20 20 20 18 17 17 16 16 16 15 13 13 10 8 7 6 6 6 6 8 9 9 10 12 13 14 15 17 19 21 21 22 23 23 23 23 23 23 23 24 24 22
21 21 20 18 17 17 17 17 17 14 12 11 9 7 7 6 6 5 6 8 9 11 11 13 14 15 17 18 21 23 24 25 25 25 25 25 25 25 25 25 25 24
22 22 21 19 17 18 18 18 16 13 10 9 9 8 7 7 7 6 6 7 9 11 13 14 15 16 18 20 22 24 26 27 28 28 27 27 27 27 27 27 26 26
23 23 22 20 18 18 19 18 15 12 10 9 9 9 8 8 8 8 8 8 10 12 13 15 16 17 19 21 23 24 26 28 29 29 30 29 29 29 28 29 28 27
24 24 23 21 19 19 19 17 15 13 12 11 10 10 10 9 9 9 10 11 12 13 15 17 18 19 22 24 25 26 27 28 30 31 31 31 31 31 30 30 30 29
25 24 24 22 21 20 18 16 14 13 13 12 12 11 10 10 10 10 11 13 14 15 17 18 20 21 23 26 28 29 29 31 31 32 32 32 32 32 32 32 31 30
25 25 25 24 22 21 18 16 14 13 13 13 12 11 11 10 10 11 12 15 16 17 17 19 20 22 24 26 29 31 32 33 34 34 33 34 33 32 33 33 32 31
26 25 26 25 24 21 18 16 15 15 14 13 13 12 12 11 11 11 13 15 17 18 19 21 22 24 26 28 30 32 34 35 36 36 35 35 35 34 34 34 33 33
26 26 26 26 24 21 19 17 16 16 15 14 13 12 12 12 12 13 14 15 17 19 21 23 25 26 28 30 32 34 36 37 37 38 37 36 36 36 36 35 33 33
26 26 25 25 23 21 19 18 17 16 16 15 14 13 13 14 14 15 15 16 18 20 22 24 26 28 30 31 32 34 37 38 38 38 37 36 36 36 37 35 33 33
26 25 24 23 22 21 20 19 18 17 16 15 14 14 14 14 16 17 17 19 21 23 25 27 28 30 31 32 34 36 38 38 39 38 37 36 36 37 36 34 32 32
24 23 23 23 22 21 21 20 19 18 17 17 16 15 15 16 18 19 21 22 23 25 27 29 30 31 31 33 35 37 38 38 38 38 36 35 35 36 35 33 32 32
23 23 23 23 22 22 22 22 20 19 19 18 18 16 16 18 20 22 22 23 24 25 27 28 29 29 30 32 34 36 38 37 35 35 35 33 33 33 33 32 31 32
24 24 23 23 23 24 23 23 22 21 20 20 19 19 19 20 21 22 22 23 24 25 26 26 26 25 26 28 32 35 37 34 32 32 32 32 31 31 33 33 32 32
25 25 24 23 23 23 24 23 22 22 21 22 22 21 21 21 22 22 23 23 24 24 22 21 20 21 23 27 31 35 35 33 31 30 29 30 30 32 35 35 33 33
27 27 26 24 24 23 23 22 22 22 23 23 23 23 22 22 23 24 24 24 23 20 17 16 17 20 24 28 31 35 36 34 31 29 29 30 30 32 35 34 32 32
28 28 27 26 25 24 23 23 22 23 23 24 24 24 24 24 25 25 25 24 20 16 13 15 19 24 29 33 34 35 36 34 30 29 30 31 31 31 33 32 29 28
27 29 29 28 27 27 26 25 25 25 25 25 25 25 25 26 25 25 24 21 17 13 13 18 24 30 36 41 39 36 36 34 30 30 32 31 31 31 31 28 23 22
27 29 30 29 29 29 29 28 28 28 27 26 26 27 26 25 25 24 21 17 14 14 17 25 33 37 42 45 42 37 35 34 31 30 31 29 30 31 28 23 19 20
27 29 30 31 31 30 29 29 29 28 27 27 28 27 26 25 23 20 16 14 13 16 24 31 36 38 41 45 42 37 35 33 29 26 25 26 28 28 26 23 21 22
29 30 32 33 32 30 28 27 27 26 27 28 28 27 25 23 19 17 15 14 15 21 28 31 35 37 39 42 40 36 33 30 25 22 23 24 26 26 26 27 27 24
31 33 34 34 32 29 27 26 25 26 27 27 27 26 24 21 20 19 18 17 19 24 27 31 36 38 38 39 37 34 32 26 21 21 23 24 25 25 27 30 28 23
34 35 35 35 32 28 27 26 26 27 27 27 27 26 24 23 23 22 20 20 22 25 27 34 40 39 36 36 35 34 31 25 20 20 22 23 25 27 29 30 26 20
35 35 35 35 32 28 27 27 28 28 28 29 29 27 26 26 25 22 21 22 24 26 30 37 40 37 34 34 34 32 30 25 20 19 21 25 28 29 29 26 21 16

ECMWFNIL_700_spd_027.txt.gz
Wind_Speed
28 28 28 26 24 22 20 19 18 18 17 17 18 18 19 18 19 20 20 19 18 17 16 15 14 12 11 10 8 6 5 4 3 4 6 8 9 11 12 14 15 15
30 29 29 29 27 24 22 20 19 18 17 18 19 20 21 21 22 22 22 21 20 18 17 15 14 13 12 11 9 8 7 6 5 6 7 8 10 11 12 13 14 14
31 31 31 30 28 25 23 21 20 19 19 20 21 22 23 23 23 23 23 22 20 19 18 16 15 13 12 12 10 9 8 8 8 9 10 11 11 12 13 15 15 14
32 32 32 31 29 26 24 23 21 21 21 22 24 24 25 25 25 24 23 22 20 19 18 17 15 14 12 11 10 9 9 10 10 11 12 13 13 14 15 16 17 15
30 31 32 32 30 28 26 24 23 22 23 25 25 26 26 26 25 25 23 22 20 19 18 17 16 14 12 11 10 9 10 11 12 12 13 14 15 16 17 17 17 16
27 29 31 32 31 29 27 25 23 23 25 27 27 27 27 27 26 25 23 21 20 19 18 17 15 14 12 10 10 10 10 11 12 13 14 15 16 17 18 18 18 18
25 28 30 32 31 30 28 26 25 25 27 29 29 29 29 28 27 25 24 22 21 20 18 16 15 13 12 11 10 10 11 12 13 14 15 16 17 18 18 18 18 18
24 26 29 32 32 30 29 27 26 27 29 30 30 30 29 29 27 26 25 23 22 20 18 17 15 13 12 12 11 12 12 13 14 15 16 17 18 18 18 18 18 19
24 26 29 31 32 31 30 28 28 29 31 31 31 30 30 29 28 26 26 24 23 21 19 17 15 14 14 14 13 13 13 13 14 16 17 18 19 19 19 19 19 20
24 25 28 31 32 31 30 29 28 30 32 32 31 31 31 30 28 27 26 25 23 21 19 17 16 16 15 14 13 13 14 15 16 17 18 19 19 20 20 20 20 20
25 25 27 30 31 32 31 30 29 31 32 32 31 31 31 30 29 28 26 24 22 20 19 17 16 16 15 14 14 15 16 17 18 18 19 20 21 21 22 21 20 21
27 26 27 28 30 31 31 30 30 31 33 33 31 31 31 30 29 27 25 23 21 20 19 18 17 16 15 15 15 16 17 17 18 19 20 21 22 23 24 23 22 21
29 28 26 26 28 30 31 31 31 32 33 33 32 31 31 30 28 27 25 23 22 20 19 18 18 17 16 16 16 16 16 17 18 19 21 22 24 25 26 25 23 21
31 29 28 27 28 30 31 32 32 32 33 34 33 31 31 30 28 26 25 24 23 22 21 20 19 18 17 17 17 16 16 17 18 19 20 22 25 27 28 27 23 21
33 31 29 28 28 30 31 32 33 33 33 33 33 32 31 30 28 27 26 25 24 23 22 22 20 18 17 17 17 16 17 18 17 18 20 23 26 27 27 26 22 20
35 33 31 30 30 30 31 32 33 33 33 33 33 32 31 30 29 28 28 27 26 25 24 23 21 19 18 17 18 18 19 19 18 18 21 24 26 27 25 24 22 19
36 35 33 31 31 30 31 32 33 34 34 33 33 32 32 31 30 30 30 29 28 26 25 24 21 19 19 19 19 20 21 20 19 20 23 25 26 26 24 23 24 22
36 37 36 33 32 32 31 32 33 34 34 34 33 33 32 32 32 32 32 30 29 27 26 24 22 20 21 21 21 22 22 21 20 21 23 24 25 25 23 23 26 25
35 37 37 35 33 33 32 33 34 34 34 33 33 33 34 34 34 34 33 31 30 29 26 24 23 23 23 23 24 24 24 23 22 22 23 23 25 26 24 24 26 25
35 36 38 37 35 34 33 34 34 34 33 33 33 34 35 35 36 36 35 33 31 29 27 26 26 25 25 25 26 26 26 25 23 22 23 24 26 26 25 26 25 23
36 36 37 38 37 36 35 35 35 34 34 34 35 36 36 37 38 37 36 34 32 30 29 29 28 27 27 27 27 27 28 27 24 23 24 25 26 25 25 26 25 22
36 37 37 39 39 39 37 36 36 36 36 36 37 38 38 39 39 39 37 35 32 31 31 31 29 28 29 29 28 29 30 28 25 25 25 26 27 26 26 26 25 25
35 37 38 39 41 41 39 38 37 37 38 39 40 40 41 41 41 40 38 36 34 34 34 32 31 31 31 30 30 31 32 29 26 26 26 27 27 27 27 25 24 25
31 35 38 39 40 41 41 40 39 38 39 40 41 42 42 42 41 40 38 37 37 37 36 34 33 33 32 31 31 32 32 29 27 27 27 27 28 29 28 25 22 22
28 31 35 38 39 40 41 42 41 40 40 41 42 43 43 43 41 40 40 40 39 38 36 35 35 34 32 32 32 33 33 30 28 28 27 28 30 30 29 24 21 20
25 25 28 34 38 39 40 43 43 42 42 42 43 43 43 42 42 42 42 41 39 38 37 36 36 34 33 32 32 33 32 30 28 27 27 29 31 31 29 24 21 19

ECMWFNIL_700_spd_030.txt.gz
Wind_Speed
28 27 26 25 24 23 22 21 20 19 17 17 19 20 20 19 17 16 15 16 18 18 18 18 18 16 14 13 11 10 8 6 4 3 2 2 4 6 8 10 10 11
30 29 28 27 27 25 23 22 21 20 18 17 19 21 21 21 20 18 18 18 20 20 20 20 19 17 15 14 12 10 9 7 7 6 5 5 6 7 8 9 10 10
32 31 30 29 28 26 25 23 22 20 19 18 19 21 23 22 21 20 20 21 21 21 22 21 20 19 17 15 13 11 10 9 9 8 7 7 8 8 9 10 10 10
33 32 31 30 29 27 27 25 24 21 20 20 20 21 23 24 23 23 22 23 23 23 23 22 21 19 18 16 14 13 12 11 11 9 8 9 10 10 11 11 11 11
32 32 32 31 30 29 29 28 25 22 21 20 21 22 24 25 25 25 24 25 25 24 24 22 21 20 18 17 16 14 14 13 12 10 9 10 11 11 12 12 12 12
31 32 32 32 31 31 31 30 27 24 22 21 22 23 25 26 27 26 26 26 26 26 25 23 21 20 19 18 17 15 14 14 12 11 9 10 11 12 12 13 13 13
28 30 32 32 33 32 32 31 29 26 24 23 23 25 26 27 28 27 27 27 27 27 25 23 22 21 20 19 18 16 15 14 14 12 11 11 12 13 13 14 15 14
24 25 27 29 31 32 32 31 30 27 25 25 25 26 27 28 28 28 28 28 28 27 26 24 23 22 21 20 18 16 15 15 14 14 13 13 13 14 14 16 17 17
23 24 25 26 28 29 30 30 29 28 26 26 26 27 28 29 29 29 29 29 29 28 26 25 24 23 22 21 19 17 16 15 15 15 14 15 15 15 16 18 19 19
24 24 24 25 26 28 29 29 29 29 27 27 27 28 29 29 30 30 30 30 30 29 27 26 24 23 23 21 19 17 16 16 16 15 16 16 16 16 17 19 20 20
26 25 25 25 26 27 28 28 29 29 28 28 28 29 30 30 31 32 32 31 30 29 28 26 25 24 23 21 19 18 17 16 16 16 17 17 17 18 18 20 21 20
27 27 26 26 25 26 27 28 29 29 28 29 30 30 31 31 32 33 33 32 31 29 28 27 26 25 23 22 20 19 18 18 18 18 18 18 18 19 20 20 21 21
30 29 28 27 25 25 26 27 29 29 29 30 31 32 32 32 33 33 34 33 31 31 30 28 27 26 25 23 21 20 19 19 20 19 19 19 19 20 21 21 22 23
31 31 30 28 26 25 25 26 28 29 30 31 32 33 34 34 34 34 34 34 33 32 31 31 30 28 26 24 22 21 21 21 21 20 20 20 20 21 23 23 24 24
32 32 32 31 29 27 25 25 27 29 31 32 32 33 35 35 35 35 36 36 36 34 33 33 33 31 27 25 24 23 22 22 21 21 21 21 22 23 24 24 24 23
32 33 34 34 32 30 27 26 26 29 31 33 33 34 35 36 36 37 38 38 38 37 35 35 35 32 28 26 25 24 24 23 23 23 23 23 24 25 25 25 25 22
32 34 36 37 36 33 30 28 27 28 30 33 34 34 35 37 37 38 39 40 39 38 37 37 36 33 29 28 27 26 25 25 25 25 25 25 26 27 27 25 24 22
31 34 36 38 39 36 34 31 29 29 30 32 34 35 35 37 39 39 40 40 40 39 39 38 37 33 30 29 29 28 27 26 27 27 27 27 28 29 28 26 24 23
31 34 37 39 40 39 37 34 32 31 31 32 34 35 35 38 40 40 41 41 41 40 40 39 37 33 32 31 30 29 28 28 29 29 29 29 29 30 29 27 25 24
31 34 37 39 40 40 40 38 36 34 32 32 33 35 37 38 40 41 42 42 42 42 41 40 37 34 33 33 32 30 30 31 32 31 31 30 30 30 29 27 27 25
32 35 37 38 40 41 42 41 39 37 35 34 34 36 38 38 39 41 42 42 42 43 42 41 38 36 35 34 33 31 31 33 34 34 33 31 31 31 29 28 28 26
33 34 35 37 39 41 43 44 43 40 38 36 36 37 38 39 40 41 42 43 43 43 42 41 39 37 36 34 33 33 34 35 36 36 34 32 31 31 30 29 29 29
30 32 33 34 37 40 43 44 45 43 41 39 39 39 40 41 41 41 42 43 44 43 43 42 41 38 36 35 34 35 36 37 38 37 36 33 31 31 31 31 30 30
25 25 26 28 31 35 39 41 44 45 43 41 41 41 41 41 41 41 42 43 44 43 42 42 41 39 36 35 36 37 38 39 39 38 37 34 32 32 32 32 31 31
22 21 22 25 27 29 33 37 40 43 45 44 43 42 43 43 43 43 43 44 44 43 42 42 41 40 38 37 38 39 40 41 41 40 37 34 33 33 33 33 32 32
23 22 22 25 26 27 29 33 36 40 44 46 46 45 44 44 44 45 45 44 44 43 43 42 42 41 40 40 41 42 42 42 42 39 37 35 34 34 34 34 33 32

ECMWFNIL_700_spd_033.txt.gz
Wind_Speed
25 25 24 23 23 22 21 19 18 17 16 15 15 16 19 19 19 19 18 18 18 20 22 22 22 21 20 19 18 17 14 12 10 8 5 3 2 2 3 5 6 7
27 26 25 25 24 23 22 21 20 19 17 16 15 15 19 21 22 21 21 21 21 22 23 24 24 23 22 21 19 18 16 14 12 10 8 7 5 5 5 6 6 7
29 28 27 26 25 24 23 22 22 21 20 18 16 16 18 22 24 23 24 24 23 24 25 25 25 25 24 23 21 19 17 15 14 13 11 9 8 8 7 8 8 8
31 30 29 27 26 25 25 25 24 23 22 20 18 17 18 21 24 25 25 26 25 26 27 27 26 26 25 24 23 20 18 17 16 14 12 11 10 10 10 10 10 10
32 32 31 30 28 27 27 27 26 25 23 22 20 19 18 20 23 26 27 27 27 27 28 28 28 27 27 26 24 22 20 18 17 14 13 12 12 11 12 11 11 12
34 34 33 32 31 30 30 30 28 26 25 24 23 22 20 20 22 26 27 27 28 29 30 29 29 28 28 27 25 23 21 19 18 16 14 13 13 13 13 13 13 12
32 34 33 33 32 31 31 31 30 29 28 26 25 24 23 21 22 25 27 28 29 30 31 30 30 30 29 28 27 24 22 20 19 17 15 14 14 14 14 14 14 14
25 28 30 31 32 32 32 32 32 31 31 30 28 26 25 23 23 25 27 29 30 31 31 31 31 31 30 30 28 26 24 22 20 18 16 16 15 15 15 15 15 15
20 22 24 27 29 31 32 32 32 32 32 32 31 28 26 25 25 26 28 29 30 31 32 32 32 32 32 31 30 27 25 23 21 20 18 17 17 17 17 17 17 17
22 21 22 23 25 27 28 30 31 33 34 34 32 30 28 27 27 27 29 30 31 32 33 34 34 33 33 32 31 28 26 24 22 21 20 19 18 18 19 19 18 18
24 23 23 24 24 24 24 25 27 30 32 34 33 31 29 28 29 29 30 31 32 33 34 34 34 34 34 33 32 30 27 25 24 23 21 20 19 20 20 20 20 19
26 25 25 24 25 24 23 23 23 25 28 31 32 31 30 30 31 32 31 31 32 33 34 35 35 35 35 34 33 31 29 27 26 24 23 22 21 21 22 21 21 21
28 27 27 26 25 24 23 23 23 23 25 28 30 31 31 32 33 33 32 32 33 34 35 36 36 36 36 35 34 32 30 28 27 25 24 23 22 23 23 23 22 22
29 29 28 28 27 26 25 25 24 24 24 26 28 31 32 33 34 34 33 34 34 35 36 37 37 37 37 37 36 33 31 29 27 26 24 24 23 24 24 24 23 24
30 30 30 30 29 29 28 27 26 25 25 25 27 29 32 34 34 35 35 35 36 36 37 38 38 38 38 38 37 34 31 30 28 26 26 25 25 25 25 25 25 26
31 31 31 32 32 31 31 30 28 27 26 26 26 28 32 34 35 36 37 37 37 38 38 39 40 38 37 38 37 34 32 31 29 28 28 27 26 26 27 27 27 28
31 32 32 33 33 33 33 32 30 29 29 28 27 27 31 34 36 37 38 39 39 39 40 41 41 39 37 37 38 36 33 32 31 30 30 29 29 28 28 28 29 30
32 33 33 33 34 34 34 34 33 32 31 30 29 28 30 33 37 38 39 40 40 40 41 42 41 40 37 37 38 38 35 34 33 32 32 32 31 30 30 31 31 31
32 32 33 34 35 34 34 34 34 35 35 33 32 30 30 33 37 39 39 40 41 42 42 42 42 41 39 38 38 39 38 37 36 35 34 34 33 32 32 33 33 32
32 32 33 34 33 33 34 34 35 37 38 36 34 33 32 33 36 39 40 40 41 43 43 43 43 42 41 40 39 39 39 39 38 37 36 36 35 35 35 35 34 33
30 30 31 32 32 32 33 35 36 38 39 39 37 36 34 34 35 38 40 41 42 43 44 44 44 44 43 42 41 41 40 41 40 40 39 39 38 37 37 37 35 34
29 29 29 29 29 31 33 34 35 38 39 40 40 38 37 36 36 38 40 42 43 43 44 45 45 44 45 44 44 43 43 43 43 42 42 41 41 40 39 38 36 35
28 27 26 27 29 30 32 33 35 37 38 40 41 41 40 39 38 39 40 42 44 44 45 46 46 45 45 46 46 46 45 45 45 44 44 44 43 42 41 40 38 35
26 25 25 27 28 29 31 33 34 35 36 37 40 42 42 41 41 41 41 42 44 45 45 45 46 47 46 46 47 47 47 47 46 45 46 46 45 45 44 42 39 36
27 26 25 24 22 23 27 30 31 33 34 35 37 38 39 40 42 43 43 43 43 45 46 46 46 47 48 48 48 49 49 48 48 47 48 48 48 48 47 44 40 37
30 29 27 23 21 20 22 23 26 29 31 32 34 33 32 33 36 41 44 46 45 45 47 47 47 48 49 49 49 50 50 50 49 49 49 50 51 50 49 45 41 38

ECMWFNIL_700_spd_036.txt.gz
Wind_Speed
27 26 25 24 23 22 21 19 18 18 17 17 16 14 13 13 14 16 17 18 20 19 19 21 23 24 24 22 20 19 17 15 13 11 9 7 4 3 2 3 4 5
28 27 26 25 24 23 21 20 20 19 18 18 17 16 15 15 16 18 19 20 21 21 21 23 25 26 25 24 23 21 19 17 15 13 11 9 7 6 5 5 6 6
29 28 27 26 25 24 23 22 22 21 20 20 19 18 17 17 18 18 20 22 23 23 23 24 26 27 27 26 25 24 22 19 17 15 13 11 10 9 8 7 8 8
30 29 28 27 25 25 24 25 24 23 23 22 21 20 19 19 18 18 20 23 24 25 26 26 27 29 29 28 27 26 24 21 19 18 15 13 12 11 10 10 10 10
31 30 29 28 27 27 27 27 26 25 24 23 22 22 21 20 19 19 19 21 24 26 27 28 29 30 30 30 28 27 25 24 22 20 17 15 14 13 13 12 12 12
32 31 31 29 29 29 28 28 27 27 26 26 25 24 23 22 21 20 20 20 23 26 27 29 30 31 32 31 30 29 27 26 24 22 20 18 17 16 15 14 14 14
32 31 31 31 30 30 30 29 28 28 29 29 28 26 25 24 23 22 21 20 22 25 27 29 32 32 33 33 32 30 29 28 26 24 22 20 19 19 18 16 16 15
31 31 31 31 31 31 32 31 30 30 30 31 31 29 27 26 25 24 23 22 23 25 27 29 32 34 34 34 33 31 30 29 28 26 24 23 22 21 20 19 18 17
28 30 31 32 33 33 33 32 32 32 31 32 32 31 30 28 27 25 25 24 24 25 26 29 32 35 35 35 34 33 32 31 30 28 26 25 24 22 22 21 20 20
24 25 27 29 30 32 32 33 33 32 32 32 33 33 32 31 29 28 27 27 26 27 27 28 32 35 36 36 35 34 33 32 31 30 29 28 26 25 24 23 22 22
24 24 24 25 26 27 29 29 31 32 32 33 33 34 34 33 32 31 29 29 29 28 28 28 31 35 37 37 35 34 34 34 33 32 31 30 29 27 26 25 24 24
27 26 25 24 23 24 24 25 26 28 29 31 32 34 35 34 33 32 32 31 30 30 29 29 30 34 37 38 36 36 35 35 34 33 32 32 31 29 28 27 26 25
29 28 27 26 25 24 24 23 22 23 24 26 27 31 33 34 34 34 33 33 32 32 31 30 30 34 37 38 38 37 37 36 36 35 34 33 33 31 30 29 28 27
30 29 28 27 27 26 25 24 22 22 22 23 23 26 28 30 31 33 34 34 34 33 33 31 31 33 37 38 38 38 38 38 37 36 36 35 34 33 32 31 30 29
31 30 30 29 29 28 26 25 25 24 23 23 23 23 24 26 27 29 32 35 35 35 34 33 32 34 37 38 38 39 39 39 39 38 37 37 35 34 34 33 32 31
33 32 31 31 31 30 28 27 26 26 26 25 24 23 24 24 25 27 30 33 35 36 36 35 34 34 36 37 38 39 40 40 39 39 39 38 37 36 35 35 34 33
34 34 33 33 33 32 30 29 29 29 29 28 27 26 25 25 25 26 28 31 35 36 37 37 35 34 36 37 38 39 40 40 40 40 40 40 39 38 37 37 36 35
36 36 36 35 35 34 32 31 31 31 32 32 30 28 27 26 27 27 27 29 33 35 37 38 37 35 35 37 38 39 40 41 41 41 41 42 41 40 39 38 37 36
38 38 37 37 36 35 34 33 33 33 34 34 33 31 29 29 30 29 28 29 31 34 37 38 38 36 35 36 38 39 41 42 43 43 43 43 43 41 40 39 39 38
38 37 37 37 37 36 36 35 34 34 35 35 35 35 33 32 32 32 31 30 31 33 36 38 39 37 35 36 38 40 41 42 44 44 44 44 44 43 42 41 40 40
37 36 37 38 38 38 38 36 35 35 35 36 37 37 36 36 36 35 34 33 33 33 35 37 38 38 37 36 38 40 42 43 45 46 46 45 46 46 45 43 43 42
36 36 37 38 39 39 38 37 36 36 35 36 37 38 39 39 39 38 36 35 35 35 36 36 37 37 38 37 38 40 42 45 47 48 48 47 48 48 47 46 45 45
36 37 37 38 39 39 38 37 36 35 35 36 37 39 40 40 41 41 39 37 37 37 37 37 36 36 37 38 38 40 43 45 47 48 49 49 49 49 49 48 48 48
36 36 36 37 37 37 36 35 35 34 34 35 37 39 40 41 42 42 41 39 38 38 38 38 37 37 37 38 39 40 43 45 47 49 50 51 52 51 50 50 50 50
34 33 33 34 35 35 34 33 32 33 34 35 37 38 39 40 41 42 41 40 39 38 39 40 40 40 39 40 41 43 44 46 48 50 51 53 53 53 52 52 52 52
32 31 31 33 33 33 33 31 29 29 31 34 36 38 39 40 40 40 40 40 39 40 40 41 41 42 42 42 42 44 46 47 49 50 52 53 54 54 54 55 54 54

ECMWFNIL_700_spd_039.txt.gz
Wind_Speed
29 27 25 23 22 22 21 20 19 17 16 15 13 12 11 10 11 13 15 16 18 20 21 21 20 20 21 21 20 19 17 17 16 14 12 10 7 5 3 1 1 3
30 28 26 25 24 22 21 20 19 18 17 16 14 13 12 11 12 13 15 16 18 20 21 21 21 21 22 22 22 21 19 18 17 16 13 12 10 7 5 3 2 3
30 30 28 26 24 23 22 21 20 20 18 17 17 16 14 13 13 13 14 16 18 20 21 22 22 22 23 24 24 23 22 20 19 17 15 14 12 10 8 6 4 5
30 30 29 27 26 25 24 24 22 21 20 19 18 18 17 16 15 14 14 15 18 20 22 22 22 22 24 25 25 25 25 23 21 20 18 16 14 12 10 8 7 7
30 30 29 28 28 27 26 26 24 23 22 21 20 20 20 19 18 16 15 15 16 19 22 23 23 24 25 26 27 27 27 25 24 22 20 19 17 14 13 11 10 9
31 31 30 30 30 29 28 27 26 25 24 23 23 22 22 21 20 19 18 17 16 17 20 23 24 26 26 28 29 29 29 28 26 24 23 21 19 17 16 14 13 12
31 31 31 31 31 30 29 28 28 28 26 25 25 25 24 24 23 21 20 20 19 18 19 21 23 25 27 29 30 31 30 30 29 27 25 23 22 20 19 18 16 16
31 31 31 31 32 31 31 30 30 29 28 28 27 26 26 26 25 24 23 22 22 21 21 21 22 24 27 29 31 31 31 31 31 29 27 26 24 23 22 21 20 19
30 31 32 32 32 32 32 31 31 30 29 30 29 28 28 28 27 26 26 25 25 24 24 23 22 22 25 29 31 32 33 33 32 31 30 28 27 25 24 23 23 21
29 30 31 31 32 32 31 31 31 31 31 31 30 31 31 30 30 29 29 28 28 27 26 25 24 23 23 27 30 32 33 34 34 33 32 31 29 27 26 26 26 24
26 27 28 29 30 30 30 31 31 32 32 32 32 32 33 33 32 32 32 31 30 29 28 27 26 24 23 25 29 32 34 35 35 35 34 33 32 30 29 28 28 27
25 26 26 27 27 28 29 30 31 32 33 33 32 33 34 34 33 32 33 33 32 31 30 29 28 27 25 25 27 30 33 35 37 37 37 36 34 33 32 31 30 29
25 25 25 24 24 25 27 28 29 30 31 31 30 31 32 34 34 32 32 33 33 31 31 31 30 29 28 26 26 29 32 35 37 38 38 38 36 35 35 34 32 31
26 25 24 23 23 23 24 25 25 25 26 27 26 26 28 30 32 31 30 31 33 32 31 32 31 31 30 29 27 28 31 34 36 38 39 39 38 37 37 36 35 34
27 26 25 25 24 24 24 24 24 23 23 24 23 22 22 24 27 28 26 26 29 31 32 32 33 33 32 31 29 28 30 32 35 38 40 40 39 38 38 38 37 36
29 28 27 26 26 25 25 25 25 25 25 25 25 22 21 21 23 25 24 22 23 26 29 31 32 33 32 32 31 29 29 31 34 37 40 41 40 39 39 39 39 38
31 30 28 28 28 28 28 27 27 28 28 28 28 26 23 23 23 25 25 23 22 22 25 27 29 30 31 32 32 31 30 31 33 36 39 41 41 41 41 41 40 40
33 32 31 30 30 30 30 29 29 30 30 31 31 29 27 26 25 26 27 27 25 23 23 24 25 26 28 30 31 32 31 31 33 36 39 41 42 42 43 42 42 42
35 34 33 32 32 32 32 32 31 31 32 32 32 32 31 29 27 27 28 29 29 27 25 24 24 24 25 28 30 32 32 32 34 36 39 40 41 42 44 44 43 43
36 35 34 34 34 34 34 34 33 32 33 33 33 33 33 31 30 30 29 29 31 31 30 27 26 26 26 26 28 30 32 33 34 36 39 40 41 42 43 44 44 44
36 35 34 35 35 36 36 35 34 33 34 34 34 34 33 33 33 33 32 31 31 33 34 32 30 28 28 27 27 29 31 34 35 37 38 40 41 42 42 43 43 45
35 34 34 35 35 36 36 35 35 34 34 35 35 35 34 34 34 34 35 35 34 34 35 36 34 32 31 30 29 29 31 34 36 38 39 40 42 43 43 43 43 44
33 33 34 34 35 35 35 35 35 35 35 36 36 35 35 35 35 36 36 36 37 36 36 37 37 36 34 32 31 30 31 33 35 38 40 41 42 43 43 43 43 44
31 32 33 34 34 34 34 35 35 35 36 36 36 36 36 36 37 38 38 38 39 39 39 39 38 37 36 34 34 34 34 34 36 38 41 42 43 44 44 44 43 44
30 31 32 33 33 33 33 34 35 36 37 37 37 37 38 39 39 40 40 40 40 40 40 41 40 39 37 36 37 37 37 37 37 39 41 43 44 45 45 44 45 45
30 31 32 32 32 33 34 36 37 38 38 39 39 39 40 40 40 41 41 41 41 41 41 42 41 40 38 37 37 38 38 39 40 41 42 42 44 46 47 46 47 47

ECMWFNIL_700_spd_045.txt.gz
Wind_Speed
24 23 22 20 19 18 18 18 17 16 15 14 12 12 13 13 13 12 13 13 13 13 13 14 15 15 15 14 13 12 12 11 11 12 11 10 9 8 6 6 5 5
25 24 23 22 21 20 19 18 17 16 15 14 13 12 13 13 12 10 10 11 12 12 12 12 13 14 15 15 14 13 13 13 12 12 12 12 11 10 8 7 6 5
26 25 24 22 21 19 19 18 17 16 15 15 14 14 13 13 12 10 9 9 9 10 10 10 10 11 13 14 15 14 13 13 14 14 13 13 13 12 10 9 7 6
26 25 24 22 20 19 19 19 18 17 17 16 16 15 15 14 12 11 10 9 8 8 9 8 8 9 11 13 14 14 13 13 15 16 15 15 14 13 12 11 9 8
26 25 24 22 21 20 21 21 20 18 18 17 16 16 16 15 13 12 10 9 8 8 8 7 7 8 9 11 12 13 13 13 15 16 17 16 15 15 14 13 11 10
26 25 24 23 22 22 22 22 21 20 18 17 17 17 16 15 14 12 11 9 9 8 8 7 6 6 7 9 10 11 12 12 14 16 17 17 17 16 16 15 13 12
27 26 25 24 24 24 23 23 22 21 20 19 18 18 17 16 14 13 12 10 9 9 8 8 7 6 6 7 8 9 11 12 13 15 17 18 18 18 17 16 15 14
27 27 27 26 25 25 24 24 24 23 22 21 20 19 17 16 14 13 12 12 11 10 9 9 9 8 8 7 7 8 9 11 12 13 15 18 19 19 19 18 18 17
27 28 29 28 28 27 25 25 25 24 23 23 21 19 19 17 16 15 14 13 13 12 12 11 10 10 10 9 8 8 9 10 11 12 13 16 18 19 20 20 19 19
27 28 29 30 29 28 27 26 25 25 25 24 22 21 20 18 18 18 17 16 15 13 13 13 12 11 11 10 9 9 10 11 12 12 13 14 16 18 20 21 21 21
27 28 30 30 30 29 28 26 26 26 25 24 23 22 21 20 19 19 19 18 17 15 14 13 13 13 13 13 12 11 11 12 13 14 14 14 14 16 19 21 22 22
25 28 30 31 30 29 28 27 27 26 26 25 24 23 22 21 20 20 20 19 18 17 16 16 15 15 15 15 15 15 14 14 15 15 15 15 15 15 17 19 22 23
23 25 28 29 30 29 28 27 27 27 26 25 23 23 23 22 22 21 20 20 19 19 19 18 18 18 18 17 17 17 17 17 17 17 17 17 17 16 16 18 20 22
21 22 24 26 28 28 28 28 27 27 26 24 24 24 23 23 22 21 20 20 20 20 20 20 20 20 20 20 19 19 19 18 18 18 19 19 19 18 18 18 19 21
19 21 22 24 26 27 27 27 26 26 26 25 24 23 22 22 22 21 20 20 19 19 19 20 20 20 20 20 20 20 19 19 19 19 20 20 20 20 19 19 19 20
20 20 21 23 24 25 25 25 25 25 25 24 24 22 22 22 21 21 19 18 17 17 17 18 19 18 18 18 18 18 18 18 19 19 20 20 21 21 21 20 19 20
23 22 21 23 24 24 24 24 24 24 24 24 23 22 21 20 20 20 19 17 15 15 14 15 15 15 15 15 14 15 15 15 16 17 18 19 19 20 20 20 20 20
27 25 23 23 23 23 23 23 24 24 24 24 22 21 20 19 19 19 18 17 15 14 13 12 12 12 13 12 12 11 11 12 13 14 15 16 17 18 19 20 21 21
28 29 27 25 24 23 23 23 24 25 24 23 22 21 20 19 18 18 17 17 16 15 14 12 11 12 12 13 12 12 11 12 13 13 14 15 15 17 18 19 21 22
27 30 30 29 27 25 24 24 25 25 24 23 22 21 21 20 19 18 18 18 17 17 17 15 14 13 13 13 14 14 14 15 16 16 16 16 17 17 18 19 20 22
22 26 30 31 30 29 28 27 26 25 25 24 23 23 23 21 20 20 19 19 18 19 19 18 17 16 15 15 15 15 16 17 19 20 20 20 20 20 20 21 22 23
16 19 24 29 32 33 32 30 28 27 26 26 25 25 24 24 23 22 21 21 20 21 20 20 19 19 18 18 17 18 19 20 21 21 23 24 24 24 24 25 25 26
16 15 17 20 27 32 34 33 31 29 28 27 27 27 27 26 25 24 24 23 23 23 22 21 20 20 20 20 21 22 24 24 24 24 24 25 26 27 28 28 29 29
16 15 14 15 18 23 30 34 34 32 30 29 29 29 28 28 27 26 26 26 26 25 24 22 22 22 22 23 24 26 28 28 29 29 28 28 28 29 30 31 32 32
18 16 15 14 13 15 20 29 34 35 34 32 31 31 30 29 29 29 29 28 27 26 25 24 24 24 24 25 27 29 30 31 33 33 32 31 32 32 32 33 33 34
20 18 15 14 14 14 15 21 29 35 36 35 34 33 32 32 32 31 31 30 29 28 27 27 27 27 27 28 30 31 33 34 35 35 34 35 36 35 35 34 35 36

ECMWFNIL_700_spd_048.txt.gz
Wind_Speed
25 24 24 22 20 19 19 19 18 17 17 17 16 15 15 15 15 16 17 17 17 17 17 18 19 18 17 16 14 13 12 12 12 12 11 11 11 10 8 8 7 8
25 25 25 24 22 21 20 20 19 18 17 16 16 16 16 17 17 16 17 18 19 17 17 18 18 18 18 17 15 14 14 14 14 13 12 12 12 12 10 9 8 7
26 25 25 25 23 22 20 20 20 19 17 17 17 17 18 19 19 18 17 18 19 18 17 17 16 16 17 17 16 15 15 15 15 15 14 14 13 13 12 11 9 8
27 26 25 24 23 22 21 20 20 20 18 17 18 19 20 21 21 19 16 16 17 16 15 15 15 14 14 15 15 15 15 16 16 16 16 17 15 14 14 13 11 10
27 27 25 24 23 22 22 21 21 20 19 17 17 19 20 21 21 19 16 15 14 13 12 12 12 11 11 11 12 13 14 16 17 17 18 18 17 16 15 14 13 12
27 27 26 25 24 23 23 21 20 20 19 18 17 18 20 21 20 19 16 14 12 11 10 8 8 8 8 8 9 10 12 14 16 18 19 19 19 18 18 17 16 15
28 27 27 26 26 25 24 22 21 21 20 19 19 19 20 20 20 18 16 14 13 11 9 7 7 7 7 7 7 7 9 12 14 17 18 20 20 20 20 19 18 17
28 27 28 27 27 27 25 24 23 22 21 21 21 20 20 20 19 17 16 15 14 13 11 9 8 7 6 6 6 6 6 7 10 13 16 19 21 21 20 20 19 19
29 29 29 28 28 28 26 25 24 23 23 23 22 21 20 19 18 17 16 15 14 13 13 12 10 9 7 6 5 5 5 5 5 7 11 15 18 20 21 21 21 20
30 30 30 30 30 29 27 26 25 24 24 24 23 23 22 20 18 18 17 16 15 13 13 12 11 11 10 8 7 6 6 5 5 6 7 9 12 17 20 22 22 22
30 31 32 32 31 30 29 27 26 25 25 24 24 24 23 21 20 19 18 17 15 14 13 12 12 12 12 11 9 9 9 8 8 8 8 8 9 12 16 19 22 22
29 31 32 32 32 31 30 29 28 27 26 25 24 24 23 23 22 21 19 18 16 14 14 13 13 14 13 13 12 12 12 12 12 11 11 11 11 11 12 15 17 20
28 29 30 31 31 31 30 29 29 28 27 26 24 24 24 23 22 21 20 19 17 16 15 14 14 15 15 14 14 14 14 14 14 14 14 14 14 14 14 14 15 16
24 26 27 28 29 29 29 30 29 28 27 26 25 25 24 23 23 21 20 19 18 18 17 16 17 17 16 16 15 15 15 15 15 16 16 17 17 17 17 17 16 16
20 22 24 25 27 28 29 29 29 29 28 26 26 26 24 24 23 22 21 20 19 19 19 19 19 19 17 17 16 16 16 16 16 17 18 19 19 20 20 20 20 19
19 20 22 23 24 25 26 28 28 28 28 27 27 26 25 24 24 23 22 21 20 20 20 20 20 19 17 16 16 16 16 16 17 17 18 20 21 22 22 22 22 21
20 20 21 21 22 23 24 25 26 27 28 27 27 26 25 25 24 24 23 21 21 20 20 20 19 17 16 15 15 15 16 16 16 16 17 19 20 22 22 22 22 22
22 21 21 20 21 21 21 23 24 25 26 26 27 26 25 25 24 23 22 21 21 21 20 19 17 15 14 14 13 13 13 13 13 13 14 15 15 17 17 18 19 20
25 24 23 22 21 20 21 22 23 24 24 24 24 24 24 24 24 23 22 22 21 20 19 18 16 14 13 12 12 11 11 11 11 11 11 11 11 12 12 13 14 15
28 28 27 24 22 21 21 22 23 23 23 23 23 23 23 23 23 23 23 22 21 20 18 17 15 14 13 13 12 11 11 12 12 13 13 13 13 13 13 13 14 15
29 30 30 28 26 24 23 23 23 23 23 23 22 22 22 22 22 23 23 22 22 20 19 17 16 14 14 13 13 12 12 14 15 16 17 17 16 16 16 16 16 17
29 31 32 32 30 28 27 25 24 23 23 23 23 23 22 22 23 24 24 23 22 21 20 19 17 15 15 14 14 14 15 17 19 20 20 20 20 19 19 19 19 19
25 28 31 32 33 32 31 29 26 24 24 24 24 24 23 23 23 24 24 23 23 22 21 20 18 17 17 17 17 18 19 21 21 22 22 22 21 21 22 22 22 22
20 22 25 28 31 32 33 33 31 29 26 26 26 25 24 23 23 24 24 24 24 23 23 22 21 20 21 21 21 22 23 24 24 24 24 24 23 23 23 24 24 25
20 20 20 22 25 28 31 33 33 33 31 30 28 28 27 26 25 26 26 26 26 25 25 25 24 24 24 25 25 25 25 26 26 27 26 25 25 25 25 26 26 26
20 21 19 19 19 21 24 26 28 31 33 34 34 32 31 30 29 29 29 29 29 28 28 28 28 28 28 28 28 28 27 28 28 28 27 27 27 27 27 28 29 29

ECMWFNIL_700_spd_051.txt.gz
Wind_Speed
26 25 25 26 26 25 24 22 21 20 19 19 18 17 17 16 16 17 17 17 17 16 16 16 16 16 16 15 14 14 13 14 14 14 13 12 11 10 9 10 10 11
27 26 25 26 25 25 23 22 20 20 19 19 18 17 17 17 17 17 17 17 17 17 17 17 17 17 17 17 16 15 15 15 16 16 15 14 13 12 11 11 11 11
29 28 27 26 25 24 23 22 21 20 19 19 18 18 19 19 19 18 18 18 19 19 19 19 19 18 18 18 17 17 17 17 17 17 17 16 15 14 13 12 11 10
30 29 27 26 25 24 24 23 22 21 20 19 19 19 20 20 21 20 19 19 20 20 20 19 19 19 18 18 18 18 18 18 19 19 19 18 17 16 15 14 12 11
31 30 28 26 25 25 25 25 23 22 21 20 20 19 20 21 22 21 20 19 19 20 19 18 17 17 17 17 18 18 19 20 20 21 20 19 19 18 17 16 15 13
31 31 30 28 26 26 25 25 24 23 23 21 21 20 20 21 22 21 20 19 17 17 17 16 15 15 15 15 16 17 19 20 21 22 21 21 21 20 20 18 17 16
31 31 30 29 28 27 26 25 24 24 23 22 22 21 20 21 21 20 20 18 16 15 14 13 13 13 13 12 13 15 18 20 22 23 22 22 22 22 21 20 19 18
31 31 30 30 29 28 27 26 26 25 25 24 23 22 20 20 20 20 20 18 16 14 13 12 12 12 12 11 11 13 16 18 21 22 22 22 23 22 22 21 20 20
32 31 31 31 30 29 28 27 26 26 25 25 24 22 21 20 20 21 20 19 17 15 14 13 12 12 12 11 10 11 13 15 17 19 20 22 23 22 22 22 22 21
34 33 33 32 31 30 28 27 27 26 26 25 24 23 22 20 20 21 21 20 18 17 16 14 12 12 11 11 10 10 11 11 13 15 16 19 21 22 23 23 23 22
35 34 34 32 31 30 29 28 27 27 26 25 24 24 22 21 21 21 22 21 19 18 17 15 13 12 11 10 10 10 10 10 11 11 12 14 16 18 21 22 23 23
35 35 34 32 31 30 30 29 28 28 27 26 25 24 23 22 22 21 22 21 19 19 18 16 16 15 13 12 12 12 11 11 11 11 11 11 12 13 15 17 20 22
35 35 34 33 32 31 30 30 29 28 28 26 25 25 24 24 23 22 21 21 20 20 19 18 18 17 16 15 15 14 13 13 12 12 11 11 11 12 12 13 14 16
33 33 33 33 33 32 32 31 30 30 29 27 27 26 25 25 25 24 22 21 21 21 20 20 20 20 18 18 17 16 15 15 14 14 13 13 13 13 14 14 14 15
30 31 32 32 33 33 33 32 31 31 30 29 28 27 26 25 25 25 25 24 23 22 22 22 22 20 19 18 18 17 17 16 16 16 16 16 16 16 17 17 17 18
28 29 30 31 31 32 31 31 32 32 31 30 30 28 27 26 25 26 26 25 25 24 23 23 23 21 19 18 18 17 17 17 17 17 17 17 18 18 19 19 20 21
24 26 27 28 29 29 30 30 30 31 31 31 30 30 29 27 27 26 26 25 26 25 25 25 24 21 19 19 18 18 18 19 18 18 19 19 19 20 20 21 22 23
22 23 24 25 26 27 27 28 28 29 29 30 30 30 29 28 27 26 25 25 25 25 25 25 24 21 20 19 18 18 18 18 19 18 19 19 19 20 20 21 22 23
24 24 24 23 24 25 25 27 27 28 27 27 28 28 28 29 28 26 25 25 25 25 25 24 23 21 20 19 18 17 17 18 18 18 18 17 16 16 15 15 15 16
27 27 26 25 24 24 25 26 27 27 26 26 26 27 27 28 27 26 26 25 25 25 24 24 22 20 19 18 17 17 16 17 17 17 16 15 13 12 12 11 11 12
28 28 27 26 25 25 25 25 25 25 26 25 25 25 25 25 26 26 26 25 25 25 25 24 22 21 19 19 17 17 17 17 18 17 16 15 14 14 13 13 14 15
29 29 29 28 27 27 26 25 24 24 24 25 25 24 24 24 24 25 25 25 26 26 26 25 23 21 20 19 18 18 19 19 19 18 18 17 16 16 16 16 17 18
28 29 30 30 29 29 28 27 25 24 23 23 24 24 24 23 23 23 24 25 26 26 26 25 23 21 21 20 20 20 21 21 20 20 20 19 18 18 19 19 20 21
26 27 29 30 31 31 31 30 28 26 24 24 24 24 24 23 23 23 24 25 27 27 27 26 24 22 22 22 21 21 22 22 21 21 22 21 21 21 21 22 23 23
21 23 25 28 30 32 32 32 31 30 28 26 25 24 24 24 24 24 24 25 27 27 27 27 25 23 23 22 22 22 22 22 23 23 24 23 23 24 24 25 25 25
17 18 21 24 26 28 29 30 31 32 32 31 29 27 26 26 25 25 24 25 27 28 28 27 26 24 24 23 23 23 24 24 26 26 26 26 26 26 27 27 26 26

ECMWFNIL_700_spd_054.txt.gz
Wind_Speed
30 30 29 28 28 28 29 28 28 26 25 23 21 19 18 17 17 17 17 17 16 15 14 14 14 15 14 13 12 11 11 11 11 11 9 8 7 6 6 7 8 10
30 29 29 29 28 29 29 29 28 27 25 23 21 19 18 18 18 18 17 18 17 17 16 16 16 16 16 15 14 13 13 13 13 13 12 11 9 8 8 9 9 10
30 29 29 29 28 28 28 28 28 27 25 23 22 21 20 19 19 19 18 18 18 18 18 18 18 17 17 16 16 15 15 15 15 15 15 14 12 11 10 10 10 10
30 29 29 28 28 27 28 28 27 26 25 24 23 22 22 21 20 20 19 18 18 18 19 19 19 19 18 17 17 17 17 17 17 18 18 16 15 13 12 12 12 11
31 30 29 29 28 28 29 28 27 26 25 24 23 23 23 22 22 21 20 19 19 18 19 19 18 18 18 18 17 17 18 18 19 20 20 19 18 16 15 14 13 12
32 31 31 30 30 30 29 28 27 25 24 24 24 23 23 23 22 22 21 20 19 19 19 18 17 17 17 17 16 17 18 20 21 22 22 21 21 19 18 17 16 14
34 33 32 31 31 31 30 28 27 26 25 24 24 24 23 23 22 21 21 20 19 18 18 17 16 15 15 16 16 16 18 20 22 24 24 23 23 22 21 20 18 17
34 34 33 33 33 32 31 29 28 27 26 26 26 25 24 23 22 22 21 20 19 17 16 16 15 14 15 16 15 15 17 20 22 24 25 24 25 24 23 22 21 19
34 34 34 34 33 33 32 30 29 28 28 28 26 25 25 24 23 22 22 21 19 17 16 15 14 14 14 14 14 14 15 18 21 24 25 25 25 25 24 24 23 22
34 34 35 35 34 33 32 31 30 30 30 29 27 27 26 24 23 23 23 22 20 18 17 16 14 14 14 13 13 13 14 16 19 22 24 24 24 24 25 25 25 24
34 35 35 35 35 34 33 32 31 31 30 29 28 27 26 25 24 23 23 22 20 18 17 17 15 15 14 13 13 13 14 14 16 18 19 21 23 24 24 25 25 25
35 35 35 35 35 34 33 32 32 31 30 29 28 27 26 25 24 23 23 22 20 19 18 18 17 17 16 15 15 14 14 14 14 14 15 16 18 20 22 23 24 25
35 35 35 35 34 34 33 33 32 31 30 29 28 27 27 26 24 23 23 22 20 20 20 19 19 19 18 17 17 16 15 14 13 13 12 13 13 14 16 18 20 21
33 33 34 33 33 33 33 33 33 31 30 29 29 28 28 26 25 24 23 23 22 21 21 21 21 21 19 18 17 16 15 14 13 13 12 12 12 13 13 14 15 16
29 31 32 33 34 34 34 33 32 31 30 30 30 29 28 27 26 25 25 25 24 23 23 23 23 22 21 19 17 16 15 14 14 14 14 14 14 14 15 15 15 16
27 29 31 32 33 34 34 33 32 32 31 31 30 30 29 28 28 27 26 26 25 25 24 25 25 23 22 20 18 17 17 17 17 16 16 16 16 17 16 16 17 18
26 27 28 30 31 32 32 32 32 32 32 32 31 30 30 30 29 28 27 26 26 26 26 26 26 24 23 21 20 20 20 20 19 19 19 19 19 19 18 18 19 20
26 26 26 27 29 30 30 31 31 31 32 32 32 31 31 31 31 29 28 26 26 27 27 27 26 25 24 23 22 22 22 22 21 21 21 21 21 20 20 20 21 22
25 25 25 26 26 27 28 29 30 31 31 31 31 31 31 32 32 31 29 28 27 27 26 26 26 25 25 24 23 23 23 23 23 22 22 22 21 21 21 22 22 23
24 23 23 23 23 24 26 27 29 29 29 29 30 30 32 32 32 31 30 30 29 27 27 27 26 25 25 25 24 23 23 23 24 24 23 23 22 22 22 21 21 21
24 24 23 22 22 23 24 25 26 27 27 28 28 29 29 29 29 30 30 30 30 28 28 27 27 25 25 25 23 23 23 24 24 25 24 23 22 21 20 18 17 17
27 27 26 25 25 25 25 25 25 24 24 25 25 26 25 26 27 28 28 29 29 29 28 27 26 25 25 24 23 23 24 25 25 25 25 24 22 19 18 17 16 16
28 28 28 28 28 28 27 26 24 23 23 23 23 23 23 23 24 24 25 26 27 28 27 25 24 24 24 23 23 23 25 26 26 26 26 25 22 20 19 18 17 16
26 27 28 29 29 29 28 27 26 25 23 23 22 22 21 22 22 22 23 24 26 26 25 24 23 23 23 23 23 25 26 27 27 27 27 26 23 21 19 18 17 18
23 24 25 26 27 27 27 27 26 25 25 24 23 22 21 21 21 22 22 23 23 24 24 25 24 23 23 24 24 26 27 28 29 29 28 26 24 22 21 20 20 20
21 22 22 23 24 24 25 25 25 25 25 25 25 24 23 22 21 21 22 22 23 23 23 25 25 24 24 25 25 26 28 29 30 30 29 27 26 24 23 23 23 23

ECMWFNIL_700_spd_057.txt.gz
Wind_Speed
29 30 30 30 30 29 28 28 27 27 26 25 23 22 20 18 17 16 15 15 14 13 12 11 11 11 11 11 10 10 9 9 9 7 6 4 3 2 2 2 3 4
29 29 30 31 31 30 29 29 29 28 28 27 25 24 22 20 19 17 16 16 16 15 14 13 13 12 12 12 12 12 11 11 11 10 8 7 5 4 4 4 5 6
29 29 30 30 31 30 30 30 29 29 29 28 27 25 24 22 20 19 18 17 17 16 16 15 15 14 13 13 13 13 13 13 13 13 11 9 8 7 6 7 8 8
30 29 29 29 30 30 31 30 30 30 30 29 28 26 25 23 22 21 19 18 17 17 17 16 16 15 15 14 14 14 15 15 15 15 14 12 11 10 9 9 10 10
31 30 29 29 30 30 31 31 31 31 30 29 28 27 26 24 23 22 20 19 18 17 17 17 16 16 15 15 15 15 16 17 17 17 17 15 14 13 12 12 12 12
31 31 30 30 30 30 31 31 31 30 30 29 29 28 26 25 24 23 21 20 18 17 17 16 16 15 15 15 15 15 17 18 19 19 19 18 17 16 15 14 14 13
33 32 31 31 31 31 31 31 31 31 30 29 29 28 27 26 26 24 23 22 20 18 17 17 16 15 15 15 16 15 17 19 21 21 21 21 20 19 18 17 17 16
33 33 32 32 32 32 32 32 31 31 30 30 29 28 28 28 27 26 25 23 22 20 18 17 16 16 15 16 16 16 17 19 21 23 23 23 23 22 21 20 20 18
34 33 33 33 33 33 32 32 32 31 31 30 29 29 29 29 28 27 26 25 23 21 19 18 17 16 16 15 15 16 17 18 21 24 25 25 26 25 24 23 23 21
34 34 34 34 34 34 33 32 32 32 31 30 30 30 30 29 29 28 27 26 25 22 20 18 17 17 16 16 15 16 17 18 20 23 25 26 27 27 27 26 25 24
34 34 35 35 35 34 33 33 32 32 31 30 30 30 30 30 29 28 28 27 25 22 20 19 18 17 17 16 16 16 16 17 19 21 23 25 26 28 28 28 27 26
34 34 35 35 35 34 33 33 33 32 31 31 31 30 29 29 29 28 27 26 24 22 21 19 19 19 18 17 17 17 17 17 18 18 20 22 24 26 28 29 29 28
34 33 34 34 35 35 34 34 34 33 32 32 31 30 29 29 29 28 27 25 24 23 21 20 20 20 20 19 18 18 18 17 17 16 17 18 20 23 25 27 28 28
34 33 33 33 34 35 35 35 35 34 33 33 32 31 30 29 29 28 26 25 25 23 22 21 21 22 22 20 19 19 18 17 16 16 15 15 17 19 21 23 24 25
34 34 33 32 33 34 35 35 35 35 34 33 33 32 31 30 29 28 27 26 25 24 23 22 22 23 23 21 20 20 19 18 17 16 15 15 15 16 17 18 19 20
33 33 33 33 33 33 33 34 34 34 34 34 33 32 32 31 30 29 28 27 26 25 24 22 22 22 22 22 22 21 20 19 19 18 17 17 17 17 17 16 16 17
31 31 32 33 33 33 32 32 33 33 34 33 33 32 32 31 31 30 29 27 26 26 25 23 21 21 22 23 23 22 22 21 20 19 19 19 19 19 18 18 18 18
31 31 31 31 32 33 32 32 32 32 32 32 32 32 31 31 31 30 29 27 27 26 25 24 22 21 22 23 24 23 22 22 21 20 20 20 20 19 19 20 20 21
34 32 30 30 30 31 31 31 31 30 30 30 30 31 31 31 32 31 29 29 28 27 25 25 23 22 23 23 24 24 23 22 21 21 21 21 21 20 20 21 21 22
36 34 31 29 28 29 30 30 29 29 28 29 29 30 31 32 32 31 30 30 29 28 27 26 25 24 24 24 25 25 25 24 23 23 23 23 22 22 22 22 23 23
33 32 30 28 27 27 28 28 28 28 28 28 28 29 30 31 31 31 31 31 31 30 29 28 26 25 25 26 26 26 26 27 26 26 25 25 24 24 24 24 24 24
30 30 28 27 26 27 28 28 28 28 28 28 28 28 29 29 30 30 31 31 31 31 31 30 28 26 26 26 27 27 28 29 29 28 28 27 25 25 25 25 25 24
26 26 26 25 25 26 27 27 27 27 27 27 27 27 27 27 27 28 28 28 29 31 31 30 29 28 27 27 27 29 30 30 30 29 29 28 27 26 26 25 25 24
24 24 24 24 24 24 24 24 24 24 24 24 25 25 24 24 24 24 25 25 27 28 28 27 27 28 28 28 28 29 30 31 31 30 30 29 27 26 26 26 25 23
27 26 26 25 25 25 24 24 23 23 23 23 23 23 23 23 23 23 23 24 24 24 24 25 26 27 28 29 29 30 31 31 31 31 30 29 28 27 27 26 25 24
31 30 29 28 28 28 27 27 26 26 25 25 25 24 23 23 23 23 23 23 23 23 23 24 25 26 27 28 29 30 31 31 31 31 31 29 28 28 27 27 26 25

ECMWFNIL_700_spd_060.txt.gz
Wind_Speed
30 29 29 29 29 29 29 28 27 26 25 24 22 21 20 19 18 17 16 16 15 14 13 12 11 10 10 9 9 8 7 6 5 5 4 3 1 1 1 1 1 1
30 29 29 30 30 30 29 29 28 27 26 25 24 23 22 21 20 19 18 17 16 15 15 14 12 11 11 10 10 10 9 8 8 7 6 5 3 2 2 2 2 2
30 30 30 29 29 29 29 29 28 28 27 27 26 25 24 23 22 21 19 19 18 17 17 15 14 13 12 12 11 11 11 11 10 9 8 7 6 5 4 4 4 4
30 30 29 29 29 29 30 30 29 29 28 28 28 27 26 25 24 22 21 20 19 19 18 17 16 15 14 14 13 13 13 13 12 12 10 9 8 7 7 7 7 7
30 30 29 29 30 30 30 31 30 29 29 28 28 28 27 26 25 24 22 21 20 19 19 18 17 17 16 15 15 14 14 14 15 14 13 12 11 10 9 9 9 9
31 30 30 30 30 30 31 31 30 30 29 28 29 29 28 27 26 25 24 22 21 20 19 19 18 18 17 16 16 15 15 15 16 16 16 15 14 13 12 12 12 12
31 31 31 30 30 30 30 30 30 30 30 30 30 29 29 28 28 27 25 23 22 21 20 19 18 18 17 16 16 16 16 17 18 18 18 18 17 16 16 15 15 15
31 32 32 31 31 30 29 30 30 31 31 31 31 30 29 29 28 28 26 25 24 22 20 19 18 18 18 17 16 16 17 18 20 20 20 21 21 20 19 18 18 18
32 32 33 32 32 31 30 30 30 31 31 32 31 30 30 30 29 28 27 26 24 23 21 19 18 18 18 17 17 17 18 19 21 23 23 23 23 23 22 22 21 21
32 33 33 33 33 31 30 30 30 31 31 32 32 31 31 30 29 29 28 26 25 24 22 20 19 18 18 18 17 17 18 20 21 23 24 25 25 25 25 25 24 23
33 33 33 34 33 32 30 30 30 31 31 32 32 32 31 30 29 29 28 27 25 24 22 20 19 19 18 18 18 18 19 20 21 23 24 26 27 27 28 27 26 25
33 33 33 33 33 32 31 31 31 31 31 32 32 31 31 30 30 29 29 27 25 24 23 21 20 20 19 19 19 19 20 20 20 22 23 25 26 28 29 29 29 28
33 33 33 33 33 33 32 32 32 32 32 32 31 31 31 30 30 30 29 27 26 25 24 22 21 21 20 20 20 21 20 20 20 20 22 23 25 26 28 30 30 30
32 32 33 32 33 34 34 33 33 32 32 32 31 31 31 30 30 29 29 28 27 26 25 24 23 22 21 21 21 22 21 20 20 20 20 21 22 24 26 28 30 31
31 32 33 32 32 33 34 33 33 33 32 32 31 31 31 30 29 29 29 28 28 27 26 25 24 23 22 21 21 22 21 20 20 20 19 19 20 21 23 25 27 29
30 32 32 32 32 32 33 33 33 33 33 32 32 31 31 30 29 29 29 28 28 27 26 26 25 23 22 21 21 22 22 21 21 20 19 19 19 21 21 22 24 26
29 30 31 31 32 31 31 32 33 34 34 33 33 32 31 30 29 29 29 28 28 27 27 26 25 23 21 20 20 22 23 22 22 20 19 19 20 20 20 20 20 21
28 29 29 30 31 31 31 31 32 33 34 34 33 33 32 31 30 29 29 28 28 27 27 26 24 23 22 20 21 22 23 23 23 22 21 21 20 20 20 19 19 18
29 29 29 29 30 30 30 31 32 32 32 32 32 33 33 32 32 31 30 29 29 28 28 26 24 23 22 21 21 22 23 24 24 24 23 23 22 22 21 20 20 19
30 30 29 29 29 30 30 31 31 30 30 31 31 32 32 32 32 32 31 30 30 29 27 26 25 24 22 21 22 22 23 25 25 26 26 25 25 24 23 23 22 21
31 32 31 30 29 29 29 29 30 30 30 30 30 30 30 31 31 32 31 31 31 30 28 26 25 24 22 22 22 23 24 25 26 27 27 27 27 26 25 25 24 23
31 32 33 33 31 30 29 29 29 30 30 31 30 30 30 30 31 31 31 31 31 30 29 28 26 25 23 22 23 24 26 27 27 28 28 28 28 27 27 26 25 24
31 32 34 34 33 31 29 29 29 29 30 30 30 30 30 30 30 30 30 30 31 31 31 29 28 27 25 24 25 26 28 28 28 29 29 29 28 28 28 27 26 25
30 31 33 34 33 31 30 29 30 30 29 30 30 30 30 29 28 28 29 30 31 31 31 31 29 29 28 27 28 29 29 30 30 30 31 30 29 29 29 28 27 26
29 29 30 32 32 31 31 31 30 30 29 29 29 29 29 28 28 28 29 30 31 31 31 31 30 31 31 30 30 31 31 32 32 32 32 31 30 30 29 29 27 26
28 29 30 31 32 32 32 32 31 30 29 29 28 28 28 28 28 28 29 29 29 30 30 29 30 30 31 30 31 32 32 33 34 33 33 31 31 31 30 30 28 27

ECMWFNIL_700_spd_063.txt.gz
Wind_Speed
30 30 29 29 28 27 27 27 26 25 24 23 22 21 21 20 19 17 15 14 13 12 11 11 11 10 9 9 9 8 7 6 4 3 3 2 1 1 2 2 2 2
30 30 29 29 28 28 27 27 27 26 24 23 23 22 23 22 21 19 18 16 14 13 13 12 12 11 11 10 10 9 9 8 6 5 4 3 2 1 1 1 2 2
28 29 29 29 29 28 27 27 27 26 25 24 24 24 24 23 22 21 20 18 16 15 14 14 13 13 12 11 11 10 10 9 8 7 7 6 4 3 2 2 3 4
28 28 28 28 28 28 28 28 27 26 26 25 25 25 25 24 23 23 21 19 18 17 16 15 14 14 13 13 12 11 11 11 10 10 9 8 7 5 4 4 4 5
28 28 27 28 29 29 29 29 28 27 26 25 25 26 26 26 25 24 22 21 19 18 18 17 16 16 15 15 14 13 12 11 11 12 11 10 9 8 6 6 6 6
28 28 28 28 29 30 30 30 29 27 27 26 26 26 27 27 26 25 23 22 21 20 19 19 18 18 18 17 16 15 13 12 12 13 13 12 11 10 9 8 8 9
28 28 28 28 29 30 30 29 29 28 27 27 27 27 28 27 27 26 25 23 22 21 20 19 19 19 19 18 17 16 15 14 14 15 14 14 14 13 12 11 11 11
29 29 29 29 30 30 29 29 29 29 28 28 29 28 28 28 27 26 26 25 23 23 21 20 19 19 19 19 18 16 15 15 16 17 16 16 16 16 15 15 14 14
29 29 30 30 30 30 29 29 29 29 29 29 29 28 28 28 27 27 27 26 24 23 22 20 19 19 19 20 19 16 15 15 16 18 18 18 18 18 18 18 17 16
30 30 31 31 31 30 30 29 29 29 29 29 29 29 29 28 28 27 27 26 25 24 22 20 19 19 19 20 19 17 16 15 17 18 18 19 20 20 21 21 20 19
30 30 31 31 31 31 30 29 29 28 28 28 29 29 29 28 27 28 28 27 25 24 22 20 19 19 18 19 19 18 17 16 17 18 19 19 20 22 22 23 23 22
30 31 31 30 31 31 31 30 29 28 27 28 29 30 30 29 28 28 28 27 25 24 23 21 20 19 19 19 19 19 18 17 18 19 19 20 21 22 23 24 25 24
29 30 30 30 30 31 31 31 29 28 28 27 28 29 30 29 28 27 27 26 25 24 24 22 21 20 19 19 19 19 18 18 18 19 19 20 20 22 23 24 25 26
27 28 29 29 29 30 31 31 30 30 29 29 27 27 28 29 29 27 26 26 25 25 25 23 22 21 20 19 19 19 18 18 18 19 19 20 20 21 22 23 24 26
26 27 28 28 29 30 31 31 31 30 30 30 29 27 27 28 28 27 26 26 26 25 25 24 23 22 20 19 18 18 18 18 18 19 20 20 20 20 21 22 23 24
26 27 27 28 29 29 30 30 30 30 30 30 29 28 28 28 28 27 26 25 25 25 25 25 23 21 20 19 18 18 18 18 19 19 20 20 20 20 20 21 22 23
26 27 27 28 28 28 29 29 29 30 30 30 29 28 29 29 28 27 27 26 25 24 24 24 23 21 20 18 18 18 18 19 19 20 20 21 20 20 20 20 20 21
25 26 26 26 27 28 28 28 29 29 29 30 29 28 28 28 28 28 27 27 27 25 24 23 23 22 20 18 18 18 19 19 20 20 21 21 21 20 20 20 20 20
26 26 26 26 26 27 27 28 29 30 29 29 29 29 28 28 28 28 27 27 27 26 25 23 23 22 20 18 18 18 19 20 21 21 22 22 22 21 20 20 20 20
28 26 26 25 26 27 28 29 30 30 29 29 30 30 29 29 29 29 28 28 28 27 27 25 24 23 21 19 18 19 19 21 22 22 23 23 23 23 22 21 20 20
30 28 26 26 27 27 28 29 30 31 31 30 30 30 30 29 30 30 29 29 28 29 28 26 25 25 22 19 19 19 20 22 23 24 23 23 24 24 23 22 21 21
32 30 28 27 28 29 29 29 30 31 32 32 31 30 30 29 30 30 30 30 29 30 30 28 26 26 23 20 19 20 22 24 25 25 24 24 24 24 24 24 23 22
34 32 29 28 29 30 30 30 30 31 32 32 32 31 30 30 29 30 30 30 30 30 30 29 27 26 24 22 21 21 24 26 25 25 25 24 24 24 24 24 24 24
35 34 31 29 29 30 31 31 30 31 31 31 31 30 30 30 30 30 30 30 30 29 29 29 28 27 25 23 23 23 24 26 26 26 26 26 25 25 25 25 25 24
38 36 33 31 29 29 30 32 31 31 30 30 29 29 30 31 31 30 30 31 30 30 29 29 29 28 27 25 25 25 25 26 28 29 29 27 26 25 25 26 25 25
40 38 35 32 29 28 30 31 32 32 30 29 28 29 30 31 31 31 31 31 31 31 31 30 29 29 29 27 26 27 27 28 29 31 31 29 27 26 27 26 26 25

ECMWFNIL_700_spd_066.txt.gz
Wind_Speed
30 28 28 27 25 24 23 23 24 23 22 20 20 19 18 17 16 14 12 12 12 11 11 10 9 8 7 7 6 5 5 5 4 3 3 3 3 3 4 4 5 5
29 29 29 28 26 25 23 23 23 24 23 21 20 20 20 19 18 17 15 13 13 12 12 10 9 9 8 7 7 7 6 6 5 5 4 4 3 3 3 3 4 4
28 29 30 29 27 26 24 23 23 23 23 22 21 21 21 21 20 19 17 15 15 14 12 11 10 9 9 8 8 7 7 7 7 6 5 5 4 3 3 3 3 4
26 28 28 29 27 26 25 24 23 23 23 22 22 22 22 21 21 21 19 17 16 15 13 12 11 10 9 9 8 8 8 8 8 7 7 6 5 4 4 3 4 5
24 25 26 27 27 27 27 26 24 23 23 22 22 22 22 22 22 21 20 19 18 16 15 13 12 11 10 10 10 9 9 9 9 8 8 7 6 6 5 5 4 5
24 25 25 26 26 27 28 27 25 24 23 22 22 23 23 23 23 22 21 20 19 18 17 16 14 13 12 11 11 10 10 10 10 9 8 8 8 8 7 6 6 6
24 24 24 25 26 27 27 27 26 24 23 23 23 23 23 24 24 23 22 21 21 20 19 18 16 15 14 13 12 12 11 11 11 10 10 10 10 10 9 8 8 8
25 24 24 25 26 27 27 27 26 25 24 23 24 24 24 24 24 24 23 22 22 21 21 19 18 16 16 15 13 12 12 12 12 11 11 12 11 11 11 11 11 10
27 26 26 26 26 27 27 26 26 26 25 24 24 24 24 24 23 23 24 24 23 23 22 21 19 18 16 16 15 13 12 13 13 13 13 13 13 13 13 13 13 12
28 27 27 27 27 27 27 26 25 26 26 25 25 25 25 24 23 23 24 25 25 24 23 22 21 19 17 16 16 14 13 13 14 14 13 14 14 14 15 15 15 15
28 28 28 28 28 27 27 26 26 26 26 26 25 25 25 24 23 23 24 25 26 25 24 23 22 20 18 17 17 16 15 14 14 15 14 14 14 15 16 16 16 16
27 28 28 28 28 27 27 26 26 26 26 26 26 26 26 25 23 23 24 24 25 25 24 23 22 21 20 18 17 17 16 15 15 15 15 15 14 15 16 17 17 17
27 27 27 27 27 27 27 27 27 27 26 26 26 26 27 26 24 23 23 23 23 24 24 24 23 22 21 19 17 17 17 16 15 16 16 16 15 15 15 16 17 17
25 26 26 27 27 27 27 26 27 28 27 26 26 26 27 27 26 24 23 23 23 23 24 24 24 22 22 20 18 18 17 16 16 16 16 16 16 16 16 16 16 16
23 24 26 26 26 27 27 26 27 27 27 27 26 27 27 27 27 25 24 24 24 23 23 25 25 23 21 20 18 17 17 16 15 15 16 17 17 16 16 16 16 16
22 23 24 25 26 27 27 27 27 26 27 27 27 27 26 26 26 26 25 24 25 25 24 24 25 22 20 19 17 16 16 16 16 15 16 17 18 17 16 16 15 15
21 21 22 24 25 26 26 27 27 26 26 27 27 26 26 26 26 25 25 24 24 25 25 25 24 22 20 19 17 16 16 16 17 16 16 17 18 18 17 16 15 15
21 21 21 21 23 24 25 26 27 26 26 27 27 26 26 26 26 26 25 24 23 24 25 24 23 21 20 19 18 17 16 17 17 17 17 17 17 18 18 17 16 15
21 21 21 20 20 21 23 25 27 27 26 26 26 26 26 26 26 26 26 25 24 23 24 24 22 21 21 20 19 18 18 17 18 18 18 18 17 18 19 18 17 16
23 22 21 21 20 20 21 23 25 27 27 26 26 27 27 26 26 27 27 27 26 25 24 24 23 22 21 20 19 18 18 18 18 18 18 19 19 18 19 19 18 16
24 23 22 22 21 22 21 21 23 25 26 27 27 28 28 27 26 26 26 27 26 26 26 24 23 23 22 20 18 17 18 19 19 19 20 20 20 20 19 18 18 17
24 24 24 24 23 23 23 22 23 24 26 27 28 28 28 28 27 27 27 27 26 26 26 25 24 23 21 20 19 17 18 19 19 20 21 20 21 21 19 18 18 16
26 25 26 25 25 24 24 24 24 24 25 27 28 29 29 29 28 28 27 28 28 27 27 26 25 24 21 20 19 18 19 20 20 21 21 21 21 21 20 20 18 17
28 27 27 27 26 25 25 25 25 25 26 27 28 28 28 28 28 28 28 28 29 29 28 27 26 25 23 21 21 21 21 21 21 22 22 22 22 22 22 21 20 18
29 29 28 28 27 26 26 26 26 27 27 28 28 28 27 28 28 28 28 28 29 29 29 28 27 26 25 24 23 23 23 23 22 22 23 23 23 23 23 22 21 20
32 31 29 28 28 29 28 27 27 28 29 29 29 29 28 28 28 28 28 29 29 30 29 28 27 26 26 26 24 24 24 24 24 23 23 24 24 25 24 23 22 21

ECMWFNIL_700_spd_069.txt.gz
Wind_Speed
27 25 24 24 25 25 23 22 22 21 21 20 19 18 17 17 16 15 15 15 14 13 12 11 10 9 8 7 7 7 7 6 6 5 5 5 5 6 6 6 7 6
28 27 26 25 25 25 24 23 23 23 22 21 19 19 19 19 17 16 16 15 15 14 12 11 11 10 9 8 7 7 6 6 6 5 5 5 4 5 6 6 6 6
29 29 28 27 26 24 23 23 23 23 23 22 21 20 21 21 19 18 17 16 15 14 13 12 11 10 10 9 8 7 7 6 6 6 6 5 5 4 5 5 6 6
27 28 28 28 27 26 24 24 23 24 23 23 23 22 22 22 21 20 19 17 16 14 13 12 11 11 10 9 8 8 7 7 7 7 6 6 6 5 4 5 5 6
25 26 27 28 28 27 27 25 24 24 23 22 23 23 23 22 21 21 20 19 17 15 14 13 13 12 10 10 9 8 7 7 7 7 8 7 7 6 5 5 5 6
24 25 26 27 28 28 29 27 25 24 24 22 22 23 23 23 22 21 21 20 19 18 16 15 14 13 12 11 10 9 8 7 7 7 8 9 9 8 7 6 6 6
24 25 25 25 27 28 29 28 27 25 24 23 23 23 23 23 23 22 21 21 20 19 18 17 15 14 13 12 11 10 9 8 8 7 8 9 10 10 9 8 7 7
25 24 25 25 26 27 28 28 28 27 25 25 24 23 23 23 22 22 22 22 21 20 19 18 18 16 14 13 12 11 10 10 9 9 9 9 10 11 11 11 10 9
26 25 25 26 26 27 27 27 28 27 26 26 26 24 24 24 23 21 21 22 23 22 20 19 19 17 16 14 12 11 11 11 11 10 10 10 10 11 12 13 12 11
28 27 27 27 27 27 27 27 27 27 27 27 26 26 24 23 23 21 20 21 23 24 22 20 19 18 17 15 13 12 12 12 12 11 11 11 11 11 11 13 14 14
29 29 28 28 27 27 27 26 27 27 27 27 26 26 25 23 23 22 21 20 21 23 23 22 20 18 17 16 14 13 12 13 13 12 11 12 11 11 11 12 13 15
30 30 30 29 28 27 27 26 27 27 27 27 26 26 26 25 23 23 22 21 20 20 22 22 21 19 17 16 16 15 14 14 14 14 13 12 12 11 11 11 12 13
29 29 29 29 28 27 27 26 27 27 26 26 26 26 27 26 25 24 23 22 21 21 21 21 22 22 20 19 17 17 16 15 15 15 14 13 12 11 12 12 11 12
26 27 28 28 28 27 27 27 27 27 26 26 26 26 27 26 25 24 23 23 23 22 22 21 22 23 22 21 19 18 17 17 16 16 15 15 14 13 12 12 12 11
22 25 26 27 28 28 28 28 28 27 27 26 26 27 26 26 25 25 24 24 23 24 24 24 24 23 23 21 20 19 18 18 17 16 16 16 15 14 14 13 13 12
21 23 24 26 27 28 28 28 28 27 27 27 27 26 26 26 26 25 24 24 24 24 25 26 26 25 23 22 20 20 19 19 18 18 17 17 17 16 16 15 14 13
22 22 23 24 25 26 28 28 28 28 28 28 27 27 27 27 27 27 25 23 23 24 25 26 26 25 23 22 21 21 20 20 20 19 19 19 18 18 17 16 15 14
22 22 22 23 23 24 26 28 28 28 28 29 28 28 28 28 28 27 26 24 23 23 25 26 25 24 23 22 21 21 21 21 21 21 20 20 20 19 18 17 16 15
23 23 22 22 22 23 25 27 29 29 29 29 29 27 27 28 28 28 27 25 23 22 23 24 25 24 23 22 22 22 22 22 22 22 22 21 20 20 19 18 17 15
26 24 23 22 22 23 24 26 28 28 28 28 28 27 27 28 28 28 27 26 24 22 21 22 24 24 24 23 22 22 23 23 23 23 22 22 21 20 19 18 17 15
29 27 25 23 23 23 25 26 27 27 27 27 27 27 27 26 26 27 28 27 26 23 21 21 22 23 23 23 22 21 22 23 23 23 23 23 21 20 19 18 16 15
30 29 28 26 24 24 25 26 26 26 26 26 26 27 27 26 26 27 27 28 27 25 23 22 22 23 23 23 22 20 20 21 22 23 24 23 21 20 19 18 16 15
28 30 29 28 27 26 25 25 25 26 26 26 25 26 26 26 26 26 26 27 27 27 26 24 23 23 23 23 22 22 21 21 21 21 22 21 20 19 19 18 17 16
27 28 30 30 30 28 27 26 25 26 26 26 26 25 24 24 24 24 25 26 27 28 27 25 24 23 22 22 22 22 22 22 21 21 20 20 19 19 20 19 18 17
28 28 29 30 31 30 29 28 27 27 27 27 27 26 25 24 24 24 24 25 26 27 27 27 26 24 23 22 22 23 23 23 23 23 22 21 20 20 20 20 20 18
32 31 30 30 31 31 31 31 30 29 28 28 28 28 27 27 25 24 24 24 25 26 27 28 27 26 25 24 23 23 24 24 25 25 24 23 22 22 22 22 22 20

ECMWFNIL_700_spd_072.txt.gz
Wind_Speed
23 22 23 25 26 25 25 24 22 21 20 19 18 16 16 15 15 14 13 14 14 14 13 12 12 11 10 10 9 9 8 8 7 6 6 6 6 6 6 6 6 5
25 23 22 24 26 27 26 25 23 22 21 21 19 18 17 17 16 15 14 14 14 14 13 13 12 12 11 10 9 8 8 8 7 7 6 6 6 6 6 6 6 5
26 25 23 23 25 25 25 24 24 23 22 22 21 20 19 19 17 17 16 15 15 15 14 13 12 12 11 11 10 9 8 8 8 7 7 7 6 7 7 7 7 6
26 26 25 24 24 24 23 23 23 24 24 24 24 22 22 21 20 19 18 17 16 16 15 14 13 12 12 11 11 10 10 9 9 9 8 8 8 7 7 7 7 7
25 26 25 24 24 24 24 23 22 22 23 24 25 24 24 23 22 21 20 19 18 17 17 16 15 14 13 12 12 12 11 11 11 10 10 9 9 8 7 7 8 8
24 25 25 25 25 25 25 24 22 21 21 22 24 25 25 25 24 23 22 21 19 19 18 18 17 15 15 14 13 13 12 12 12 12 11 11 10 10 9 8 8 8
24 24 25 25 25 26 26 25 24 22 21 21 22 23 24 25 25 25 24 24 23 21 20 19 18 17 16 16 15 14 13 12 12 12 12 13 13 12 11 10 9 9
25 24 25 25 26 26 27 26 26 25 23 23 23 22 23 25 25 25 25 25 26 25 23 21 20 20 19 17 16 15 14 13 12 12 12 13 14 14 13 12 12 11
27 26 25 26 26 27 27 26 26 26 25 25 25 23 23 24 24 25 25 25 26 27 26 25 22 21 21 20 18 17 15 14 13 13 13 13 14 15 15 15 14 13
30 28 27 27 27 27 27 26 26 26 27 27 26 26 25 24 24 25 26 26 26 26 27 27 25 24 22 21 20 18 17 16 15 14 14 13 14 15 17 17 16 15
32 31 30 29 28 27 26 26 26 26 27 27 27 28 27 26 25 25 26 27 27 26 26 26 26 25 24 22 21 20 18 18 17 16 15 14 14 15 17 17 17 17
32 32 32 31 29 28 26 26 26 26 27 28 28 28 28 28 27 26 26 27 27 27 26 25 25 25 24 23 22 21 19 18 18 17 16 15 15 15 16 17 18 19
33 33 32 32 30 29 27 27 26 26 27 27 28 29 29 29 29 28 27 26 26 27 27 27 26 25 25 24 24 23 21 20 19 18 16 16 16 16 16 16 17 18
32 32 32 32 31 30 29 28 27 27 27 27 28 29 29 29 29 28 28 27 26 26 27 27 28 28 26 25 25 24 23 22 21 20 18 17 17 17 17 17 17 17
32 32 32 32 32 32 31 30 29 28 28 28 28 29 29 29 29 29 29 29 28 27 26 27 29 30 29 27 26 25 24 24 23 22 21 20 19 18 18 18 18 17
32 33 33 33 33 33 32 31 31 30 29 29 29 29 29 29 29 29 29 29 29 28 28 28 29 30 30 29 28 27 26 25 25 25 24 23 22 21 20 20 19 18
31 32 32 33 33 33 32 32 31 31 31 30 30 29 29 29 29 30 29 29 29 28 28 29 29 28 28 29 29 29 28 28 27 27 26 25 25 24 23 22 21 20
30 30 31 31 31 32 32 32 32 32 32 32 31 30 29 29 30 30 30 29 28 28 29 29 28 28 27 27 28 28 29 29 28 28 28 27 27 26 25 24 24 22
30 30 29 29 30 30 31 32 32 32 32 32 31 30 30 30 30 30 30 30 29 28 28 28 28 27 27 27 27 27 28 29 29 29 29 29 28 28 27 26 26 24
28 29 29 29 29 30 31 32 33 33 32 31 31 31 31 31 30 31 31 30 30 28 28 27 27 27 27 27 28 28 28 28 29 30 30 29 29 28 28 28 27 26
28 28 29 29 29 30 30 31 32 32 32 31 31 31 31 30 30 30 31 31 30 29 28 27 26 26 27 28 29 29 29 29 29 29 30 30 30 29 29 29 28 27
28 28 29 28 28 29 29 29 30 30 31 31 31 31 30 30 30 30 30 31 31 31 29 27 25 25 26 27 28 29 29 29 30 30 30 30 30 30 30 29 28 28
29 29 30 30 30 30 29 29 28 29 30 30 31 30 29 29 30 29 29 30 30 31 31 28 26 25 25 26 27 28 29 30 30 30 30 30 30 30 29 29 28 27
32 31 32 32 32 31 30 30 30 29 29 30 30 30 29 28 28 28 29 30 30 31 31 29 27 25 25 26 26 27 29 30 30 29 29 29 29 29 29 28 28 26
34 33 33 34 34 33 32 31 31 30 30 30 31 30 29 28 28 28 29 29 30 30 30 30 29 27 26 26 26 27 29 30 30 30 30 29 28 28 28 28 27 26
35 35 36 36 36 35 34 33 32 32 32 32 31 31 30 30 29 28 28 28 29 30 30 30 29 28 27 27 27 28 29 30 31 31 31 30 28 28 28 27 27 26

ECMWFNIL_700_spd_075.txt.gz
Wind_Speed
21 23 24 25 24 23 23 22 20 18 16 15 14 13 13 13 12 12 11 12 13 13 12 12 11 9 8 8 7 6 6 6 5 4 4 4 3 4 4 4 3 3
23 22 23 24 24 24 23 23 23 21 19 17 15 15 15 15 14 13 12 13 13 14 13 13 12 10 9 9 8 8 8 7 7 6 5 5 4 4 4 4 4 4
24 23 23 24 24 24 23 23 24 24 22 20 18 17 17 17 16 15 14 14 14 15 15 14 13 12 11 11 10 9 9 8 7 7 6 5 5 4 5 5 5 5
24 24 23 23 23 23 24 24 24 24 23 22 21 20 19 19 18 17 16 16 15 16 16 15 14 14 13 13 11 10 10 9 9 8 6 6 5 5 5 5 5 5
24 24 24 23 23 24 25 25 24 23 23 22 22 22 21 21 20 19 18 17 17 16 17 16 15 15 15 14 13 12 11 11 10 9 8 7 7 6 6 6 6 6
24 25 25 25 24 25 26 25 23 22 22 22 23 23 23 22 21 21 20 19 18 18 17 17 16 16 15 15 14 13 13 12 12 11 10 9 9 8 7 7 7 7
25 26 26 26 26 27 27 25 23 21 20 21 23 24 24 23 22 22 21 21 20 19 18 18 17 17 16 16 15 14 14 14 13 12 11 11 11 10 9 8 8 8
25 26 26 27 27 28 28 27 26 23 21 21 22 23 24 24 23 22 22 22 22 21 20 19 18 18 18 17 16 15 15 15 14 13 12 12 13 12 11 11 10 9
25 25 26 27 28 28 29 29 27 25 24 23 22 22 23 23 22 22 23 23 23 23 23 22 20 19 19 19 18 17 16 15 15 14 13 13 13 13 13 14 13 12
27 26 26 27 28 28 29 29 29 28 27 26 24 24 24 23 22 22 23 24 24 25 25 24 23 22 21 21 20 18 17 16 15 14 14 13 13 13 14 15 15 14
29 28 27 27 27 27 28 28 29 29 29 28 27 26 26 25 24 24 23 24 25 26 26 27 26 25 24 23 22 21 19 18 17 16 15 15 15 14 15 16 17 16
31 30 29 28 27 27 27 27 28 29 29 29 29 28 28 27 26 25 25 25 25 25 26 27 28 28 28 27 25 23 22 21 20 19 18 17 16 16 16 16 17 17
33 32 31 30 29 28 27 27 27 27 28 28 29 29 29 29 28 27 26 26 25 25 25 26 27 28 29 29 28 27 25 24 23 21 20 19 18 18 17 17 17 17
34 33 33 32 30 30 29 28 28 28 27 27 28 29 29 29 29 29 28 28 26 25 25 26 27 28 29 29 29 28 28 26 25 23 22 21 20 19 19 18 18 18
34 34 33 33 33 32 31 30 29 29 28 28 28 29 29 29 30 30 30 30 29 28 26 26 27 28 29 29 29 29 28 27 26 25 24 22 21 21 20 20 19 19
34 34 34 34 34 34 33 32 31 30 30 30 30 29 29 29 30 31 32 32 31 30 29 28 28 28 28 29 29 29 29 28 28 27 26 25 24 23 22 22 21 21
33 34 35 35 35 34 34 33 32 32 31 31 31 30 30 30 30 31 32 32 32 31 31 30 29 27 27 27 28 29 30 30 29 28 28 28 27 27 26 24 23 23
31 33 35 36 35 34 34 34 34 34 33 33 32 31 30 30 31 31 31 31 31 32 31 31 29 27 26 26 27 28 29 31 31 30 30 30 30 29 29 28 27 26
28 31 33 35 35 34 34 35 35 35 35 34 34 33 33 32 32 31 31 31 31 31 31 30 29 27 26 26 26 26 28 30 31 32 32 32 31 31 31 30 30 29
27 29 32 33 33 33 34 35 36 35 35 35 35 35 35 34 33 32 32 31 31 31 30 30 29 27 26 26 25 26 27 28 31 32 33 33 33 32 32 32 31 31
27 27 29 30 31 32 32 34 35 35 35 35 35 36 35 35 34 34 33 32 31 31 30 30 29 27 26 26 26 26 27 28 30 32 33 34 34 33 33 32 32 32
26 26 27 28 28 30 31 32 33 33 33 33 34 35 35 35 35 35 34 33 32 32 32 31 28 27 26 26 26 26 27 29 31 33 34 34 34 33 33 33 32 32
26 26 26 27 28 29 29 30 31 31 31 32 33 34 34 35 35 34 34 34 33 33 33 31 29 27 27 26 26 26 28 30 32 34 35 35 34 33 33 33 32 32
26 27 28 28 29 30 29 29 29 29 29 29 31 32 33 34 34 34 34 34 34 33 33 32 31 29 28 28 27 27 29 30 32 34 35 36 34 33 32 32 32 32
26 29 30 31 31 31 30 30 29 29 29 29 29 30 31 31 33 34 34 34 33 33 33 33 32 30 29 29 28 28 30 31 32 34 35 35 35 33 33 33 32 32
28 30 31 33 33 32 31 31 31 31 31 30 30 30 29 29 31 33 34 34 33 33 33 33 32 31 30 29 29 29 31 32 33 34 35 35 34 33 33 32 32 31

ECMWFNIL_700_spd_078.txt.gz
Wind_Speed
18 19 22 22 22 22 20 18 16 14 12 11 10 10 9 9 8 7 7 7 7 7 7 7 6 5 4 4 4 4 3 2 1 0 1 1 2 3 4 5 4 4
18 18 20 23 24 24 22 20 18 16 14 13 12 11 11 11 10 9 8 8 8 9 9 9 8 7 6 6 5 5 3 2 2 2 1 1 1 2 3 4 4 3
20 18 19 22 24 24 24 22 20 19 17 16 14 13 13 12 12 11 11 10 9 9 10 10 10 9 9 8 7 6 4 3 4 4 3 2 2 2 3 3 3 3
22 20 18 19 22 24 24 24 23 21 20 18 16 15 15 14 14 14 13 12 10 10 11 11 11 11 11 10 9 7 6 6 5 5 4 3 3 3 3 3 3 3
21 21 20 19 20 23 24 25 24 23 22 20 18 17 17 17 16 16 14 13 12 11 11 11 11 12 12 12 11 9 8 8 7 6 5 5 4 4 3 3 3 3
21 22 22 21 21 22 24 25 24 24 23 22 20 20 19 19 19 18 16 14 14 13 12 12 12 12 12 12 12 11 10 10 9 8 7 7 6 5 5 4 3 3
22 22 23 23 23 23 23 24 25 25 24 23 23 22 21 21 21 20 18 17 16 15 14 13 13 13 13 13 13 12 12 12 11 9 9 8 8 7 6 5 5 4
23 23 23 24 25 25 24 24 25 25 25 25 24 23 23 22 22 21 20 19 18 17 16 15 14 14 14 14 13 13 13 13 12 11 10 10 9 8 7 7 7 6
25 24 24 24 25 25 26 25 25 24 24 25 24 24 24 24 23 23 22 21 20 19 18 17 16 16 15 15 14 13 13 13 12 12 11 11 11 10 10 9 8 8
26 25 25 25 24 25 26 26 26 25 25 24 23 23 24 25 25 25 24 23 21 20 20 19 18 18 17 16 15 14 14 13 13 13 12 12 12 12 12 11 10 9
28 27 26 25 24 24 24 25 27 27 27 26 24 24 24 24 25 25 25 23 21 21 21 20 20 20 20 19 18 16 16 15 15 15 14 13 13 13 13 13 12 11
29 28 27 25 24 24 23 24 26 28 29 28 27 26 26 25 26 26 25 23 22 21 21 21 21 21 21 21 20 20 19 18 18 17 16 16 15 14 15 15 14 13
30 29 28 27 26 24 24 23 24 26 29 30 29 29 28 28 27 27 26 25 23 22 22 21 21 22 23 23 23 23 22 21 21 20 19 18 18 17 16 16 16 15
30 29 29 28 27 27 26 25 24 25 26 28 30 30 30 29 29 28 28 27 26 25 24 23 23 23 23 24 24 24 24 24 24 23 22 21 20 20 19 18 18 17
29 30 30 29 29 29 27 27 26 25 25 26 28 30 30 30 30 30 30 30 29 28 27 26 26 25 24 24 24 24 25 25 25 25 24 23 23 22 21 20 19 18
28 29 30 30 30 30 29 29 28 27 27 27 27 28 28 29 30 30 31 31 31 30 30 29 29 27 26 24 24 24 24 25 25 26 26 25 25 24 23 22 21 20
27 28 29 30 31 30 30 30 30 30 29 28 28 28 28 28 29 30 31 31 31 31 31 31 30 29 27 26 25 24 24 24 25 25 26 26 26 26 25 24 23 22
27 27 29 30 31 31 32 31 31 32 32 31 30 29 28 29 29 30 30 30 30 31 31 31 30 29 28 27 26 25 25 25 25 25 26 27 27 27 26 25 25 25
30 30 31 31 31 31 31 32 33 34 34 33 32 31 31 31 30 30 30 30 30 30 30 29 29 28 27 27 27 26 26 26 26 26 26 27 28 28 27 27 27 27
34 34 34 34 33 32 31 32 33 34 34 34 34 33 33 32 31 31 31 31 31 30 30 29 28 27 27 27 27 27 27 27 27 27 28 28 28 28 28 28 28 29
32 33 34 34 35 35 34 33 34 35 35 35 34 35 34 33 33 33 32 32 31 31 31 30 28 26 26 27 27 27 27 28 29 29 29 29 30 29 29 29 29 30
29 29 31 32 33 36 36 35 35 34 34 33 33 34 34 34 34 34 34 33 32 32 32 31 28 26 26 26 26 27 28 29 30 30 30 30 30 30 30 30 30 30
30 29 31 31 31 34 36 35 34 33 32 31 31 31 32 33 34 34 34 34 33 34 34 32 29 27 26 26 25 26 27 29 30 30 30 31 30 30 30 30 30 30
30 30 32 34 32 33 34 34 34 33 31 30 30 30 30 31 32 32 33 34 34 34 33 33 31 29 28 27 26 26 28 29 29 30 31 31 31 31 31 31 30 30
29 29 33 35 34 33 33 33 33 33 32 31 30 30 30 30 30 31 32 32 33 33 33 32 31 30 29 29 27 27 28 28 29 30 31 31 31 31 31 31 31 30
29 29 32 34 35 34 34 33 33 33 32 31 31 31 31 31 31 31 31 31 31 32 32 32 31 30 29 29 28 28 29 29 30 31 31 30 31 31 31 31 31 30

ECMWFNIL_700_spd_081.txt.gz
Wind_Speed
20 21 21 21 21 20 20 19 17 15 13 12 11 10 10 9 8 8 7 6 6 6 5 4 3 3 2 2 2 2 2 2 3 4 4 4 3 3 4 5 5 4
19 20 21 22 22 22 21 20 18 17 15 13 12 12 11 11 10 9 8 7 6 6 5 5 4 4 3 2 2 2 2 1 2 3 3 3 3 3 3 4 4 4
19 19 20 22 23 23 22 21 20 18 17 15 14 13 13 12 11 11 10 8 7 6 6 6 5 5 4 3 2 2 1 1 1 1 2 2 2 2 2 3 3 3
21 19 18 20 22 24 24 23 22 20 18 17 15 14 14 14 13 12 12 10 9 7 7 7 6 6 5 4 4 3 3 2 1 1 1 1 2 1 2 2 3 3
21 21 19 19 21 24 25 25 24 22 20 18 17 16 15 15 14 14 13 12 11 10 8 8 7 7 7 6 6 5 5 4 3 3 2 2 2 2 1 1 2 3
21 21 22 21 21 22 25 26 25 24 22 21 19 18 17 17 16 15 14 13 13 12 11 9 9 8 8 8 7 7 6 6 5 4 4 4 3 3 2 2 2 2
21 21 22 22 22 22 23 25 26 26 24 23 22 21 20 19 18 17 16 15 14 13 12 12 11 10 9 9 8 8 8 7 7 6 6 6 5 5 4 4 4 4
23 22 22 23 23 23 23 24 25 26 26 25 24 24 23 21 20 19 18 17 16 15 14 14 13 12 11 10 9 9 9 9 9 8 7 7 7 7 6 6 6 6
25 24 23 23 24 24 24 23 24 25 26 26 25 25 24 23 22 21 20 20 19 18 17 16 15 14 13 12 11 10 10 10 10 10 9 8 8 7 7 7 7 8
27 26 25 25 24 24 24 24 24 25 26 26 26 26 25 24 23 23 22 22 21 20 19 18 17 16 15 14 13 12 12 12 12 11 10 9 9 8 8 8 7 8
29 28 27 26 25 24 24 24 25 26 26 26 26 26 26 25 25 25 24 24 23 21 20 20 19 19 18 17 16 15 14 14 13 13 12 11 10 10 9 9 9 9
30 29 28 27 26 25 25 25 26 27 27 27 27 26 26 25 26 26 26 25 24 23 22 22 22 22 21 20 19 19 18 17 16 15 14 13 12 12 11 11 11 11
31 30 29 28 27 27 26 26 26 27 28 28 28 28 27 26 26 25 26 25 25 24 23 23 24 24 24 23 22 22 21 21 19 18 17 15 14 14 14 14 13 13
31 31 30 29 29 28 28 27 27 27 28 29 29 30 29 28 27 26 26 26 25 25 24 24 25 26 26 25 25 25 24 23 22 21 20 19 18 17 17 17 16 16
30 31 31 30 30 30 29 29 28 28 27 28 29 30 31 30 29 29 28 28 27 26 25 25 25 26 26 25 25 25 25 25 24 23 23 22 21 21 20 20 19 18
30 30 30 31 31 31 30 30 30 29 28 28 28 29 30 31 31 31 31 30 30 29 28 28 27 26 25 25 25 25 25 25 25 25 25 24 24 24 23 23 22 22
29 30 30 30 31 31 31 31 31 31 30 29 29 29 29 30 31 32 32 32 32 31 31 31 30 28 26 26 26 25 25 26 26 26 26 26 26 26 26 25 25 24
28 29 30 30 30 31 31 31 31 32 32 31 31 30 30 30 31 31 31 31 32 32 32 33 32 30 28 28 27 27 27 27 27 27 28 28 28 28 27 27 27 27
27 28 29 30 31 31 32 32 33 33 33 33 32 32 31 31 31 30 30 31 31 31 31 32 32 30 30 29 29 28 28 28 29 29 29 29 29 29 28 28 28 28
28 28 29 29 30 32 33 33 34 34 34 33 33 33 33 33 31 31 31 30 30 30 30 30 30 29 29 29 29 29 29 29 30 30 30 30 30 30 29 29 28 28
30 29 29 30 30 32 33 34 34 35 35 35 35 35 34 33 33 33 32 31 31 30 29 29 28 26 26 27 27 28 28 29 30 30 30 31 31 31 30 30 29 28
31 30 30 30 30 31 32 32 34 35 35 35 36 36 36 35 34 33 32 31 31 30 30 29 27 26 26 25 25 26 27 29 30 30 30 31 31 31 31 30 29 29
31 31 31 30 30 31 30 30 31 33 35 36 36 36 37 36 35 34 32 32 32 31 31 30 28 26 26 26 25 25 27 28 28 29 30 30 30 30 30 31 30 29
29 32 33 31 30 30 30 30 29 29 31 35 37 37 36 35 35 34 33 33 33 33 32 31 29 28 28 27 27 27 28 28 28 29 29 29 29 29 30 30 30 29
28 30 33 33 32 31 31 32 31 29 30 33 34 36 36 36 34 33 33 33 33 33 32 32 30 29 29 29 28 28 29 28 28 29 30 29 29 29 29 30 30 29
29 30 32 33 33 32 32 33 34 33 34 33 32 34 36 36 34 34 33 34 33 33 32 31 30 28 28 29 29 29 30 30 30 30 29 28 28 29 29 30 30 29

ECMWFNIL_700_spd_084.txt.gz
Wind_Speed
22 21 21 20 19 18 17 16 15 15 14 14 13 13 12 12 11 11 11 11 10 9 9 8 8 7 6 5 5 5 5 4 4 5 6 7 7 6 6 7 8 8
22 22 22 21 20 19 18 17 17 16 15 15 15 14 14 13 12 12 11 11 11 10 9 9 8 8 7 6 5 5 5 5 4 5 5 6 7 6 6 6 6 7
21 22 23 22 21 20 20 20 19 17 17 16 16 15 15 14 13 13 12 12 11 11 10 10 9 9 8 7 6 6 5 5 5 5 5 5 6 6 6 6 5 6
21 21 22 23 22 22 22 22 21 19 18 17 17 16 16 15 15 14 13 13 12 12 11 11 11 10 9 8 7 7 6 5 5 5 4 4 5 6 6 6 6 6
21 21 21 23 24 24 24 23 22 21 20 19 18 18 17 17 16 15 14 13 13 12 12 12 12 11 10 9 9 8 7 6 5 5 5 4 5 5 6 6 6 6
23 22 22 22 23 24 25 24 23 23 22 21 20 19 18 18 18 17 16 15 14 13 13 12 12 12 11 11 10 9 8 7 7 6 6 6 5 5 6 6 6 6
23 23 23 22 23 24 25 25 25 25 24 23 22 21 20 19 18 18 17 16 16 15 14 13 13 13 12 12 11 10 10 9 8 8 7 7 7 7 7 6 6 6
23 23 24 24 23 23 24 26 27 26 26 25 24 23 22 20 19 19 19 18 17 17 16 15 14 13 13 13 12 12 11 10 10 10 9 9 8 8 8 8 7 7
24 24 24 24 24 24 24 24 26 27 27 27 26 25 24 23 22 21 20 19 18 17 17 16 15 14 14 14 14 14 13 12 12 11 11 10 10 10 10 9 9 9
26 25 25 24 24 24 24 24 24 25 27 28 28 27 27 25 24 23 22 21 20 18 17 17 16 16 15 15 15 15 15 14 13 13 12 12 12 12 12 11 11 10
28 27 26 25 24 23 23 23 23 24 25 27 28 28 28 27 26 26 25 23 22 21 19 19 18 18 17 17 17 17 16 16 15 14 14 13 13 13 13 13 12 12
29 29 28 26 25 24 23 23 24 24 24 25 26 28 28 28 27 27 26 24 23 23 22 21 21 20 20 19 19 19 18 18 17 16 16 15 15 15 15 14 14 14
29 29 29 28 27 26 25 24 24 25 25 24 26 27 28 28 28 28 27 25 24 24 24 23 23 23 23 22 21 21 21 21 20 19 18 18 17 17 17 16 16 15
30 29 29 29 29 28 27 26 26 25 25 25 26 27 28 28 28 28 28 27 26 26 26 26 25 25 25 24 24 24 23 23 23 22 21 21 20 19 19 19 18 17
31 31 30 30 30 30 29 28 28 27 27 27 27 27 28 28 28 28 28 28 28 27 27 27 27 27 27 27 26 26 25 25 25 25 24 24 23 23 22 22 21 20
32 32 32 31 30 30 30 29 29 29 29 28 28 28 28 29 30 30 29 29 28 28 28 28 28 28 27 27 26 26 26 26 27 27 27 27 26 26 25 25 23 22
32 32 32 31 31 30 30 29 29 30 30 30 29 29 29 29 30 31 32 31 30 30 30 29 29 28 27 26 25 26 26 27 28 28 28 29 29 29 28 27 27 26
34 33 33 32 32 31 30 30 30 30 31 31 30 30 30 30 30 31 32 33 33 33 32 32 31 30 28 26 25 26 26 27 28 28 29 30 30 31 30 30 29 29
35 35 35 33 33 32 32 32 31 31 32 31 31 31 32 32 31 31 32 32 33 34 34 34 33 32 31 29 28 28 28 29 29 29 30 30 30 31 31 30 30 30
35 36 37 36 35 34 34 34 33 32 32 31 31 32 33 33 32 33 33 33 33 34 34 34 34 34 33 31 31 31 31 31 32 32 32 32 31 31 31 30 30 31
34 35 37 37 37 36 36 35 34 33 33 32 32 33 34 33 33 34 34 34 34 33 34 34 33 33 32 31 30 30 31 32 34 34 35 34 33 32 31 31 30 31
35 35 35 36 37 37 36 36 35 35 34 34 35 36 35 34 34 35 35 35 34 34 34 34 33 32 31 30 29 29 30 32 33 34 35 35 34 33 32 31 31 31
34 35 35 35 37 38 38 37 36 36 36 37 37 37 37 36 35 35 36 36 35 35 35 35 33 32 32 31 30 30 31 32 33 33 34 34 33 33 32 32 32 32
30 32 35 36 37 38 39 38 38 38 38 38 38 38 38 37 37 37 37 37 36 36 35 34 33 33 33 32 32 32 33 34 34 34 34 33 32 32 32 32 32 31
29 29 31 34 36 37 37 37 37 37 38 38 38 38 38 38 38 39 38 37 37 37 36 35 34 33 33 33 33 33 34 34 35 35 35 33 32 32 31 32 32 31
33 32 30 30 31 32 34 35 35 36 36 37 38 38 38 38 38 39 38 37 37 38 38 37 36 35 35 34 33 34 34 35 36 36 35 34 33 32 32 32 32 31

ECMWFNIL_700_spd_087.txt.gz
Wind_Speed
23 22 21 20 19 18 17 16 14 13 13 12 12 12 12 12 11 11 10 9 9 8 7 7 6 6 5 6 6 6 5 5 5 5 6 6 7 8 8 8 8 8
23 23 22 21 20 19 18 17 15 15 14 13 13 13 13 13 12 12 11 10 10 9 8 8 7 6 6 6 6 6 5 5 5 6 6 7 7 7 8 8 8 8
22 23 23 22 21 19 18 18 17 16 15 15 14 13 13 13 13 12 12 11 11 10 10 9 8 7 6 5 5 5 5 5 5 5 6 6 6 7 8 9 9 9
21 22 23 22 22 20 20 19 18 17 16 16 15 15 14 13 13 13 12 12 11 11 11 10 9 8 7 6 5 5 5 5 5 4 5 6 7 6 7 7 8 9
20 20 21 22 23 22 21 21 20 18 18 17 16 16 15 14 14 13 13 12 12 11 11 11 10 10 9 8 7 6 6 5 5 5 6 6 6 6 7 7 6 7
20 20 21 22 23 22 22 21 21 20 19 19 18 17 17 16 15 14 14 13 13 12 11 11 11 11 11 10 9 8 8 7 6 6 6 6 5 6 7 7 6 7
21 21 21 21 22 22 22 22 22 21 21 21 20 19 18 17 16 16 15 14 14 13 12 12 12 12 12 11 11 10 9 9 9 7 6 6 6 6 6 6 6 7
21 22 22 21 21 21 22 23 23 23 23 22 22 21 20 19 18 17 17 16 16 15 14 13 12 12 12 12 12 12 11 10 10 9 8 8 8 7 6 6 7 7
22 22 22 22 22 21 20 21 22 23 24 24 23 22 21 21 19 18 18 17 17 16 15 14 13 13 12 12 12 12 12 12 11 11 10 10 9 9 9 8 8 8
22 22 22 23 23 22 21 20 20 21 23 24 23 23 23 23 22 21 20 18 18 17 16 15 14 14 13 13 13 13 13 13 13 13 12 11 11 11 10 10 9 10
24 23 22 23 23 23 22 20 20 21 22 22 23 24 25 24 24 23 22 21 19 18 17 16 16 15 15 15 14 14 14 14 14 14 13 13 13 12 12 11 11 11
25 24 23 23 23 23 22 21 22 22 21 21 22 24 25 25 25 25 24 23 22 20 20 19 18 18 17 17 16 15 16 16 15 15 15 15 14 14 13 13 13 13
26 26 25 24 24 23 23 22 22 23 22 22 22 22 24 25 26 27 26 25 24 23 23 22 21 21 20 19 19 18 18 17 17 17 16 16 16 15 15 14 14 13
27 27 27 27 26 25 25 24 24 23 23 23 23 22 23 23 25 27 26 25 25 25 25 25 24 23 22 21 21 21 21 20 19 19 19 18 18 17 17 16 15 15
29 29 29 29 29 28 28 26 25 24 24 25 24 23 23 24 24 26 26 25 25 25 26 26 26 25 24 24 23 22 22 21 21 21 21 21 21 20 20 19 18 18
32 32 32 32 31 31 31 29 28 26 25 26 25 24 24 24 24 24 25 25 25 25 25 26 26 27 26 25 24 23 23 23 23 23 23 23 23 23 22 22 22 21
34 34 35 35 33 33 33 32 31 30 29 28 27 27 26 25 25 24 24 25 25 25 25 25 25 26 27 26 24 24 24 24 25 25 25 25 25 24 24 24 24 25
37 37 38 37 35 34 34 34 33 33 33 31 30 29 28 27 27 27 27 26 26 25 26 26 25 26 26 24 23 22 23 24 25 26 26 26 25 25 25 25 26 26
38 40 41 40 38 37 36 35 35 35 35 34 32 31 31 30 29 29 29 28 28 27 27 27 27 26 26 24 22 21 22 24 25 26 26 26 26 25 25 25 25 25
35 38 41 43 42 41 39 38 38 37 36 35 34 33 33 32 31 30 30 30 29 29 29 28 28 27 27 26 23 22 23 24 26 27 27 28 28 27 27 26 26 25
33 33 36 40 41 41 42 42 40 39 38 36 35 35 34 32 31 31 30 30 29 29 29 28 27 27 29 28 25 24 25 26 28 29 30 31 31 30 30 29 28 27
33 31 30 32 34 34 38 40 39 39 40 38 36 35 34 33 32 32 32 31 29 29 29 28 27 27 28 27 25 24 25 27 29 30 32 33 32 32 31 30 30 30
34 33 31 31 32 32 34 36 36 36 37 39 39 38 35 34 33 33 33 32 32 31 30 29 28 28 28 26 25 24 25 26 28 30 31 32 32 31 31 31 31 30
36 35 32 31 33 35 35 36 36 36 37 38 39 39 38 36 35 34 33 33 33 32 31 31 30 30 29 28 27 26 26 26 27 29 31 31 31 31 31 31 30 30
37 36 34 32 33 35 36 37 37 38 39 39 39 39 40 39 37 36 34 34 33 33 32 31 31 31 30 30 29 29 28 28 29 31 32 32 32 31 31 30 30 30
38 38 37 36 36 36 37 36 35 37 39 40 39 39 40 39 38 37 36 35 34 33 32 32 31 31 30 31 31 30 30 31 33 34 34 33 32 32 32 31 31 30

ECMWFNIL_700_spd_090.txt.gz
Wind_Speed
24 22 21 19 18 17 16 15 15 14 13 13 13 12 12 11 11 10 10 9 9 8 8 7 6 6 6 6 5 5 6 6 7 7 7 8 9 9 9 9 10 10
24 24 22 21 20 18 17 16 15 15 14 14 13 13 13 12 12 11 10 10 10 9 8 7 6 6 6 6 5 5 5 5 6 7 7 7 8 8 9 9 10 9
23 24 24 22 21 19 18 17 17 16 15 14 14 13 13 13 12 12 11 10 10 10 9 8 7 6 6 5 5 5 6 5 5 6 7 7 7 8 8 9 9 9
22 23 24 23 22 21 20 19 18 18 17 16 15 14 13 13 13 13 12 11 10 10 9 8 7 7 6 5 5 5 6 6 6 5 6 8 8 8 8 8 8 8
20 21 23 24 24 23 22 21 20 19 18 17 17 16 15 14 13 13 13 12 11 10 9 9 8 7 7 6 6 6 6 6 5 4 5 7 8 8 8 8 8 8
20 20 22 24 25 25 23 22 20 20 19 18 18 18 17 15 14 13 13 13 12 11 10 10 9 9 8 7 7 7 7 6 5 5 5 6 7 7 7 7 7 8
21 21 21 22 24 25 25 23 22 21 21 20 20 19 19 17 16 14 14 13 13 12 11 10 10 10 9 9 8 8 8 7 7 6 5 5 6 6 6 6 7 7
21 22 21 21 23 24 25 25 24 23 22 22 21 21 20 18 18 16 15 15 13 12 12 11 11 10 10 10 9 9 9 8 8 8 7 7 7 6 6 6 6 7
20 22 23 22 22 23 24 25 25 24 24 23 23 21 21 20 19 18 17 16 14 13 13 12 12 11 11 10 10 10 10 9 9 9 9 9 8 8 8 7 6 7
22 22 23 24 24 23 22 23 25 26 25 25 24 23 22 22 21 20 18 17 16 15 14 13 13 12 11 11 11 11 11 11 11 10 10 10 10 9 9 8 8 8
25 24 23 24 25 24 23 22 22 24 25 26 26 25 24 23 22 21 20 19 17 16 15 15 14 14 13 12 12 12 12 12 12 12 11 11 11 10 10 9 9 9
28 27 25 24 25 24 24 22 21 21 22 23 24 25 26 25 23 23 22 20 19 17 16 16 16 16 15 14 14 14 14 14 14 13 12 12 12 11 11 11 11 11
31 30 28 26 25 25 24 23 22 22 21 21 21 22 25 25 25 25 23 22 21 20 19 18 18 18 17 17 16 16 15 15 15 14 13 13 13 12 12 12 12 13
33 36 36 31 27 26 26 24 24 24 23 22 20 21 22 23 24 25 25 24 23 22 22 21 21 20 20 19 18 18 17 17 16 16 15 14 14 14 14 13 13 13
33 37 39 36 32 30 28 26 24 24 25 24 22 21 21 21 22 23 24 25 25 24 24 24 24 23 23 22 20 20 19 18 17 17 17 16 16 16 16 15 15 14
30 33 36 35 34 34 33 30 26 23 24 24 23 22 21 21 21 22 23 24 23 24 25 26 26 25 24 24 23 22 21 21 20 19 18 18 18 18 17 17 17 16
28 29 31 33 34 34 34 34 31 27 24 24 24 24 23 22 21 22 23 24 24 22 22 25 26 26 24 24 24 24 24 23 23 22 21 20 20 20 19 18 18 17
29 28 28 29 31 30 29 28 30 32 29 26 26 26 25 23 22 22 22 24 25 25 23 22 23 25 25 24 23 24 25 25 25 25 24 23 22 22 21 19 19 19
31 30 29 28 28 27 26 26 26 27 27 27 27 27 26 25 24 24 24 23 25 26 26 24 22 22 24 23 21 20 22 24 25 25 25 25 24 23 22 21 20 20
32 32 31 30 29 27 26 26 26 27 25 26 27 27 27 27 26 26 26 26 26 27 28 28 25 23 23 23 21 19 19 21 23 24 25 25 24 23 22 22 21 21
32 32 31 31 30 28 24 24 27 29 27 27 28 30 30 28 27 27 27 27 28 28 29 30 29 27 26 25 22 20 20 21 22 23 24 24 24 24 24 23 22 21
31 31 31 31 32 31 25 22 23 27 29 31 31 32 32 31 30 30 30 29 29 29 30 32 31 30 30 29 25 23 22 23 24 25 26 26 26 26 26 25 24 23
32 32 31 32 32 33 31 25 21 23 28 32 33 33 33 33 33 33 33 33 32 31 31 32 33 32 32 32 29 26 24 24 25 26 27 28 28 28 27 27 26 25
31 32 33 33 32 31 32 30 26 23 25 29 32 33 34 33 33 34 33 34 34 33 33 33 33 33 33 34 33 30 28 26 25 26 26 27 27 28 27 27 27 26
28 30 32 34 33 33 33 33 31 27 24 24 27 30 32 32 33 33 34 34 35 34 34 35 34 33 33 34 34 33 31 30 29 28 28 27 27 28 28 28 28 27
24 28 30 32 34 35 35 35 35 33 30 28 27 29 32 33 34 34 34 34 35 35 35 36 36 35 35 34 34 34 33 33 33 32 31 30 30 30 30 30 29 28

ECMWFNIL_700_spd_093.txt.gz
Wind_Speed
18 17 16 15 14 12 11 11 11 10 10 10 10 11 10 10 10 10 10 10 10 10 10 9 8 7 7 7 7 7 7 8 8 9 10 11 12 13 13 14 14 13
19 18 18 17 15 13 12 11 11 10 10 10 10 11 11 10 10 10 10 10 10 9 9 8 8 7 6 6 6 6 7 7 8 9 9 10 11 12 12 13 13 13
18 19 19 17 16 14 13 12 12 11 11 11 11 11 11 10 10 9 9 10 9 9 9 8 8 7 6 6 6 6 6 6 7 8 9 9 9 10 10 11 12 12
16 18 18 18 17 15 14 13 12 12 12 11 11 11 11 10 10 10 10 9 9 9 9 8 8 7 6 6 6 6 6 5 6 7 8 8 8 9 9 9 10 10
14 16 17 18 18 17 16 15 13 13 12 12 12 11 11 10 10 10 10 9 9 9 9 9 8 7 7 7 6 6 6 6 6 7 7 7 8 8 8 8 9 9
13 14 15 17 18 18 18 16 15 14 14 13 13 13 12 10 10 10 10 10 10 10 10 10 9 8 8 7 7 7 7 6 6 6 6 7 8 8 7 8 9 9
14 14 14 15 17 18 19 18 17 16 15 15 14 14 13 12 11 10 10 10 11 11 11 10 10 10 9 8 7 7 7 7 7 7 6 6 7 7 7 8 8 8
17 16 15 15 15 16 17 19 19 17 17 16 16 15 15 14 13 12 11 11 11 11 11 11 11 10 10 9 9 8 8 8 8 8 7 6 6 6 7 7 7 8
19 19 19 18 17 15 15 17 19 19 18 18 17 16 16 15 14 14 13 13 12 12 12 11 11 11 10 10 10 10 9 10 10 9 9 8 8 8 8 8 7 7
19 19 19 19 19 17 15 14 16 18 19 19 18 18 17 17 16 16 15 15 14 13 12 12 11 11 11 11 10 11 10 11 11 11 10 10 9 10 10 9 9 8
22 20 18 18 19 18 17 16 15 16 17 18 20 19 19 19 18 18 18 17 15 14 14 13 13 13 13 12 11 11 11 12 12 12 12 11 11 11 11 10 10 10
26 25 22 19 18 18 18 18 18 17 16 17 18 19 20 21 20 20 20 19 17 16 16 15 15 15 15 14 14 13 13 13 13 13 13 13 12 12 12 12 12 12
29 29 24 20 18 18 18 18 18 18 17 17 17 18 19 21 21 21 21 21 19 19 18 17 17 17 17 17 17 16 15 15 15 15 14 14 14 13 13 13 13 13
26 27 23 21 21 21 21 20 19 17 17 16 16 16 16 18 20 21 21 22 22 21 21 20 20 19 19 19 19 18 18 17 17 16 15 15 15 15 15 15 14 14
24 23 21 20 21 23 23 23 22 20 19 18 16 16 16 17 19 20 20 21 22 23 23 23 23 22 21 21 20 20 20 19 19 18 18 17 17 16 17 17 16 16
23 22 20 18 20 22 24 25 24 23 23 22 20 19 17 18 19 20 21 20 20 21 23 24 25 24 23 23 22 22 22 22 22 21 21 20 20 19 19 19 18 18
22 21 20 19 19 21 24 25 26 26 25 25 25 23 19 18 19 20 21 21 19 19 21 23 24 24 24 24 24 24 24 24 24 24 24 23 22 22 21 21 20 20
20 21 19 19 19 20 21 23 25 26 26 25 26 25 22 20 20 20 20 21 22 20 19 20 20 21 23 24 24 24 24 25 25 25 26 26 25 24 23 23 22 22
20 20 19 19 18 18 18 20 22 23 23 24 26 26 25 24 23 22 20 20 22 23 22 20 19 18 20 22 22 22 22 23 24 25 26 27 26 26 25 24 24 24
20 21 20 19 19 18 16 15 17 19 20 22 24 26 27 27 27 27 24 22 22 23 24 24 22 19 19 19 20 20 20 21 22 23 24 25 26 26 26 25 24 24
21 21 22 22 21 21 18 13 12 14 17 21 23 24 25 27 29 30 29 27 26 25 25 26 25 23 22 20 20 20 20 20 22 23 23 24 25 25 26 25 23 23
22 22 23 23 23 23 23 20 16 13 14 18 21 23 24 26 28 31 32 32 31 30 28 26 26 26 26 25 22 21 21 21 22 23 24 24 24 25 26 25 24 24
24 24 24 25 25 25 26 25 24 21 19 18 19 21 24 26 28 31 32 34 34 33 32 29 27 25 25 27 28 27 26 25 25 25 25 25 24 24 26 27 27 27
25 26 27 27 27 27 27 27 27 27 26 25 23 22 22 23 26 29 32 33 33 34 34 33 31 28 27 28 30 31 31 31 31 31 29 27 26 25 25 26 27 28
23 24 26 27 27 27 27 28 28 29 29 30 29 27 26 25 26 28 30 31 32 32 34 35 35 32 30 30 31 34 35 34 34 34 33 32 30 28 27 27 27 28
19 21 23 25 26 27 28 29 30 31 31 31 32 32 31 30 29 28 28 29 30 30 32 35 35 35 34 33 34 35 35 35 35 35 34 34 34 32 31 30 29 29

ECMWFNIL_700_spd_096.txt.gz
Wind_Speed
17 15 14 13 13 13 12 12 11 9 8 8 8 9 9 8 8 8 8 8 8 7 8 8 7 7 6 6 6 7 7 7 8 9 10 11 11 11 12 11 11 12
19 17 16 15 14 13 12 12 11 11 9 9 9 9 9 9 8 8 8 8 8 8 8 8 7 7 6 6 7 7 7 7 8 8 8 10 11 12 12 12 11 11
20 19 18 16 14 13 12 12 11 11 10 9 9 9 9 9 8 8 8 9 9 9 9 8 7 7 6 7 7 6 7 7 8 8 8 9 10 11 12 11 11 11
20 20 19 17 16 15 14 13 12 11 11 10 9 9 9 9 9 8 8 9 9 9 9 8 7 7 7 7 7 6 6 7 7 7 8 8 9 10 10 11 11 12
19 19 19 19 18 17 15 14 13 12 11 10 10 9 9 9 9 9 9 9 9 9 9 8 8 8 7 7 7 6 6 6 6 7 7 8 8 9 9 10 11 12
18 18 19 20 20 19 18 16 15 14 12 11 11 10 10 9 9 9 9 9 9 9 9 8 8 8 7 7 7 6 6 6 6 6 7 7 8 8 8 9 10 11
18 18 19 19 20 20 19 18 17 16 14 13 12 11 11 10 9 9 9 9 10 10 9 9 8 9 8 8 7 6 6 6 6 6 6 6 7 8 8 9 9 10
19 18 19 19 20 20 21 20 19 18 16 15 14 13 12 11 10 10 10 10 10 10 11 10 9 9 9 9 9 8 7 7 6 7 6 6 7 7 8 9 9 9
21 20 20 20 21 20 20 21 20 20 19 17 16 14 14 12 11 12 11 11 11 10 11 11 10 10 10 10 10 9 9 8 8 8 8 7 7 7 8 9 9 9
22 22 21 21 21 20 20 20 20 21 21 19 18 17 16 14 13 13 13 13 12 11 11 11 11 11 11 11 11 11 11 10 10 10 10 9 8 9 9 10 9 9
24 23 22 21 21 21 21 21 20 21 21 21 21 20 18 17 16 15 15 14 13 13 12 12 12 12 12 12 11 12 12 11 11 11 11 11 10 10 11 11 11 10
25 24 23 22 21 20 20 20 21 22 22 23 23 22 21 20 19 18 17 16 15 14 14 13 13 13 13 13 13 13 13 12 12 12 12 12 12 11 12 12 12 11
24 24 24 23 21 20 19 19 20 20 21 22 22 23 23 22 21 20 19 18 17 16 15 15 15 14 14 14 14 14 14 14 14 13 13 13 12 13 13 13 13 13
23 24 25 24 21 20 20 19 19 19 19 20 21 22 22 22 22 22 21 20 19 18 17 17 17 17 16 15 15 15 15 15 14 14 14 13 13 13 14 14 14 14
23 23 24 24 24 23 22 21 21 20 20 19 19 19 20 20 21 21 21 21 21 20 20 20 20 19 18 17 17 16 16 16 15 15 15 15 14 14 14 15 15 15
23 22 22 24 25 26 25 24 23 22 21 20 18 18 18 19 20 20 20 20 20 20 20 21 22 21 20 19 19 18 18 18 17 17 17 17 17 16 16 16 16 16
22 23 23 22 23 24 26 26 26 26 24 21 20 19 18 18 19 20 20 19 18 19 20 21 22 22 22 21 21 21 21 20 20 19 19 19 19 19 18 18 18 18
21 22 23 23 23 23 25 26 28 29 28 25 22 21 20 20 20 20 20 21 20 19 19 20 20 20 21 22 22 23 23 23 22 22 22 22 21 21 20 19 20 20
18 19 21 22 22 23 24 25 27 28 28 27 25 23 23 23 23 22 22 22 22 21 20 19 19 19 20 21 22 23 24 24 25 24 24 24 23 23 21 20 20 20
16 18 20 21 22 22 22 21 23 24 25 26 27 26 26 26 25 25 25 24 23 22 20 19 18 18 19 19 20 21 22 24 25 24 24 24 24 24 23 22 21 20
15 18 20 21 22 21 20 19 20 20 21 22 24 26 27 27 27 27 26 26 25 23 21 20 18 18 18 19 19 20 21 23 24 24 24 23 23 23 24 23 22 21
17 20 21 22 22 22 21 20 20 19 18 19 21 23 25 26 26 26 25 26 26 26 25 24 23 22 21 21 21 21 21 22 23 24 24 24 23 23 23 23 23 23
23 24 24 23 23 23 23 23 23 22 21 20 21 23 24 25 25 24 24 24 25 26 27 27 27 27 25 24 23 22 22 22 23 23 24 24 23 23 23 23 23 23
23 25 26 25 24 23 24 24 24 24 25 24 24 24 25 25 25 25 24 25 26 27 29 29 30 30 28 26 25 24 24 24 24 24 24 23 23 23 23 23 23 24
17 19 22 23 24 24 24 24 24 25 27 28 27 27 27 27 26 26 27 28 29 30 31 32 32 32 30 28 27 27 27 27 27 27 26 25 25 25 24 24 24 24
13 15 17 19 21 22 24 25 25 26 28 28 29 29 30 30 30 29 29 30 30 30 30 30 31 31 31 31 31 31 30 30 30 30 30 29 29 29 28 27 26 25

ECMWFNIL_700_spd_099.txt.gz
Wind_Speed
18 16 15 15 14 13 13 12 11 9 9 8 8 8 9 8 7 7 8 8 9 9 8 8 8 7 7 7 7 8 7 7 8 8 9 10 10 10 10 10 10 9
19 18 17 16 15 14 13 13 12 10 9 9 9 9 9 8 7 7 7 8 8 8 8 8 7 7 6 6 7 7 7 7 7 8 8 10 10 10 10 10 10 9
20 19 18 16 15 14 13 14 12 11 11 10 9 9 9 8 8 8 7 7 8 7 7 7 7 7 6 5 6 6 6 6 7 7 8 8 9 10 11 10 10 9
21 20 19 17 16 15 15 14 13 12 12 10 9 9 9 9 9 8 8 8 7 7 7 7 7 6 6 5 5 5 5 5 6 6 7 7 8 9 10 10 10 10
20 20 20 19 18 18 17 16 14 13 13 11 10 9 9 10 10 9 9 8 7 7 7 6 6 6 6 6 5 5 5 5 5 5 6 7 8 8 9 9 10 10
20 21 21 21 20 19 18 17 16 14 13 12 12 10 10 10 10 10 10 9 8 8 7 7 6 6 5 5 5 5 5 5 5 5 5 6 7 8 8 9 9 10
21 21 21 22 22 22 20 19 18 16 15 14 13 12 11 10 10 10 10 10 9 9 8 8 7 7 6 5 5 5 5 5 5 5 5 5 6 7 8 8 9 9
21 21 22 22 23 23 22 21 20 18 17 16 15 13 13 12 11 11 11 11 11 10 10 9 9 8 7 6 6 6 6 6 6 6 6 5 5 7 8 9 9 9
23 23 23 23 24 24 24 23 22 21 20 18 17 15 15 14 13 12 12 12 12 12 11 11 10 9 8 8 7 7 8 8 7 7 7 6 6 6 8 8 9 9
25 24 24 24 24 24 24 24 23 22 21 20 19 18 17 16 15 15 15 14 13 12 12 12 11 11 10 9 8 9 9 9 9 8 8 8 7 7 8 8 8 8
26 26 25 24 23 23 24 24 25 24 24 23 21 20 19 18 17 17 16 16 15 14 13 12 12 12 11 10 10 10 9 9 9 9 9 9 9 9 9 9 9 9
27 27 26 24 23 22 22 23 25 26 25 25 24 23 22 20 19 19 18 17 16 16 15 14 14 14 13 12 11 11 10 10 10 10 10 10 10 10 10 10 10 10
28 28 27 25 24 23 22 22 23 24 24 25 25 25 24 23 21 20 19 19 18 18 17 16 16 16 15 14 13 13 12 12 11 11 11 11 11 11 11 11 11 11
31 30 29 28 26 25 24 24 23 22 22 23 24 25 26 25 23 22 21 20 20 20 19 18 18 17 17 16 15 15 14 13 13 13 12 12 12 12 12 12 12 12
32 32 31 31 30 28 27 26 25 24 23 22 22 23 24 25 25 24 23 22 22 21 21 20 20 19 18 17 17 16 16 15 15 15 14 14 13 13 13 13 13 13
29 31 32 32 31 30 29 28 27 25 24 23 22 22 22 23 24 24 24 23 22 22 22 22 22 21 20 19 18 18 17 17 17 16 16 16 16 15 15 14 14 14
30 32 33 33 32 30 30 30 29 27 25 24 23 22 21 22 22 22 22 21 21 21 22 23 23 23 22 22 21 20 20 20 19 19 19 19 19 18 18 17 17 17
33 34 33 32 31 31 31 32 30 29 27 25 24 23 23 23 22 22 21 20 19 19 20 21 22 22 23 24 24 23 23 22 22 22 22 22 22 22 21 20 20 20
31 32 31 29 28 28 30 32 32 30 28 27 26 25 25 25 25 24 23 22 21 19 19 20 19 20 21 23 25 25 24 24 24 23 24 24 24 24 24 23 23 22
26 28 28 28 27 27 28 31 32 30 29 29 29 28 28 27 27 26 26 25 24 22 21 20 20 20 21 22 23 24 24 24 24 24 24 24 24 24 24 24 23 23
23 25 27 28 28 28 29 31 30 28 27 28 29 30 30 30 29 29 28 28 27 25 23 22 21 20 21 21 22 23 23 24 24 23 23 23 22 22 21 21 21 21
18 20 23 25 27 27 28 27 25 23 24 25 27 29 30 31 32 31 31 31 29 27 26 24 23 22 21 21 22 22 23 23 23 23 23 22 21 20 20 19 19 20
14 15 17 20 22 22 22 21 20 22 23 24 27 29 30 31 32 33 33 33 31 29 27 26 25 24 23 23 23 22 22 22 22 23 23 22 22 21 21 21 21 21
16 16 17 18 19 18 17 17 18 21 23 24 25 26 27 29 30 30 32 33 32 30 29 27 27 27 27 27 26 26 25 25 25 24 24 24 23 23 23 23 23 24
19 20 20 20 19 17 17 17 17 19 22 23 23 23 24 25 25 26 28 30 31 30 30 28 27 28 28 28 28 28 29 28 28 28 27 26 25 25 25 25 24 24
18 20 21 22 22 21 20 21 21 21 23 25 26 26 26 25 24 24 24 25 27 29 29 28 28 28 29 29 29 29 29 30 30 30 29 29 29 29 28 28 26 25

ECMWFNIL_700_spd_102.txt.gz
Wind_Speed
17 15 14 12 12 12 12 12 11 10 9 9 9 9 9 8 7 7 7 8 8 8 8 8 8 8 8 7 7 7 7 8 8 9 10 10 10 10 10 10 9 8
18 17 15 14 14 14 14 14 13 12 11 11 10 10 10 9 7 7 7 7 7 7 7 7 8 8 7 7 7 7 7 7 8 8 9 10 10 10 11 10 10 9
19 18 17 16 15 15 15 15 15 14 13 12 11 11 10 9 8 8 7 7 7 6 6 7 7 7 7 7 7 7 8 8 8 7 8 9 10 11 11 11 11 10
20 19 18 17 17 17 16 16 15 15 14 12 12 11 11 10 10 9 8 8 7 7 7 7 7 7 7 7 7 7 7 7 7 7 8 8 9 10 11 11 11 11
20 20 19 19 18 18 17 16 15 15 14 13 13 12 11 11 11 11 10 9 8 8 8 7 7 7 6 7 7 7 7 6 7 7 8 8 9 10 10 11 11 11
21 21 21 21 20 20 18 17 16 16 15 14 14 13 12 12 12 12 11 10 10 9 9 9 8 8 7 6 6 6 6 6 6 6 7 8 9 9 9 9 10 10
21 21 22 22 22 21 20 18 18 17 16 15 15 14 13 13 13 13 13 12 12 11 11 10 10 9 8 7 7 7 7 6 6 6 6 6 7 8 9 9 9 9
21 21 22 22 23 23 21 20 19 18 17 16 15 15 14 13 13 14 14 14 14 13 13 12 11 11 10 9 8 7 7 6 6 5 5 5 5 6 8 8 8 8
22 22 22 23 23 23 23 21 20 20 19 17 16 16 15 15 14 15 15 15 15 14 14 13 13 12 11 10 10 9 8 7 7 6 5 5 5 5 6 6 7 7
23 23 23 23 23 23 23 23 22 21 20 19 19 18 17 16 15 15 15 15 15 15 14 14 14 14 13 12 11 11 10 9 8 7 6 6 6 6 5 5 6 6
25 25 24 24 23 23 23 23 24 23 23 22 21 20 19 18 17 16 16 15 15 15 15 14 14 14 14 14 13 12 11 11 10 9 8 8 8 7 7 6 6 7
27 26 25 25 24 24 23 23 24 24 24 24 23 22 21 19 18 17 16 16 16 16 16 15 15 15 15 15 14 14 13 12 11 11 10 9 9 9 9 8 8 8
29 28 27 26 25 25 24 24 24 25 25 25 25 25 24 22 21 19 18 18 17 18 17 17 16 16 15 15 15 14 14 13 13 12 11 11 10 10 9 9 9 10
30 29 28 27 26 26 25 24 24 24 25 26 26 26 25 24 23 22 21 20 19 19 19 19 19 18 17 16 15 15 15 14 14 14 13 12 12 11 11 10 10 11
31 30 29 28 27 26 26 25 24 24 24 25 26 27 26 25 25 24 24 23 21 20 20 21 20 19 18 18 17 17 17 16 16 16 15 15 14 13 13 12 12 12
31 29 29 29 27 27 27 26 26 25 25 26 26 27 27 27 26 26 25 25 23 23 22 22 22 21 20 19 19 18 18 19 18 18 17 17 17 16 15 15 14 14
30 29 30 30 28 27 27 27 27 27 27 27 27 27 28 28 28 27 26 26 25 25 24 24 23 23 22 21 21 20 20 21 21 20 20 19 19 18 17 17 17 17
31 30 32 32 31 29 29 29 29 29 29 28 28 28 28 28 28 27 27 27 27 26 26 26 25 24 24 24 23 23 22 23 23 23 23 22 21 21 20 20 20 20
32 34 35 34 33 32 32 32 31 31 30 29 29 29 29 28 27 26 26 26 26 26 26 26 26 25 26 26 26 25 24 25 24 24 25 25 24 24 23 22 22 22
27 33 36 35 33 33 34 33 32 31 32 32 31 31 29 28 28 27 27 27 26 26 25 25 25 25 25 26 26 25 25 25 25 25 26 26 26 26 25 25 24 24
16 22 28 31 33 34 35 33 31 31 31 33 34 33 32 30 30 29 29 29 28 27 26 25 25 25 25 25 25 25 25 25 25 25 25 26 26 26 26 26 25 24
11 15 20 25 29 32 32 31 31 33 33 33 33 33 32 32 31 31 31 30 30 28 27 26 26 26 27 26 26 26 25 25 25 26 26 25 25 24 24 24 23 22
10 11 14 17 21 26 28 28 31 33 33 33 32 30 30 31 31 32 32 31 30 30 29 29 29 29 29 28 28 28 27 27 27 26 27 26 25 24 24 23 22 22
14 13 12 11 14 20 25 27 29 29 28 29 29 27 27 28 29 30 30 30 31 31 32 32 33 32 32 31 30 30 30 30 29 28 27 27 25 24 23 23 23 22
17 18 17 15 15 18 22 22 21 21 22 24 26 26 25 24 24 25 26 28 29 30 32 33 34 34 34 33 32 31 32 32 31 30 29 28 27 26 25 25 24 24
18 19 19 19 18 18 18 16 14 14 16 20 24 25 24 22 21 21 22 23 24 26 28 30 32 34 34 34 33 32 32 33 33 32 31 31 31 30 29 28 27 27

ECMWFNIL_700_spd_105.txt.gz
Wind_Speed
15 13 12 11 11 10 10 9 9 9 9 8 8 8 7 7 7 7 8 8 8 8 7 7 6 7 7 6 6 6 6 6 7 7 8 7 7 8 8 7 7 7
15 14 13 12 12 12 11 10 10 9 9 9 9 9 8 8 8 7 8 8 8 8 7 7 7 7 7 7 7 6 6 6 6 7 8 8 8 8 9 9 8 8
15 14 13 12 12 12 12 12 11 10 10 9 9 9 9 9 8 8 7 8 8 8 8 8 7 7 7 7 7 7 7 6 6 6 7 8 9 10 10 10 10 9
16 15 14 13 13 13 13 13 12 11 11 10 10 10 10 9 9 9 8 8 9 9 10 9 9 8 7 7 7 7 7 6 6 7 8 8 9 10 11 11 11 10
17 17 16 15 14 14 14 14 13 13 13 12 12 11 10 10 10 10 10 10 10 10 10 10 9 9 8 8 7 7 7 7 7 8 8 8 8 9 10 10 11 11
17 18 18 17 16 16 16 15 15 15 14 14 13 12 11 11 11 12 12 11 11 11 11 10 10 10 9 9 8 8 7 7 8 8 8 8 8 9 9 9 10 11
18 18 19 19 18 18 18 17 17 16 16 16 15 14 13 12 12 13 13 12 12 12 12 11 11 11 10 10 9 9 8 8 8 8 8 8 8 9 10 10 10 10
19 19 20 20 20 20 20 19 18 18 17 17 17 16 15 14 13 13 14 14 13 13 12 12 12 12 11 10 10 9 9 9 9 9 8 8 8 9 9 10 10 10
21 21 21 21 21 22 22 22 21 20 19 18 18 18 17 16 15 15 15 14 14 14 13 13 13 13 12 11 11 10 9 9 9 9 9 9 8 8 8 9 9 10
24 23 23 23 23 23 23 23 23 22 21 20 20 19 18 17 16 16 16 15 15 15 14 14 14 14 13 12 12 11 11 10 10 10 9 9 9 9 8 8 9 10
27 26 25 24 24 24 24 25 25 25 23 22 22 21 20 18 18 17 17 16 16 16 16 16 15 15 14 14 13 13 12 12 11 11 10 10 9 9 9 8 8 9
29 29 28 27 26 25 25 26 26 26 26 25 24 23 22 21 20 19 18 18 17 17 17 17 17 16 16 15 15 14 14 13 13 12 12 11 11 11 10 10 9 10
29 30 30 29 29 28 27 27 27 28 28 28 27 26 25 24 23 21 20 19 19 18 18 18 18 17 17 16 16 16 15 15 15 14 14 13 13 12 12 11 11 11
30 30 31 31 30 29 29 28 28 28 29 29 29 28 27 27 26 24 23 21 21 20 20 19 19 18 17 17 16 17 17 16 16 16 15 15 15 14 13 13 13 13
31 31 30 31 31 31 30 30 29 29 29 29 29 30 29 29 28 26 25 23 22 22 21 21 21 20 19 18 18 18 18 18 17 17 17 16 16 16 15 15 14 14
33 33 32 31 31 31 31 31 30 29 28 28 28 29 30 29 29 28 27 25 24 23 23 23 22 22 21 20 20 19 19 19 19 19 18 18 18 18 17 17 17 16
33 34 34 34 32 32 33 33 32 30 29 28 27 27 28 29 29 29 28 27 26 25 24 24 24 23 23 23 22 22 21 21 21 20 20 20 20 19 19 19 19 19
29 31 33 35 35 33 32 32 32 31 29 28 27 26 26 26 27 27 28 28 28 27 27 26 25 25 24 24 24 24 23 23 22 22 22 22 21 21 21 21 21 21
22 25 29 34 36 34 33 33 32 31 29 28 27 27 26 25 25 25 26 27 28 28 29 29 28 27 26 26 26 26 25 25 25 24 24 24 23 23 23 23 23 23
17 20 24 29 34 36 37 36 34 31 28 27 27 27 26 26 25 25 25 25 26 27 28 29 29 29 28 28 29 28 28 28 27 27 26 26 25 25 25 25 25 26
15 16 19 24 31 36 37 36 34 32 30 29 27 26 25 26 26 25 25 26 26 27 27 27 28 28 28 29 29 30 30 30 29 29 28 28 27 27 27 27 27 28
12 11 11 13 18 25 32 35 34 31 28 29 29 28 26 25 25 26 26 27 27 27 27 27 27 27 28 28 29 30 30 30 29 29 29 28 28 28 28 28 28 28
12 10 10 8 7 10 17 24 28 28 27 29 30 29 29 28 27 27 27 28 28 29 29 28 28 27 27 28 29 29 29 29 28 28 27 27 27 27 27 27 27 27
12 11 11 11 10 10 10 13 19 23 26 29 30 31 33 34 33 31 29 27 27 29 31 30 29 29 28 28 29 29 29 28 28 28 27 27 27 27 27 27 27 27
13 13 12 11 12 13 12 12 15 18 21 25 28 30 32 34 35 34 31 27 26 28 30 31 31 30 30 30 31 31 30 30 29 29 29 29 29 29 29 29 28 27
12 14 14 14 13 13 13 13 14 15 15 15 16 21 27 30 31 32 30 27 25 25 26 28 31 31 31 31 32 33 33 32 32 31 31 31 31 31 31 31 31 30

ECMWFNIL_700_spd_108.txt.gz
Wind_Speed
17 16 15 14 13 13 12 12 12 12 12 11 11 11 11 10 10 10 10 10 10 9 9 9 9 9 9 9 9 9 9 9 9 9 9 9 9 9 9 8 9 9
17 16 15 14 14 13 12 12 12 12 11 11 11 11 10 10 10 10 10 10 10 10 10 10 10 10 10 9 9 8 8 8 9 10 10 10 10 10 9 9 9 9
18 16 15 14 13 13 13 12 12 12 11 11 10 10 10 10 10 10 10 10 10 10 10 11 11 11 10 10 9 8 8 8 9 10 10 10 10 10 10 10 10 9
18 17 16 15 15 14 14 14 13 13 12 11 10 10 9 9 10 10 10 10 10 10 10 11 11 10 10 9 9 8 8 8 9 9 9 9 10 10 10 11 11 10
19 18 17 17 16 16 15 14 14 14 13 12 11 10 9 9 9 10 10 10 10 10 10 11 11 10 10 9 9 8 8 9 9 9 9 8 9 9 9 10 11 11
20 19 19 18 17 17 16 15 15 14 14 14 13 11 10 9 9 10 10 10 10 10 10 11 11 10 10 9 9 9 8 8 8 8 8 8 8 8 8 9 10 11
20 20 20 19 19 18 17 17 16 16 15 15 14 13 12 10 10 10 11 11 11 10 11 11 11 11 10 10 10 9 9 8 8 8 8 8 8 8 9 9 9 10
20 20 21 20 20 19 19 18 17 17 16 16 15 14 14 12 11 11 11 12 12 12 12 12 12 11 11 11 10 10 9 9 8 8 8 7 8 8 9 9 9 9
20 21 21 21 21 20 20 19 19 18 18 17 16 16 15 15 13 13 13 13 13 13 13 13 13 13 12 12 11 11 10 10 9 9 8 8 8 8 8 8 9 9
22 21 22 22 22 21 21 21 21 20 20 19 18 17 17 16 16 15 14 14 14 15 15 14 14 14 13 13 13 12 11 11 10 10 9 9 9 9 8 8 9 9
24 23 23 23 22 22 22 22 22 22 22 21 20 19 19 18 18 17 16 15 15 16 16 16 15 15 14 14 14 13 13 12 12 11 10 10 10 10 9 9 10 10
26 25 24 24 24 24 24 24 24 24 24 23 23 22 21 20 19 19 18 17 17 17 17 17 16 16 15 15 15 15 14 13 13 13 12 12 11 11 11 11 11 11
27 27 26 26 26 25 25 25 25 26 26 26 25 25 23 22 21 21 20 19 18 18 18 18 17 17 17 16 16 16 15 15 15 14 14 14 13 13 13 12 13 13
28 28 28 29 29 28 27 26 26 26 27 28 28 27 26 25 24 23 22 21 20 20 19 19 18 18 18 18 17 17 17 16 16 16 16 16 16 15 15 14 14 14
31 30 29 30 31 30 30 29 28 28 28 29 29 29 29 28 27 26 24 23 22 21 20 20 19 19 19 19 19 18 18 17 18 18 17 17 17 17 17 16 16 15
33 32 31 31 31 32 32 31 31 30 29 29 29 30 30 30 29 28 26 25 24 23 22 21 21 21 20 19 19 19 19 18 18 18 18 18 18 18 18 18 17 17
36 35 34 33 32 32 32 32 32 32 31 31 30 30 30 30 30 29 28 28 27 25 24 24 23 24 22 21 21 21 21 20 20 19 19 19 19 19 19 20 19 19
34 35 36 36 35 35 34 33 32 32 33 32 31 30 30 29 29 29 29 29 29 28 27 26 26 26 24 22 23 23 23 22 22 21 21 21 21 21 21 21 21 21
28 30 34 38 39 39 38 36 34 33 33 33 32 32 31 29 29 29 29 29 30 30 29 28 28 29 26 24 25 25 25 25 24 23 23 23 23 23 22 23 23 23
24 25 28 33 37 40 40 39 38 36 34 34 34 33 32 30 29 29 28 28 28 28 29 28 29 30 29 27 27 28 27 27 26 25 25 25 25 25 24 24 24 24
21 21 23 26 30 35 37 40 41 41 38 36 34 33 32 31 30 29 28 27 26 26 26 26 28 30 30 29 30 30 29 29 29 28 27 27 26 26 26 26 26 26
18 19 20 22 24 27 30 33 37 41 41 39 35 33 31 30 29 28 28 26 25 26 25 25 28 29 27 27 28 29 29 30 30 30 29 29 28 28 28 28 27 27
18 18 19 20 21 22 23 24 27 32 37 38 36 33 31 29 28 27 26 26 26 26 25 26 28 27 24 25 26 26 27 28 29 30 30 29 28 27 27 27 27 26
18 18 18 17 18 17 17 17 18 22 28 34 37 35 33 33 32 29 26 25 25 25 25 26 26 23 23 25 26 26 26 26 26 28 28 28 27 26 26 26 26 26
18 18 17 17 17 16 14 14 14 15 19 26 32 34 34 36 38 36 32 28 27 26 26 26 25 23 23 25 26 26 27 26 26 27 27 27 26 26 26 26 26 27
18 18 17 17 17 16 14 14 13 12 14 19 23 28 32 35 38 39 38 37 35 35 35 34 31 28 26 25 24 24 26 27 27 28 27 27 28 28 28 28 29 30

ECMWFNIL_700_spd_111.txt.gz
Wind_Speed
18 17 16 16 16 16 15 15 15 15 15 14 14 14 14 13 13 12 11 11 12 12 11 11 11 11 11 11 10 9 9 10 10 10 11 11 11 10 10 10 10 10
19 18 18 18 17 16 15 15 15 15 15 14 14 13 13 12 12 12 11 11 11 11 11 11 11 10 10 10 9 9 9 10 11 11 11 12 11 10 11 11 11 11
20 19 19 18 18 17 16 16 15 14 13 13 13 11 11 11 11 11 11 11 11 11 11 11 10 10 9 9 9 9 10 11 11 11 11 11 11 10 11 11 11 12
21 20 19 19 18 17 17 16 15 15 14 13 13 12 11 11 11 11 11 10 11 11 10 11 10 10 9 9 9 10 10 10 11 11 11 10 10 10 11 12 12 12
22 21 21 20 19 18 17 16 16 16 15 14 14 14 13 11 10 10 10 10 10 10 10 11 11 10 10 9 10 10 10 10 10 10 9 8 8 9 10 11 12 12
22 22 21 21 20 19 18 17 17 16 15 15 15 14 13 11 11 11 10 10 10 10 11 11 11 11 10 10 10 10 10 10 9 9 8 8 8 8 9 11 11 12
22 22 22 22 21 20 19 18 18 17 16 16 15 14 13 13 12 12 11 11 11 11 11 11 11 11 11 11 11 10 10 9 8 8 8 8 8 8 9 10 10 10
21 22 22 22 21 20 19 18 18 18 17 17 16 15 15 14 13 13 12 12 12 12 12 11 11 11 11 11 11 10 10 9 7 7 7 7 8 8 8 9 9 9
22 22 22 22 21 21 20 20 19 18 18 18 17 16 16 15 14 14 13 13 13 12 12 11 11 11 11 11 11 10 10 9 7 7 7 8 8 8 8 8 8 8
22 22 22 22 22 22 21 21 20 20 19 19 19 18 17 16 16 16 14 13 13 12 12 12 12 11 11 11 11 11 11 10 9 8 8 8 8 8 8 7 8 8
23 23 23 23 23 23 23 22 22 22 21 20 20 20 19 18 18 18 16 14 13 13 12 12 12 12 12 12 11 11 11 10 10 9 9 9 9 9 8 8 8 8
24 24 24 24 23 23 23 23 23 23 23 21 20 20 20 19 19 18 17 15 15 14 14 13 13 13 13 13 12 13 12 12 11 11 10 10 9 9 9 9 9 10
26 25 24 24 24 24 24 24 23 24 24 23 22 21 21 20 20 19 17 16 16 15 15 14 14 14 14 14 14 14 13 13 13 12 12 11 11 10 10 10 10 11
26 27 26 26 25 24 24 25 25 25 25 25 25 25 23 21 21 20 18 17 16 16 16 16 15 15 14 14 15 15 15 15 14 14 13 13 13 12 12 12 12 12
28 29 29 28 28 27 26 25 25 25 26 26 26 26 25 23 23 22 21 20 18 17 17 17 17 16 16 16 17 16 16 16 16 15 15 15 15 14 14 13 13 13
32 32 31 30 30 29 28 27 27 27 27 27 26 26 26 25 25 24 23 23 21 19 18 18 18 18 18 17 17 17 17 17 17 17 17 17 16 15 15 15 15 15
36 35 34 33 33 32 31 31 30 29 29 29 28 27 27 26 26 25 24 25 24 21 20 19 20 21 21 20 18 18 18 19 19 18 17 16 15 16 16 16 16 16
40 39 38 37 36 36 35 35 34 32 31 31 30 30 29 28 27 27 26 25 25 24 23 22 22 23 23 22 20 20 20 20 20 20 19 18 17 18 18 18 18 18
39 40 40 40 40 40 40 39 38 37 34 33 32 32 32 31 30 29 28 27 26 26 26 25 24 24 25 23 21 21 22 22 21 21 21 20 20 19 19 19 19 19
34 36 36 37 40 42 43 43 42 40 38 36 35 35 34 33 32 30 29 29 27 27 27 27 26 27 27 26 23 22 24 24 23 22 22 23 23 22 22 22 22 21
30 30 31 34 39 41 42 44 43 42 41 39 38 37 35 34 33 32 30 28 27 28 27 26 28 29 29 29 26 25 26 26 25 24 24 25 25 25 24 25 25 24
28 28 29 32 35 36 37 39 39 40 43 43 41 39 38 37 37 35 31 29 27 27 27 28 29 29 29 28 27 26 26 27 26 26 26 26 27 27 27 27 27 27
26 26 27 26 27 28 28 28 29 33 38 41 41 42 41 41 40 36 32 32 30 28 29 30 30 29 28 27 24 23 24 25 25 25 25 25 25 27 28 28 28 28
24 24 24 23 22 22 21 20 22 25 28 31 35 38 39 41 42 38 33 32 32 29 28 30 29 28 27 26 23 22 22 23 24 24 24 24 24 25 25 25 26 28
24 24 24 23 21 20 18 19 20 21 22 24 27 30 31 33 36 38 35 33 33 32 29 28 27 26 25 24 21 20 20 22 24 25 25 25 25 26 25 26 27 27
25 24 23 22 21 20 18 18 17 17 18 19 21 22 23 22 25 32 34 34 34 34 31 28 24 23 24 24 23 21 19 20 23 26 27 26 27 28 29 30 29 26

ECMWFNIL_700_spd_114.txt.gz
Wind_Speed
15 14 14 13 14 13 13 13 13 13 13 12 12 12 11 11 10 10 10 9 9 9 9 9 9 8 9 9 8 8 8 9 10 9 9 9 10 10 9 8 8 9
16 15 14 14 14 13 13 13 13 13 13 12 11 11 11 11 11 11 11 10 10 10 9 9 9 9 8 8 9 9 9 9 9 9 8 9 10 9 9 9 9 9
17 16 15 15 14 14 13 13 13 13 12 11 11 11 11 11 12 11 11 11 10 10 9 9 10 10 9 9 10 9 9 8 7 8 8 9 9 9 10 10 10 9
18 17 16 17 16 16 15 14 13 13 13 12 12 12 11 11 12 11 11 11 10 10 10 10 11 10 10 10 10 9 8 8 7 7 8 8 9 10 11 12 11 10
19 18 18 18 17 17 17 16 14 14 13 12 11 12 11 10 10 10 10 11 10 10 10 10 11 11 10 10 10 9 8 8 7 7 8 8 8 9 11 12 11 10
21 20 19 19 18 17 17 17 16 15 14 13 12 12 11 10 10 10 11 11 10 10 10 10 10 10 10 10 9 9 8 8 7 7 7 7 7 8 9 10 9 9
21 21 21 20 19 18 17 17 16 16 15 13 12 12 12 10 10 11 11 11 10 10 10 10 10 10 10 9 9 9 8 8 8 8 7 7 8 8 7 7 7 7
21 21 22 21 21 20 18 18 17 15 14 13 13 13 12 12 11 12 12 11 10 10 10 9 9 9 9 9 9 8 8 8 8 7 7 7 7 7 6 6 7 7
20 21 21 22 22 21 20 19 18 16 15 14 14 14 14 13 13 13 13 12 11 11 10 9 9 9 9 9 9 9 9 9 8 7 6 6 6 5 5 6 6 6
20 20 20 21 22 21 21 20 19 18 17 16 16 16 15 15 15 15 14 14 12 11 10 10 10 10 10 9 9 9 9 9 8 7 7 7 6 5 5 5 5 5
19 20 20 20 20 21 21 20 20 20 19 18 17 17 16 15 15 15 15 15 14 12 12 12 11 11 10 10 9 10 10 9 9 8 8 7 6 6 5 6 6 5
20 20 20 20 20 20 20 20 20 20 19 19 18 17 16 16 16 16 16 17 16 15 14 14 12 11 10 10 10 10 11 10 10 10 9 8 7 7 7 7 7 6
22 21 20 20 20 20 20 20 20 19 20 20 19 18 18 17 17 17 17 17 17 16 15 15 14 12 11 10 10 11 11 11 11 11 10 9 8 8 8 9 8 7
22 22 21 20 20 20 20 20 20 19 19 21 19 19 19 19 18 17 17 16 16 15 16 16 15 14 13 12 12 11 11 12 12 13 12 11 10 10 10 10 9 9
23 23 23 23 23 23 22 22 21 20 20 20 19 19 20 20 19 18 17 17 16 15 16 17 16 15 14 13 13 12 12 13 13 13 13 13 12 11 11 11 11 11
25 25 26 26 25 26 25 24 24 23 23 22 20 20 20 20 21 21 20 19 17 15 15 17 17 16 16 15 14 13 13 13 13 13 14 13 12 12 13 13 12 12
28 28 28 28 27 27 27 26 25 25 25 23 23 22 21 21 22 22 21 20 18 17 17 18 18 17 17 17 16 14 14 14 14 14 14 14 13 13 14 13 13 14
33 33 32 32 31 31 30 29 28 27 26 26 25 25 24 23 23 22 22 21 20 19 19 20 19 18 19 20 18 16 15 16 16 15 15 14 14 14 14 14 14 15
36 37 37 37 35 33 32 31 31 31 30 29 29 28 27 26 25 25 24 23 22 21 22 22 21 21 22 22 20 18 17 17 18 18 17 17 16 15 15 16 16 15
35 36 38 39 38 37 36 35 34 34 33 32 32 31 30 29 28 28 27 26 26 25 25 26 25 25 24 22 21 20 18 18 20 20 19 19 18 18 17 17 17 17
33 34 35 37 38 38 39 39 39 38 37 35 35 35 34 32 32 31 30 30 30 29 29 28 27 27 26 24 24 24 21 20 21 21 21 21 20 19 19 19 19 20
32 33 33 33 35 36 36 37 38 38 38 37 37 37 37 37 37 36 34 33 33 33 31 29 28 29 30 28 27 27 24 22 22 23 23 23 22 22 23 23 23 23
31 30 29 29 31 31 31 31 32 33 35 35 35 34 34 35 37 38 37 36 36 36 34 32 30 30 31 30 30 29 26 23 22 23 24 24 24 24 25 25 26 25
28 27 26 25 26 26 25 25 25 27 28 29 28 28 29 32 34 37 38 40 41 40 37 34 32 32 32 31 28 27 26 24 22 22 23 23 23 23 24 24 25 25
26 26 25 25 24 23 23 22 21 22 23 22 21 21 23 26 29 32 34 38 42 43 41 40 37 35 34 31 27 26 26 25 24 22 22 22 22 22 22 22 23 23
24 24 24 23 23 23 23 21 20 19 20 19 19 18 19 21 24 27 29 32 36 36 38 41 40 37 34 30 27 28 28 26 24 22 21 21 21 22 22 22 22 23

ECMWFNIL_700_spd_117.txt.gz
Wind_Speed
13 13 12 13 13 13 13 12 12 12 11 10 9 8 8 7 7 7 7 6 6 6 6 6 6 6 6 5 5 5 5 5 6 6 6 7 7 7 7 8 8 9
13 12 12 12 13 13 13 12 13 12 11 10 9 8 8 8 7 7 7 7 7 7 7 7 6 6 6 6 6 6 5 5 6 6 7 7 7 7 8 8 9 9
14 13 12 12 12 12 12 12 12 12 11 10 10 8 8 8 7 7 8 8 7 7 7 7 7 7 7 6 6 5 5 5 5 6 7 7 8 8 8 9 9 9
15 14 13 13 13 12 13 12 11 11 11 10 9 9 8 8 8 8 8 9 8 8 8 8 8 7 7 7 6 6 6 6 6 6 7 7 8 8 9 9 10 10
16 15 15 14 14 13 13 12 11 11 10 10 10 9 8 8 8 8 8 9 8 9 9 9 9 8 8 8 7 7 7 7 6 6 7 7 7 8 9 10 10 10
17 17 17 16 16 15 14 13 12 11 10 10 10 9 8 8 8 8 8 9 9 9 9 9 9 9 8 9 8 7 8 7 7 7 7 7 6 6 7 8 9 9
18 19 18 18 17 16 15 14 13 12 11 11 10 9 9 9 9 9 9 8 8 9 9 8 8 8 8 8 8 8 8 7 7 6 6 6 6 7 6 6 7 8
18 19 20 19 18 17 16 15 14 13 12 12 11 10 10 10 9 9 9 9 9 8 8 8 7 7 7 7 7 7 7 7 7 6 5 5 6 6 6 6 7 7
18 19 20 20 20 18 18 17 15 14 13 13 12 11 12 11 11 10 10 9 9 9 8 8 8 7 7 7 7 7 7 7 7 6 6 5 6 6 6 6 7 6
18 18 20 20 21 20 19 18 17 16 15 14 13 13 13 12 12 11 11 10 10 9 9 9 9 8 8 8 8 7 8 8 7 7 7 6 6 6 6 6 6 6
18 19 19 19 20 20 20 20 19 18 17 15 15 15 13 13 13 12 11 12 11 10 11 10 10 10 9 8 8 8 8 8 7 8 8 8 8 7 7 7 6 6
19 18 18 18 19 19 20 20 20 19 18 17 16 16 15 13 14 13 12 13 12 12 12 12 11 11 10 9 9 9 8 8 7 8 8 8 8 8 7 7 6 6
19 19 18 18 18 18 19 19 19 20 20 18 17 16 16 15 14 14 14 14 13 13 13 14 14 13 12 11 11 10 10 9 9 9 8 8 8 8 7 7 7 7
19 19 19 19 18 18 19 19 19 19 20 20 18 17 17 17 16 15 15 15 15 14 15 16 16 15 14 13 12 11 11 11 11 11 9 9 8 8 8 8 8 8
22 22 21 21 20 19 19 19 19 20 20 20 19 18 18 18 18 17 17 17 16 16 16 17 18 18 17 15 13 13 12 12 12 11 10 9 9 9 9 9 8 9
26 26 25 23 22 22 21 21 21 21 21 21 20 18 18 18 18 19 19 18 18 17 17 18 20 20 18 16 15 15 14 13 12 11 11 11 10 10 10 10 10 10
26 25 24 23 23 23 22 22 22 21 22 22 21 20 20 19 18 18 18 18 18 18 19 19 20 19 17 16 17 16 15 14 14 13 12 12 11 11 11 11 11 11
27 24 23 23 23 24 24 24 23 22 23 23 23 23 23 22 20 19 18 18 17 18 19 19 19 19 17 17 17 17 15 15 16 15 14 13 12 12 12 12 12 12
27 24 24 26 26 26 26 25 25 24 24 25 25 25 25 24 23 22 21 21 19 19 19 18 17 18 18 17 17 17 16 16 17 18 16 15 14 14 14 14 14 13
26 25 26 28 28 27 26 26 26 27 27 28 28 28 27 27 27 26 25 24 23 22 22 21 19 18 18 18 17 18 18 18 19 20 19 17 16 16 17 16 16 14
27 26 25 27 29 29 29 28 29 30 31 31 31 31 31 31 31 30 29 28 27 26 26 26 23 21 21 20 19 19 19 18 19 21 20 18 18 18 18 17 17 16
30 29 28 28 29 30 30 30 31 31 32 32 33 33 34 35 34 34 33 32 31 29 29 29 27 26 24 22 21 22 21 20 20 21 21 21 20 20 19 19 18 18
33 33 32 30 29 29 29 29 30 31 31 32 33 34 36 37 37 37 37 37 36 35 34 33 32 31 29 26 24 25 24 22 21 21 22 23 23 23 22 22 21 21
34 33 31 29 28 28 28 28 29 30 30 31 31 32 33 35 36 36 37 38 39 39 39 39 37 35 33 31 29 28 27 26 24 24 24 24 23 23 23 23 23 22
31 30 28 27 27 27 27 28 27 27 27 27 28 29 30 30 30 31 32 33 35 37 38 38 37 35 34 34 33 32 31 29 27 26 25 24 23 22 22 22 22 21
27 26 25 24 24 25 26 26 25 24 24 24 24 25 26 25 25 24 24 25 28 31 32 34 34 33 34 35 36 36 36 33 29 28 27 27 26 25 24 22 21 21

ECMWFNIL_700_spd_120.txt.gz
Wind_Speed
14 14 14 14 14 14 13 13 12 11 11 11 10 11 10 9 9 8 8 8 8 8 8 8 8 8 8 8 8 8 8 8 8 8 8 8 8 8 9 10 10 10
14 15 15 15 14 14 13 13 13 12 11 11 10 10 9 9 8 8 8 8 8 8 8 8 8 8 8 9 9 9 8 8 8 8 8 8 8 8 9 9 9 9
14 15 15 14 14 14 13 13 13 12 11 11 10 9 9 9 9 9 9 9 9 8 8 8 8 8 8 9 9 9 8 8 8 8 9 9 8 9 9 9 9 9
15 15 14 14 15 14 14 14 13 12 11 11 10 10 10 9 9 10 9 9 9 9 8 8 8 8 8 9 8 9 9 8 8 8 9 9 9 9 9 9 9 9
15 15 15 15 15 15 15 15 13 12 12 12 11 10 10 9 9 9 9 9 9 9 9 8 8 8 9 9 8 8 9 8 9 9 9 9 9 9 9 9 10 9
17 17 16 15 15 15 14 13 13 12 12 12 11 10 10 10 9 9 9 9 9 9 9 8 8 8 9 10 9 9 9 9 9 9 9 9 9 9 9 9 9 10
17 18 18 17 16 15 13 12 12 12 11 11 11 11 11 10 9 9 9 8 8 8 9 8 8 9 9 10 9 9 9 9 9 9 9 9 9 9 9 9 9 9
18 19 19 18 18 16 15 14 12 12 12 12 11 11 11 10 9 9 9 8 8 8 9 9 9 9 10 10 10 10 10 10 10 10 9 9 9 9 9 9 9 9
19 19 19 20 20 18 17 16 14 14 13 12 12 12 11 11 11 11 10 9 9 9 9 9 9 9 9 10 10 10 10 10 10 10 9 9 9 9 9 9 9 9
20 19 19 20 21 20 19 18 16 15 15 14 13 13 12 12 12 12 11 10 10 9 9 9 10 10 10 10 10 11 11 11 11 11 10 10 10 9 8 8 8 8
20 20 20 20 20 21 21 20 18 17 16 15 14 14 13 13 13 12 12 11 11 10 10 10 11 11 11 11 11 11 11 11 12 12 12 11 11 10 9 9 9 9
20 20 19 19 19 20 21 21 21 19 18 18 17 16 16 15 14 14 13 13 13 13 12 12 12 12 12 12 12 12 12 12 12 12 13 12 12 11 11 10 10 10
21 21 20 19 19 19 20 21 22 21 20 20 19 18 18 17 16 16 15 15 15 15 14 14 14 14 14 14 14 14 14 13 13 13 14 14 13 12 12 12 12 11
23 23 22 21 20 20 20 20 21 22 22 21 20 20 19 18 17 17 17 17 17 16 16 16 16 16 16 16 15 15 15 14 14 14 14 14 14 14 14 14 13 12
22 23 22 21 21 21 21 21 21 22 22 22 22 21 21 20 19 19 19 19 18 18 18 18 18 17 17 16 16 16 16 16 16 15 15 15 15 15 16 15 14 14
21 21 21 21 22 22 22 22 22 22 22 21 21 21 21 21 21 21 21 20 20 19 19 18 18 17 16 16 17 17 17 17 16 16 16 16 16 16 16 16 16 15
19 19 20 21 22 22 22 21 22 22 21 20 20 19 19 20 20 21 21 20 20 20 20 19 17 16 16 17 17 18 19 18 17 17 17 17 16 17 17 17 17 17
19 19 20 21 22 22 21 21 21 21 21 21 20 19 19 19 20 20 20 20 19 19 19 19 18 17 18 18 18 18 19 19 19 18 19 18 17 17 18 18 19 18
19 19 21 22 22 22 22 22 22 22 22 22 22 22 21 21 21 21 22 22 21 20 19 19 19 19 19 19 19 19 19 19 19 19 20 20 18 18 19 19 19 18
21 21 23 24 24 24 24 23 24 24 24 25 25 25 25 25 24 24 24 24 23 23 22 21 20 20 19 20 20 20 20 19 19 20 20 21 21 20 19 19 19 19
23 25 26 26 27 28 27 27 28 28 27 27 29 30 30 29 28 27 27 26 25 25 25 24 23 22 21 21 21 21 22 21 20 21 22 23 23 21 20 20 20 20
24 25 26 25 27 29 29 30 32 32 31 32 32 32 32 31 31 31 31 30 28 28 27 27 26 25 25 24 23 23 23 23 22 23 24 25 24 22 20 20 20 21
25 26 27 27 27 27 29 32 33 32 34 35 33 33 34 34 33 34 34 32 32 32 32 31 29 29 28 28 27 26 26 25 25 25 26 26 25 23 21 21 21 21
26 26 27 29 30 31 33 34 34 33 35 37 35 34 36 35 34 35 35 35 35 35 36 35 34 33 33 32 31 31 30 29 29 29 29 28 27 25 24 24 23 23
23 23 24 26 30 33 35 36 35 35 36 37 35 34 34 33 33 34 35 35 36 37 38 38 38 38 37 36 36 36 36 36 35 34 32 31 30 28 26 26 25 24
21 21 22 24 26 29 30 32 32 32 32 33 32 32 32 31 31 32 33 34 35 36 36 37 38 39 38 39 40 40 40 41 41 37 35 34 32 30 28 27 27 25

ECMWFNIL_700_spd_123.txt.gz
Wind_Speed
15 15 15 15 15 15 15 14 13 12 11 11 10 10 10 10 9 9 9 9 9 8 8 8 8 8 8 9 9 9 9 9 9 9 9 9 9 10 11 12 13 13
15 16 16 16 16 17 16 15 14 13 12 12 12 11 11 10 9 9 9 9 9 9 9 8 8 8 9 9 9 10 10 10 10 10 10 10 10 10 11 12 12 12
16 16 16 16 16 16 16 16 15 14 14 13 13 12 11 10 10 10 10 10 10 10 10 10 9 9 9 10 10 11 10 10 10 10 10 11 10 10 11 11 11 11
16 17 17 17 16 16 16 17 16 15 15 14 13 13 12 11 11 11 10 10 10 10 10 10 10 10 10 10 11 11 11 11 11 11 11 12 12 11 11 12 12 11
17 17 18 18 17 17 17 17 16 15 15 14 13 13 13 12 11 11 11 10 10 10 10 10 10 11 11 11 11 12 12 11 11 12 12 12 12 12 12 12 12 12
19 19 19 19 18 18 18 17 16 15 15 15 15 14 13 12 12 12 11 11 11 11 11 11 11 11 11 12 12 12 12 12 12 12 13 13 12 12 12 12 13 12
20 20 20 20 19 18 18 17 16 16 15 16 16 15 14 13 12 12 11 12 12 12 12 12 12 12 12 12 12 12 12 13 12 12 13 13 13 12 12 13 13 12
20 20 21 21 20 19 18 18 17 16 16 16 15 14 13 13 12 12 12 12 12 12 12 12 12 12 12 12 12 12 13 13 13 13 14 14 13 13 13 13 13 13
21 21 22 22 22 20 19 18 18 18 17 16 14 13 14 13 13 13 13 13 12 12 12 12 11 12 12 11 12 12 13 13 13 13 14 14 13 14 14 13 13 13
22 22 23 23 23 21 20 19 19 19 18 16 15 15 14 14 14 14 14 13 13 12 12 11 11 11 11 11 12 12 12 13 13 13 14 14 14 13 13 13 13 13
23 23 24 24 23 22 21 21 20 20 19 18 17 16 16 15 16 15 15 14 13 13 13 12 12 12 12 12 13 13 13 13 13 13 14 14 14 13 13 13 13 13
23 24 24 24 23 23 23 22 21 21 20 19 18 18 17 17 17 16 15 15 14 14 14 14 14 13 13 13 13 13 13 13 13 14 15 15 15 14 14 13 13 14
24 24 24 24 24 23 23 24 23 22 21 20 19 19 18 18 18 17 16 15 16 16 16 15 15 15 15 15 14 14 14 14 14 15 15 16 16 16 15 15 15 15
25 25 25 25 24 24 24 24 25 24 23 22 21 20 20 19 19 18 17 17 17 17 17 17 17 17 16 16 15 15 15 15 15 15 16 16 17 17 17 17 17 16
27 27 26 26 25 25 25 25 25 26 25 24 23 23 22 21 20 19 19 19 19 19 19 18 17 17 17 17 17 16 16 16 16 16 17 17 17 18 18 18 18 18
28 28 27 26 26 25 25 25 25 26 26 26 25 24 24 23 22 22 22 21 20 20 20 19 18 18 18 18 18 18 18 19 18 18 18 18 18 19 19 20 20 19
28 28 28 28 28 27 27 26 26 26 26 25 25 24 23 23 23 23 23 22 22 21 21 20 18 18 18 18 19 20 20 21 20 20 20 19 19 20 20 21 21 21
27 28 29 29 30 29 28 27 27 27 26 25 24 23 22 23 23 23 22 22 22 22 21 20 19 19 19 19 20 20 21 21 21 21 21 21 21 21 21 21 22 22
27 27 28 29 30 30 29 27 26 26 26 26 25 24 23 23 22 22 22 22 22 21 21 20 19 19 20 20 21 21 21 21 21 21 21 22 23 22 22 22 22 23
23 23 25 28 30 29 28 28 26 24 25 25 24 23 22 23 22 21 21 21 21 21 21 21 21 21 21 21 21 22 23 23 23 23 22 22 24 24 24 23 23 23
22 22 23 27 28 28 29 28 26 25 25 24 24 23 22 23 23 22 22 22 22 23 23 23 23 23 23 22 22 23 24 25 26 25 24 23 25 25 25 25 24 24
26 25 24 26 27 27 28 28 27 25 23 24 26 26 23 22 24 24 24 25 24 24 25 25 25 25 25 25 25 25 25 26 27 27 26 26 26 27 26 26 25 25
25 23 22 22 23 24 26 27 28 26 23 25 29 28 24 22 24 26 26 27 27 27 27 27 27 28 28 28 28 28 28 28 28 28 28 28 28 28 29 28 27 26
24 23 21 20 23 26 26 26 26 25 24 27 29 28 25 24 25 26 27 28 30 30 30 30 31 32 33 32 32 32 32 31 31 31 31 31 30 31 31 31 30 28
23 22 22 24 27 29 28 26 26 26 25 25 26 27 27 27 28 29 28 29 31 32 34 35 36 36 36 36 36 36 36 35 35 35 35 34 34 34 35 34 33 30
18 18 20 21 23 25 25 25 26 27 27 27 27 28 30 32 33 33 31 30 31 33 35 37 38 37 37 38 39 39 39 39 40 40 39 39 39 39 39 37 35 33